GFSSW_850_thetae_000.txt.gz
Theta_e
314 315 315 312 310 309 309 309 310 311 312 313 314 314 314 313 314 318 321 321 317 314 314 318 322 326 327 330 332 332 340 336 335 334 334 325 324 321 323 323 324 323 324 323 319
316 316 316 316 313 313 311 311 312 313 314 314 315 315 315 315 317 319 319 315 314 314 325 324 324 325 327 328 330 333 334 335 333 332 332 325 324 321 322 324 324 323 321 319 320
316 317 318 317 316 314 312 314 314 314 315 315 313 312 312 313 318 318 316 313 315 316 323 323 325 326 327 327 328 329 334 333 329 327 327 324 323 321 322 324 325 324 320 319 319
313 314 315 316 316 315 315 315 314 314 312 311 311 311 311 316 320 315 310 313 315 318 323 322 324 324 327 328 326 327 327 327 326 323 325 324 322 321 321 324 324 323 320 319 318
312 312 312 313 314 315 315 314 314 313 312 311 312 311 314 316 315 313 310 311 314 319 322 323 323 324 327 326 325 325 325 324 324 321 322 323 321 321 322 323 323 321 319 318 318
311 311 311 311 312 313 314 313 313 313 311 312 312 312 315 317 314 310 310 313 317 320 322 323 323 322 323 323 324 324 323 323 322 321 321 322 321 321 321 323 322 319 318 318 317
311 310 310 310 311 311 312 313 313 313 311 312 311 311 317 314 311 312 311 314 315 319 322 322 322 321 322 322 322 322 323 322 321 321 321 321 323 323 322 321 319 318 318 318 317
311 310 310 310 310 310 310 312 313 312 311 312 311 314 317 314 310 310 314 315 317 318 320 321 320 322 322 321 321 322 322 324 323 321 321 321 322 323 321 320 319 318 318 318 316
310 310 310 310 309 309 309 310 311 311 311 312 317 318 317 312 311 314 314 316 318 319 319 319 320 321 321 323 323 323 323 323 324 322 323 321 323 324 321 320 319 319 319 318 317
309 310 310 309 309 309 309 308 309 310 313 313 315 315 314 313 314 313 314 316 318 319 319 319 320 323 322 322 324 324 322 323 324 323 322 322 321 323 322 320 319 320 319 319 318
308 309 309 309 309 309 309 316 319 319 316 318 318 317 315 313 312 312 314 316 318 320 322 320 322 323 323 322 323 323 324 324 324 325 323 322 322 322 323 321 320 320 320 320 319
309 309 309 309 310 310 311 320 318 316 315 316 317 316 316 314 314 314 315 317 319 322 322 323 322 323 324 324 323 324 323 322 323 323 323 323 323 322 322 322 320 319 319 320 319
310 310 309 309 310 310 314 318 314 315 317 319 317 316 316 315 314 315 314 317 320 322 323 324 324 322 323 324 323 323 322 322 322 323 322 322 322 321 320 321 322 321 320 320 320
311 311 312 310 312 313 315 314 314 314 319 319 316 316 315 315 315 315 314 318 320 321 322 324 323 321 321 321 322 322 323 322 322 321 322 321 323 321 321 321 320 322 321 320 320
314 312 311 311 314 314 316 315 313 317 330 319 316 315 316 315 318 316 316 317 321 321 322 323 321 320 321 321 321 322 321 321 322 322 321 322 322 322 323 323 322 321 322 321 320
323 318 312 313 311 316 313 313 314 322 326 320 317 315 316 316 318 317 316 317 320 320 321 321 319 320 320 321 321 321 321 321 322 322 323 321 322 322 323 323 323 322 322 321 320
324 324 321 310 322 320 314 315 321 324 322 321 319 317 317 318 317 319 319 318 319 319 321 321 321 319 320 320 319 320 321 324 327 327 325 323 322 322 324 323 322 321 323 321 320
318 320 324 322 312 315 315 317 322 324 324 321 319 319 318 319 319 319 320 320 319 320 321 322 322 320 319 320 321 320 320 322 324 325 326 321 322 322 322 320 320 321 321 320 319
304 318 322 322 317 314 320 318 322 323 321 321 320 320 320 320 320 320 320 320 321 320 321 322 322 323 320 319 320 322 321 321 322 321 322 322 322 322 320 317 318 319 318 319 318
304 309 316 323 321 314 319 321 322 322 322 323 321 322 323 324 321 320 321 322 321 321 320 322 322 323 320 319 320 320 321 322 321 321 320 321 320 322 322 318 315 315 316 318 318
309 318 321 322 320 315 320 322 323 322 322 320 321 321 320 321 322 322 322 323 323 323 321 321 322 323 318 319 320 319 320 321 322 319 320 320 321 321 319 319 317 314 316 317 318
313 314 319 320 319 319 320 320 320 321 321 321 320 321 320 320 322 322 323 324 323 323 323 322 323 323 321 321 319 319 320 321 320 320 321 321 322 321 321 317 317 317 316 316 316
311 312 316 318 317 316 316 316 317 320 322 320 320 321 321 322 323 322 322 321 321 323 323 322 323 323 323 321 320 320 320 319 320 319 321 321 322 318 317 317 317 317 316 316 315
309 309 311 316 316 317 317 317 318 318 318 320 320 321 322 323 322 322 322 322 318 321 323 322 322 322 323 323 322 320 320 320 320 321 320 321 321 320 317 316 315 316 316 316 315
308 309 311 309 311 312 311 312 313 314 315 316 316 316 319 321 322 323 323 321 321 320 321 322 322 321 322 322 323 324 322 320 320 321 321 321 321 322 321 319 315 316 316 316 314
308 308 308 307 308 307 307 307 308 310 312 313 315 315 316 317 319 320 319 319 320 318 315 317 323 322 321 321 322 322 323 323 320 320 320 321 321 321 321 322 321 318 317 316 315
308 307 306 307 307 307 308 308 308 307 307 307 308 309 314 315 314 313 314 314 313 313 310 311 315 320 325 322 322 323 323 323 323 321 320 321 320 320 320 320 320 321 320 318 317

GFSSW_850_thetae_003.txt.gz
Theta_e
315 314 313 311 309 307 309 309 309 310 310 311 312 312 312 311 314 318 321 321 320 313 315 321 319 320 329 330 329 331 329 329 331 330 328 323 322 321 323 323 323 323 322 322 320
315 315 315 314 312 310 310 310 311 311 312 313 314 314 313 313 317 318 319 318 313 313 322 324 325 325 328 328 327 330 324 328 329 326 323 323 322 321 323 323 323 322 322 321 316
315 316 317 316 314 313 313 313 312 313 314 314 313 313 313 314 317 319 318 315 313 314 318 324 325 325 326 327 327 327 329 330 325 326 324 323 322 321 321 321 324 322 320 317 320
313 314 315 315 314 313 314 313 313 313 312 311 311 311 312 316 318 315 312 312 314 316 320 322 323 324 325 324 325 325 327 326 325 324 324 322 322 320 321 322 323 324 320 319 320
312 311 312 312 313 314 314 313 313 312 311 311 311 311 312 316 315 315 311 311 314 317 322 322 322 324 323 325 324 323 324 324 323 323 322 322 321 320 321 323 324 323 321 318 318
311 311 311 311 312 313 313 313 313 312 311 311 311 311 315 315 315 314 310 311 315 318 321 322 323 322 322 322 321 323 323 323 322 321 321 321 321 321 322 323 321 320 320 319 318
310 310 310 310 311 312 312 312 313 312 311 311 311 311 314 315 313 311 310 312 314 320 321 321 322 321 321 320 321 322 321 320 320 320 320 320 320 320 321 322 322 321 320 318 318
310 310 310 310 309 310 311 312 312 312 311 311 311 313 316 315 313 310 310 314 315 316 321 322 321 321 321 321 320 320 319 319 319 319 320 319 317 319 321 322 322 321 320 318 318
310 310 309 309 309 309 309 310 311 311 311 311 315 318 317 314 310 310 313 315 316 318 318 318 320 321 321 318 317 318 316 318 321 319 320 317 317 319 321 322 320 319 317 317 317
309 309 309 309 309 309 309 308 309 309 311 313 312 317 314 314 313 313 312 316 317 319 319 318 319 318 316 316 317 318 318 318 319 319 319 318 318 320 320 320 320 319 318 318 318
308 308 309 309 309 309 310 318 319 319 315 316 318 315 315 313 313 311 313 315 318 319 318 319 316 317 316 316 317 319 320 320 318 321 319 319 319 318 320 319 318 319 318 318 318
309 309 309 309 309 310 314 318 318 315 314 314 316 316 316 314 313 313 314 316 318 317 318 318 318 317 319 319 319 319 318 319 318 321 319 318 319 318 317 319 319 318 318 318 318
311 312 311 310 310 311 312 315 316 314 315 316 317 316 316 315 314 314 314 316 317 318 318 317 320 320 320 320 320 319 319 320 319 321 319 319 318 318 318 319 320 319 320 319 319
317 313 313 312 316 312 315 315 315 313 316 318 316 316 316 315 314 315 314 317 317 318 317 318 320 320 319 319 320 319 320 321 320 319 317 317 319 317 318 317 316 319 318 319 318
324 322 314 312 311 317 316 314 313 317 320 319 316 315 315 314 316 316 315 315 318 319 318 319 319 319 319 319 318 318 320 320 320 319 319 319 318 317 316 317 317 315 319 318 319
325 325 322 314 313 313 315 313 315 319 320 318 314 314 314 315 316 316 316 317 318 318 317 317 319 318 318 319 319 319 319 319 319 317 319 317 318 318 316 318 317 317 318 320 319
318 321 325 320 320 320 315 316 316 318 320 319 317 315 315 315 315 318 316 316 314 318 316 318 319 318 319 318 318 319 317 317 321 321 319 317 318 318 316 317 317 318 321 320 320
304 310 321 324 319 312 315 313 318 320 321 319 319 317 316 316 315 315 317 316 314 315 316 316 316 318 316 318 317 317 316 316 319 323 320 320 319 320 317 320 321 322 322 322 320
303 306 314 322 320 312 319 313 317 319 321 321 321 318 317 317 316 315 315 316 317 315 316 318 318 318 317 317 318 317 318 317 317 317 317 317 317 317 318 317 316 318 320 321 321
304 316 318 320 321 314 315 317 316 319 320 320 321 320 319 318 317 317 316 317 317 318 317 316 318 318 318 318 317 317 316 318 317 320 318 317 316 317 317 318 314 313 317 320 320
311 316 319 321 321 315 313 316 319 319 320 320 319 319 318 318 318 318 318 319 319 320 318 317 316 319 318 317 318 317 319 318 317 315 315 316 314 313 317 316 313 315 316 319 319
313 312 318 318 318 316 313 316 316 315 316 318 319 319 319 319 319 319 319 319 320 319 320 319 318 319 319 317 317 317 318 319 320 317 317 319 319 316 313 314 313 313 317 318 318
308 309 313 314 313 311 313 315 315 317 317 319 321 321 321 322 322 320 321 321 319 320 322 322 322 321 321 318 317 317 317 317 318 314 318 320 320 316 317 316 315 315 315 316 316
308 303 310 313 314 313 311 309 310 309 311 312 313 316 318 318 318 322 321 321 320 319 319 319 323 323 322 320 319 318 318 318 317 319 320 319 319 317 315 314 312 314 316 316 315
308 307 307 306 307 305 305 305 305 305 307 308 309 310 308 312 316 317 317 316 316 316 313 314 321 321 317 316 319 320 320 319 318 318 319 319 318 318 317 314 312 315 316 315 315
307 306 306 305 306 304 304 304 306 307 306 306 306 307 306 306 307 308 311 313 315 313 312 312 313 311 311 313 315 316 318 319 319 319 319 319 319 316 317 318 317 315 315 314 314
305 306 306 305 305 304 304 306 307 306 306 306 306 306 306 306 307 308 308 309 311 311 311 311 312 311 311 312 312 313 317 321 322 319 319 319 319 317 318 318 319 319 317 314 315

GFSSW_850_thetae_006.txt.gz
Theta_e
314 313 311 310 308 307 308 309 310 310 311 311 311 311 311 311 311 317 318 318 318 313 317 318 317 325 325 324 329 330 327 327 329 327 329 324 321 322 323 322 322 323 323 323 322
315 314 313 313 312 311 310 310 312 312 312 313 313 312 312 312 316 317 318 317 313 313 320 322 323 325 326 327 325 326 320 323 327 326 322 322 321 322 323 323 322 322 322 322 321
315 316 316 316 315 313 313 312 313 313 314 314 313 313 313 313 315 317 317 315 313 313 319 323 324 325 325 327 326 326 325 327 326 326 323 322 320 321 322 320 322 321 322 321 319
313 314 314 314 314 313 313 313 313 313 312 311 311 311 312 316 318 315 312 311 313 314 318 323 323 324 324 323 325 325 326 326 325 324 324 321 322 319 322 322 323 323 323 321 318
311 311 312 312 313 313 313 313 313 311 310 311 311 311 311 315 315 316 314 311 313 315 320 321 322 323 322 323 323 322 322 324 324 324 322 322 320 319 319 321 321 322 322 320 317
310 310 311 311 312 313 313 313 312 311 311 311 311 311 314 315 315 315 312 310 313 316 321 321 322 322 321 320 321 322 322 323 323 323 321 320 320 319 320 321 322 323 322 319 318
310 310 310 310 311 312 312 312 312 311 311 311 311 311 312 314 313 313 310 310 312 316 320 321 321 322 320 319 321 322 321 320 320 320 318 320 319 318 320 321 322 323 322 320 318
310 309 309 309 309 310 311 311 312 312 311 311 311 313 313 314 314 313 310 311 313 317 320 321 321 321 321 320 319 319 318 318 317 318 319 319 317 316 320 321 321 321 321 320 319
309 309 309 309 309 309 309 310 311 311 311 311 312 317 316 314 313 310 310 313 315 316 318 319 319 320 320 316 315 315 314 316 317 318 318 315 315 316 318 321 321 320 320 319 319
308 309 309 309 309 309 309 308 309 309 309 310 312 315 315 314 313 313 312 314 316 317 318 318 318 316 314 314 314 315 315 315 316 318 318 317 316 315 319 320 320 320 321 320 320
309 309 309 309 309 309 312 319 319 320 317 313 316 312 315 314 313 313 312 314 316 318 316 318 315 316 315 315 315 314 316 317 317 317 318 318 318 317 317 318 318 319 318 320 320
311 310 310 309 309 310 315 317 317 315 315 314 314 316 317 315 313 312 312 315 316 315 316 316 316 315 315 316 316 316 316 315 316 318 317 317 318 318 315 317 318 319 318 319 319
314 313 313 311 312 312 312 314 314 314 313 314 317 316 314 316 314 313 313 315 315 316 316 315 317 318 317 318 319 318 317 316 317 318 317 318 318 317 316 317 319 319 319 319 320
323 318 314 313 315 312 316 315 313 313 314 317 316 316 316 315 314 315 313 314 315 316 315 316 318 318 318 318 318 318 317 318 319 318 317 317 319 315 315 315 314 317 319 319 318
325 324 318 314 313 313 315 313 313 316 316 317 315 315 315 315 315 315 314 315 315 317 317 316 318 317 319 319 316 318 318 318 319 317 317 317 316 317 315 315 315 314 317 319 319
318 324 324 316 314 318 316 313 315 316 317 317 314 314 314 314 314 317 315 315 317 317 315 315 318 317 317 318 317 317 318 317 316 315 317 317 316 319 315 317 317 317 318 318 318
305 314 322 324 318 317 315 315 313 315 317 318 317 314 313 314 314 315 315 314 313 315 313 313 314 316 318 317 318 318 315 316 317 318 319 315 316 319 313 312 313 314 318 321 320
303 305 313 321 319 312 316 312 317 317 319 319 320 317 314 314 314 315 316 315 313 314 314 315 315 316 315 318 317 316 316 316 318 318 317 315 317 317 314 317 318 317 320 320 320
303 304 312 321 319 312 318 313 315 316 320 320 320 319 316 316 316 315 314 314 314 313 314 314 316 315 316 317 317 317 317 316 315 314 314 315 316 314 314 314 313 315 317 320 320
312 320 318 321 320 315 313 315 315 317 316 318 320 319 319 317 317 316 316 315 315 315 314 314 316 316 316 316 316 316 315 317 314 318 318 316 314 316 314 316 315 312 314 320 320
310 318 318 320 319 317 313 314 316 315 316 316 317 318 318 317 317 317 316 317 320 320 319 315 314 318 317 315 316 316 317 316 314 315 318 319 318 312 316 315 313 312 316 320 320
309 312 315 316 316 312 312 314 315 314 311 317 317 320 319 316 319 319 318 317 320 319 321 320 322 321 319 317 316 316 317 317 319 319 313 318 319 315 312 311 312 314 317 317 319
307 308 312 313 308 309 310 310 310 308 308 311 314 315 312 316 317 320 320 318 319 318 318 319 322 325 324 320 315 316 316 316 316 317 319 320 320 316 315 315 315 313 316 318 318
307 304 308 310 307 306 305 305 306 305 306 306 306 308 306 307 309 311 313 313 308 313 316 315 318 323 324 321 313 315 312 316 315 319 319 319 318 318 315 312 312 315 318 318 317
305 306 305 303 303 303 304 304 304 305 305 305 305 306 306 306 306 307 306 306 308 309 313 314 315 314 313 312 312 312 311 310 313 313 314 317 319 319 318 317 317 317 316 315 314
306 305 305 305 304 303 303 304 305 306 305 305 305 306 305 305 305 306 307 307 307 309 310 310 309 311 312 311 310 309 309 312 312 311 313 318 319 318 318 316 316 316 315 317 315
303 305 304 304 303 302 302 304 306 304 305 305 305 305 305 305 305 305 306 307 306 306 307 307 309 307 309 308 309 309 309 311 311 312 313 316 318 313 311 313 316 316 316 315 318

GFSSW_850_thetae_009.txt.gz
Theta_e
313 312 312 312 310 307 308 309 309 310 311 310 311 311 311 311 311 312 315 316 317 312 314 314 314 319 321 322 330 329 326 326 327 325 326 324 320 321 322 323 323 323 322 322 324
316 313 312 311 310 309 309 310 311 312 312 312 312 312 311 311 311 314 317 317 315 313 319 320 320 324 324 325 324 323 320 324 325 325 325 323 320 321 322 321 322 322 323 322 323
315 315 314 314 312 311 311 312 312 313 313 313 312 312 312 312 314 314 316 316 313 313 319 322 322 324 324 326 325 324 321 320 326 325 324 322 320 321 321 320 322 323 323 322 322
313 313 313 313 312 312 312 312 313 313 312 311 311 311 311 313 313 316 314 311 312 313 317 322 323 324 323 323 324 324 324 326 326 324 322 320 321 319 321 322 323 323 323 323 322
311 311 311 312 312 312 312 312 312 311 310 311 311 311 311 313 315 316 314 311 312 314 318 321 322 322 321 322 322 322 322 324 324 324 322 322 321 319 319 321 321 322 322 322 322
310 311 311 312 312 312 312 312 312 310 310 311 311 311 312 314 315 315 314 310 312 315 320 320 321 321 321 319 320 321 322 322 323 322 322 319 319 319 321 322 320 321 322 322 322
310 310 310 310 311 312 312 312 312 311 311 311 311 311 311 312 313 313 311 310 311 315 319 320 321 321 319 318 319 320 321 319 319 321 319 319 317 316 321 320 319 321 321 322 321
309 309 309 309 309 310 311 311 312 311 311 311 311 312 311 313 314 314 312 310 312 312 317 320 321 321 321 320 317 319 317 318 316 318 319 318 316 314 320 320 320 320 321 321 321
309 309 309 309 308 308 309 310 311 311 311 310 310 313 315 314 314 313 312 311 314 315 317 319 319 319 319 315 314 313 314 314 315 316 317 315 315 314 317 319 319 320 321 321 321
308 308 308 309 309 309 308 308 309 309 309 309 310 311 313 313 313 313 310 312 315 316 317 318 318 315 312 313 315 314 314 313 313 315 316 316 315 314 317 318 319 319 320 321 321
309 309 309 309 309 309 312 318 319 319 317 311 313 311 314 314 313 313 312 312 315 317 315 316 314 314 314 314 313 313 313 313 314 314 317 316 317 317 317 317 318 319 319 319 320
312 312 310 310 310 309 315 316 315 314 314 314 314 314 315 316 313 313 312 312 315 314 315 315 314 313 314 314 315 315 315 314 313 314 316 315 317 316 316 314 317 318 318 319 320
317 314 313 311 312 311 311 314 314 314 313 313 315 316 316 315 315 314 312 314 314 314 314 314 315 316 315 315 316 316 316 314 314 315 315 316 318 315 315 316 317 318 319 318 319
324 320 313 313 315 312 316 315 313 314 312 315 316 315 315 315 314 314 314 313 313 314 313 314 315 315 315 316 315 315 316 316 317 317 318 315 318 315 315 315 314 316 317 319 319
319 325 320 312 312 315 315 314 313 316 314 316 315 315 315 315 314 315 314 313 314 315 315 315 316 316 317 316 316 317 316 317 317 316 315 316 316 317 313 314 313 313 316 318 319
305 317 324 317 314 317 318 314 315 312 316 316 314 313 314 314 314 316 314 313 315 315 313 313 315 316 316 317 316 316 317 316 315 313 317 317 316 318 316 315 315 315 317 319 319
304 305 317 323 318 314 314 315 313 315 315 317 316 315 313 313 313 314 314 313 311 313 312 311 313 314 315 314 316 316 315 316 317 317 320 314 315 318 314 313 312 314 317 319 318
304 305 313 320 322 314 315 311 317 315 317 318 318 318 314 313 313 314 315 314 312 311 311 313 316 313 314 314 315 315 316 318 319 317 317 314 316 317 313 315 317 317 318 318 317
304 310 321 320 318 313 316 312 314 317 315 316 316 317 316 316 316 315 314 313 313 312 313 313 313 313 314 315 315 315 315 316 315 317 313 316 314 313 313 312 313 314 318 319 321
316 316 319 320 319 317 311 314 315 314 315 315 318 316 316 316 316 315 316 315 319 319 319 314 316 315 315 315 315 315 314 316 312 318 319 317 313 315 313 314 313 312 314 319 320
317 318 317 320 320 318 312 313 314 315 309 314 315 317 317 315 316 317 317 317 319 319 318 318 316 320 316 317 318 317 315 314 314 315 319 319 318 314 315 315 315 311 314 316 318
311 312 311 310 315 310 311 311 311 310 306 307 311 316 316 311 314 317 318 317 311 314 317 318 320 322 321 318 318 317 316 314 319 320 315 317 319 315 312 311 311 311 317 320 321
307 309 309 313 308 307 304 304 307 304 305 307 307 308 306 310 307 314 307 309 308 307 312 315 318 316 315 316 312 313 312 312 312 313 318 320 319 314 312 311 315 314 315 318 319
305 300 303 306 304 302 304 303 305 304 305 305 305 306 305 306 306 306 305 306 306 307 308 311 314 314 315 315 313 313 312 312 312 312 311 312 312 310 310 310 312 312 313 314 318
303 305 304 300 300 303 303 303 303 304 305 305 304 305 304 304 304 304 305 305 306 306 309 309 309 308 308 308 308 308 312 311 310 310 311 309 308 308 309 312 311 311 312 311 312
303 304 303 303 303 302 301 301 303 305 305 304 303 304 304 304 304 305 304 304 305 305 305 306 307 307 306 306 306 307 307 308 309 309 308 310 311 309 309 313 310 309 310 311 311
303 302 302 301 301 301 300 302 304 302 302 304 304 303 304 303 304 304 304 304 304 304 304 304 304 304 306 305 305 307 305 305 306 307 308 311 312 311 311 310 308 306 308 311 311

GFSSW_850_thetae_012.txt.gz
Theta_e
313 312 312 311 312 309 308 309 309 309 310 310 311 311 311 311 311 311 313 316 317 313 312 313 313 316 319 321 329 329 325 326 327 325 326 324 321 322 323 323 323 324 324 323 324
316 313 310 309 308 308 309 309 310 311 311 311 312 312 311 311 311 311 314 317 317 313 316 317 318 321 322 323 324 323 320 323 323 323 324 324 321 321 321 321 322 323 324 322 323
314 313 313 312 310 309 310 311 312 312 312 312 312 311 311 311 312 313 314 316 315 312 316 320 321 323 322 324 323 321 319 318 324 326 324 323 320 320 320 319 322 324 324 323 322
311 312 312 311 311 311 312 312 312 312 312 311 311 311 311 311 312 316 316 313 312 312 316 320 321 322 321 321 323 322 323 324 326 325 322 320 321 319 320 323 323 323 323 323 322
310 311 311 311 311 311 311 312 312 311 311 310 311 310 311 312 313 315 314 312 311 313 315 320 321 321 320 321 321 321 321 322 325 324 322 321 320 319 318 322 322 322 322 322 322
310 310 311 311 311 311 311 312 312 311 310 310 310 310 311 312 314 315 314 312 311 314 317 320 320 321 320 318 319 319 320 321 322 322 321 319 319 319 321 323 321 320 321 321 322
309 310 310 310 311 311 311 312 312 311 310 310 311 310 310 311 313 313 312 310 311 314 317 320 320 321 319 317 317 318 318 316 318 320 319 319 317 316 320 321 322 321 321 321 321
309 309 309 309 309 310 311 311 311 311 311 310 310 310 311 312 312 312 313 311 311 312 313 319 320 320 320 319 316 316 316 317 315 317 319 318 318 314 318 318 319 320 320 320 320
308 308 308 308 308 308 309 310 310 311 311 311 310 310 311 313 313 314 313 311 312 314 316 318 319 319 318 315 314 311 314 313 314 315 317 315 315 314 316 315 316 318 320 319 319
308 308 308 308 308 308 308 308 308 309 309 310 309 310 311 313 313 313 311 310 314 315 316 317 317 314 311 314 315 314 313 312 312 313 315 315 314 314 316 315 317 317 318 319 319
309 309 309 309 309 309 315 317 318 317 317 310 312 310 313 313 313 313 312 312 314 316 314 315 313 311 312 313 314 312 312 312 311 312 315 314 315 315 316 315 316 317 318 318 319
313 312 311 309 309 310 313 315 314 314 314 313 314 314 314 315 314 312 312 311 314 313 314 313 312 311 312 313 314 314 314 314 312 312 314 313 314 314 314 314 316 317 318 319 319
321 315 313 311 311 311 313 314 314 314 312 313 313 316 315 314 314 314 312 312 313 313 313 311 310 315 314 314 314 313 314 314 314 312 312 314 316 314 313 315 315 316 318 319 318
323 323 314 313 314 313 316 314 313 314 310 314 315 315 314 315 314 314 313 313 313 312 311 312 313 314 313 314 313 314 312 314 314 314 316 315 317 316 313 314 312 314 316 318 319
313 322 323 313 312 314 314 315 313 316 314 315 314 314 315 314 314 315 314 313 312 313 314 313 315 315 316 315 313 314 315 315 315 315 314 314 315 317 313 314 312 311 316 317 318
305 309 321 321 314 318 315 313 316 311 315 315 314 313 313 313 314 315 314 312 314 313 311 313 313 315 314 315 314 315 315 315 313 312 316 316 315 317 315 313 313 313 316 317 318
304 305 315 322 318 314 313 315 311 313 314 317 317 316 313 312 312 312 313 312 311 312 311 310 311 313 313 313 313 315 314 315 316 316 319 314 315 317 312 312 312 312 317 318 319
304 312 318 319 321 315 315 311 315 315 315 315 316 316 315 314 313 313 313 312 311 311 310 312 314 312 313 313 313 313 312 314 318 315 315 313 315 316 313 312 314 316 317 317 318
312 318 319 317 315 315 315 311 313 315 314 314 314 315 315 314 315 314 313 313 314 315 315 315 312 314 317 315 314 314 314 313 314 315 316 316 314 315 313 311 311 314 316 316 317
312 318 318 319 318 317 310 313 313 312 311 314 316 315 315 315 315 312 315 317 319 316 317 317 321 317 316 317 315 314 312 315 313 318 319 317 314 316 314 314 312 310 311 313 314
317 316 314 313 316 315 310 312 314 311 306 310 315 315 316 310 311 312 313 314 314 313 316 316 317 317 317 318 318 317 317 314 313 317 322 323 320 313 308 309 310 310 311 313 313
311 309 307 308 312 308 309 308 306 306 304 305 308 310 310 309 308 311 315 313 307 306 312 314 315 313 312 311 314 314 316 317 317 318 313 313 315 310 309 308 308 308 309 311 312
308 308 305 310 307 301 300 301 306 303 304 304 304 306 304 306 304 307 306 305 305 305 306 309 309 308 306 306 309 310 311 311 310 310 312 313 314 310 308 307 307 307 311 311 312
303 297 302 301 302 300 301 301 302 303 304 304 304 304 304 304 304 303 304 304 304 304 306 307 308 308 308 308 308 307 306 305 305 306 305 308 310 308 307 307 307 307 310 310 311
302 303 302 298 300 302 302 301 302 303 304 303 302 303 303 303 303 303 303 302 304 305 306 304 305 304 304 305 305 305 305 305 305 305 306 306 306 306 308 307 307 309 310 309 309
300 301 301 301 301 300 300 299 302 304 303 303 302 303 302 303 303 302 303 304 305 304 303 303 305 304 304 304 303 303 304 304 304 305 304 305 306 306 310 309 310 308 308 307 306
299 300 300 300 300 298 298 301 303 302 301 302 302 302 302 302 302 303 303 303 303 303 303 302 302 301 303 303 304 304 304 305 305 306 306 307 307 304 304 304 306 308 308 307 307

GFSSW_850_thetae_015.txt.gz
Theta_e
311 311 308 308 309 311 308 309 309 309 310 310 310 310 310 310 310 311 311 314 316 315 312 314 313 313 317 321 327 330 332 330 331 329 331 324 325 322 326 326 324 325 326 325 324
314 310 310 310 308 308 308 309 310 310 310 311 311 311 311 310 310 310 312 315 315 315 313 316 315 318 318 321 324 325 328 327 326 326 327 324 323 322 321 321 321 324 325 325 323
314 313 312 311 309 309 310 311 311 311 311 311 311 311 311 310 311 314 313 314 315 313 313 318 319 320 320 323 321 320 325 320 321 324 325 324 321 321 321 322 323 326 327 325 323
310 311 311 311 310 311 311 311 311 312 311 311 311 311 311 311 312 316 314 312 311 312 313 318 320 320 320 321 321 322 321 322 324 325 324 322 321 320 320 326 326 326 325 324 323
310 310 310 310 310 311 311 311 311 311 311 311 310 310 311 311 313 315 314 313 311 312 313 317 320 320 320 319 320 321 321 321 322 323 322 321 320 321 319 323 324 323 323 322 322
309 310 310 310 311 311 311 311 311 311 310 310 310 310 311 311 313 314 313 311 310 313 315 318 320 320 320 318 319 317 318 318 320 321 321 320 321 320 320 323 323 322 322 321 322
309 309 309 310 310 311 311 311 311 311 310 310 310 310 310 311 313 312 312 311 310 312 316 319 319 320 319 318 317 317 318 317 318 319 321 319 321 319 320 320 321 322 323 322 322
309 309 309 309 309 310 310 311 311 311 311 310 310 310 310 311 312 311 312 312 311 311 312 318 319 319 319 319 318 316 316 320 317 317 319 320 322 320 318 318 318 319 319 320 321
308 308 308 308 308 308 309 309 310 311 311 310 310 310 311 313 313 313 313 312 311 313 314 317 318 318 317 318 318 315 318 315 316 314 317 318 321 318 316 315 316 316 317 317 318
308 308 308 308 308 308 308 308 308 309 309 309 309 309 312 312 312 312 311 310 312 314 315 316 316 315 314 317 315 314 316 314 315 315 315 317 317 317 316 315 316 316 317 317 317
310 309 309 309 309 310 314 316 316 315 316 310 311 310 313 313 312 312 312 311 313 315 313 314 314 314 314 316 313 312 313 314 315 314 314 316 316 316 315 314 315 316 317 318 319
315 313 312 310 310 312 313 313 313 314 313 313 313 314 314 314 314 313 312 312 312 312 313 313 315 312 311 312 314 315 315 315 315 314 314 315 315 316 315 315 315 315 316 316 316
322 318 313 311 311 311 314 314 313 313 312 313 314 316 315 314 313 314 312 312 312 312 313 311 311 312 313 314 314 314 314 314 314 314 314 314 317 317 315 315 315 314 316 316 317
320 323 314 313 313 314 315 314 313 314 311 314 314 314 314 314 314 314 313 312 312 312 311 313 312 313 314 314 314 314 313 314 314 315 317 316 318 318 317 317 315 315 316 318 318
308 320 322 314 312 313 316 314 313 315 314 314 313 314 314 313 313 314 313 312 311 312 313 313 314 315 316 316 313 317 314 314 315 316 316 318 318 319 317 317 317 318 316 316 318
305 310 322 318 314 316 314 313 316 312 315 316 315 315 314 312 313 313 314 312 312 312 312 313 312 313 314 314 314 314 315 315 314 316 320 318 318 319 318 316 316 315 316 317 315
304 306 317 322 318 315 314 314 311 312 313 317 316 314 314 313 312 312 313 312 311 313 312 310 311 312 313 313 312 314 314 317 317 319 320 315 318 318 316 317 315 314 313 312 314
309 315 317 319 320 316 315 310 312 315 314 314 314 313 314 314 313 314 313 313 316 312 311 313 316 312 314 316 317 315 315 317 318 318 318 315 318 318 314 312 311 311 311 311 312
316 316 318 317 317 316 315 310 314 314 312 314 313 314 314 314 314 312 312 315 317 316 321 321 317 315 316 315 314 315 316 314 316 318 319 318 317 317 317 313 310 309 308 307 309
316 315 313 316 315 316 311 312 313 309 306 311 314 314 315 313 313 310 309 316 317 311 315 317 315 316 316 314 313 316 314 316 316 319 319 319 319 319 318 311 310 309 308 306 308
316 314 306 305 313 313 310 312 313 308 304 309 313 312 314 309 308 309 308 308 307 306 310 313 316 312 311 311 312 311 309 309 313 315 318 319 319 311 311 311 308 306 307 306 308
312 306 308 309 311 306 307 307 305 304 303 305 308 307 307 306 305 309 312 307 304 305 306 309 313 309 307 306 307 308 311 307 307 307 308 307 306 307 309 306 304 307 306 306 307
304 304 301 304 299 296 299 301 304 302 303 303 304 305 303 305 302 304 305 305 302 303 304 306 306 305 302 303 304 305 305 304 305 305 304 304 303 304 304 304 305 306 308 308 308
302 297 300 300 301 299 300 300 300 303 304 303 303 303 303 303 303 302 304 304 302 302 303 306 307 307 304 304 306 305 304 304 305 305 305 305 305 305 305 305 306 307 308 307 308
301 302 299 296 300 300 300 300 301 303 303 301 302 303 303 303 303 303 302 301 303 303 304 304 305 305 304 304 304 305 305 304 304 304 305 305 306 306 306 305 304 304 305 306 307
299 300 300 300 301 298 297 299 302 302 302 300 302 302 301 302 302 302 302 303 303 302 303 303 304 304 304 303 303 303 303 304 304 304 305 305 306 306 304 304 304 304 305 305 307
298 299 299 298 299 296 298 301 302 301 300 302 301 301 301 301 301 301 301 301 302 302 302 302 302 303 303 302 302 304 304 302 301 302 303 305 305 305 305 305 304 305 305 306 306

GFSSW_850_thetae_021.txt.gz
Theta_e
310 308 308 309 311 312 310 309 309 309 310 310 310 310 310 310 310 313 317 319 315 315 314 319 322 322 323 327 330 331 329 328 329 330 331 329 331 330 332 333 333 335 333 332 331
311 309 309 310 310 309 309 310 310 310 310 310 310 310 310 310 315 316 313 314 314 314 321 321 322 322 323 324 326 326 326 325 326 329 329 328 328 329 328 329 328 331 331 330 330
311 311 310 309 309 310 310 310 311 310 310 311 311 311 311 311 318 319 312 313 314 313 318 320 321 322 323 324 324 324 324 323 325 323 324 324 324 324 327 329 325 326 327 330 329
311 310 309 310 310 310 311 311 311 311 311 311 311 311 311 313 320 316 313 312 311 312 319 320 321 322 323 323 324 324 322 322 322 323 324 323 323 323 324 325 325 325 328 328 330
310 310 310 310 311 311 311 311 311 311 311 311 311 311 312 318 317 314 314 313 312 315 319 320 320 322 323 322 322 323 323 323 322 322 323 322 323 323 323 322 323 324 324 326 327
310 310 310 310 311 311 311 311 311 310 311 311 311 311 316 317 313 314 312 312 312 318 319 320 322 322 321 322 322 322 322 321 321 321 322 322 323 323 322 323 323 323 323 323 325
309 310 310 310 310 311 311 311 311 311 310 310 310 311 315 316 313 313 313 313 312 314 319 320 320 320 322 322 323 321 322 322 322 321 323 323 323 324 323 323 323 322 322 322 322
309 309 309 310 310 310 311 311 311 311 311 310 310 314 315 311 312 312 313 313 313 314 315 318 319 320 321 321 320 322 322 322 323 323 322 322 321 322 322 322 321 321 320 320 321
308 308 308 309 309 309 310 310 311 311 311 310 313 315 317 313 314 313 314 314 314 316 317 317 318 320 321 322 322 322 322 322 321 321 321 321 322 322 321 320 320 320 320 320 320
308 308 308 308 308 308 309 309 309 309 310 310 310 315 313 315 313 312 312 313 316 317 318 318 319 321 322 322 321 320 319 319 319 320 321 320 320 321 320 320 320 320 320 320 320
310 309 308 308 308 310 311 313 319 319 317 315 314 314 315 314 313 313 313 315 316 317 319 320 319 320 320 319 318 318 318 318 319 321 320 320 321 322 322 322 322 322 321 321 321
315 312 310 309 310 313 315 318 316 318 318 315 315 316 315 314 316 315 314 316 316 319 319 320 323 320 317 318 317 318 320 322 322 322 322 322 322 323 324 324 323 322 321 321 321
320 315 311 310 310 313 317 315 313 314 320 317 316 317 316 316 317 316 315 316 317 319 319 321 322 318 317 319 320 321 321 322 321 321 321 323 323 324 324 324 322 321 320 319 319
322 317 312 312 316 316 318 313 313 316 324 320 318 317 317 316 317 315 314 315 318 320 319 321 319 318 320 320 320 322 321 320 320 321 322 322 323 323 323 323 322 320 318 315 314
316 322 313 315 316 319 316 313 315 318 327 318 319 317 317 318 317 318 314 316 319 319 318 320 319 319 319 319 318 319 319 319 320 321 323 323 323 323 323 322 321 318 314 312 311
308 322 315 313 315 315 315 314 317 324 326 322 320 319 320 319 319 319 318 317 317 318 319 319 318 318 318 318 318 318 321 321 322 323 324 323 323 323 323 322 319 317 316 314 310
305 316 321 317 321 316 316 317 324 323 320 322 321 319 319 320 319 319 321 322 322 322 321 320 319 317 319 320 321 321 319 319 321 327 327 322 320 321 321 319 316 313 312 310 308
314 315 318 319 318 318 316 321 322 321 321 319 318 317 320 318 318 316 317 320 317 317 321 323 322 318 316 317 319 319 318 319 319 319 320 319 319 319 321 316 313 310 308 307 307
315 315 312 316 316 317 319 321 324 320 315 316 317 318 320 319 313 313 318 321 315 312 318 318 319 317 313 315 315 317 316 315 319 318 318 317 317 318 317 313 308 306 306 305 306
319 313 306 311 315 316 320 320 317 310 309 312 317 316 317 315 313 311 311 313 313 310 310 314 309 311 314 310 313 314 310 310 312 311 312 313 313 313 312 308 307 306 305 305 306
319 316 307 310 315 317 321 320 314 306 309 312 313 311 314 312 308 308 310 311 309 309 309 308 308 311 313 309 309 309 308 309 310 312 312 312 312 312 308 306 306 306 305 305 307
313 313 306 311 314 315 318 312 307 306 306 310 310 310 310 308 306 308 310 311 307 307 307 306 305 305 307 308 307 306 308 309 309 309 309 309 310 308 307 306 305 305 305 306 306
308 307 304 307 311 309 308 306 306 306 307 307 308 307 306 307 305 306 307 309 307 305 306 305 307 307 309 310 309 309 309 307 307 309 309 308 307 307 306 306 304 304 305 306 306
308 312 307 306 306 308 307 306 306 306 305 306 306 306 306 306 306 306 306 305 305 304 304 304 305 306 307 308 308 307 307 306 306 308 307 306 305 306 305 305 304 305 305 305 305
309 307 305 309 306 306 306 305 306 307 305 304 306 305 305 304 305 305 306 305 304 304 305 305 306 307 306 306 306 305 305 305 305 305 305 305 305 305 305 305 305 305 305 305 305
308 308 305 305 304 306 304 306 306 305 304 304 304 305 304 305 305 304 304 304 305 305 305 305 306 306 305 305 304 304 305 305 305 305 305 304 304 304 304 304 305 305 305 304 304
302 303 307 302 304 306 306 306 305 303 303 304 304 304 305 305 304 303 303 303 304 305 305 305 306 306 305 304 304 305 306 305 304 304 304 304 304 304 305 305 305 304 304 304 305

GFSSW_850_thetae_024.txt.gz
Theta_e
313 312 312 313 312 311 311 309 310 310 310 310 310 311 311 311 311 315 320 321 315 314 318 322 323 323 324 327 328 330 333 330 329 331 333 329 328 327 329 332 331 329 334 333 334
310 308 309 310 311 310 309 310 310 310 310 310 310 311 311 311 316 320 316 313 314 314 321 322 323 323 323 324 326 328 333 329 327 327 327 325 325 326 325 327 327 326 327 332 331
310 309 309 309 309 309 310 310 310 310 310 310 311 311 311 313 320 321 312 313 314 313 319 320 322 323 323 325 324 325 329 327 324 323 323 324 324 323 323 325 327 327 325 328 331
312 311 309 309 310 310 310 311 310 310 310 311 311 311 311 319 321 318 313 312 312 312 320 320 322 323 324 326 324 325 324 323 323 323 323 324 323 323 322 323 324 323 323 325 329
310 310 310 310 310 310 311 311 310 310 311 311 311 311 313 321 318 314 313 313 315 318 320 321 321 322 325 324 323 323 323 324 324 323 322 322 323 323 323 323 323 323 323 324 326
310 310 310 310 311 311 311 311 310 310 311 310 311 311 317 319 314 315 313 314 313 318 320 321 322 322 320 322 323 322 323 322 321 321 321 322 323 323 323 323 323 323 323 323 323
310 310 310 310 311 311 311 311 310 310 310 310 311 312 317 316 314 314 313 313 313 313 319 320 320 321 321 324 323 323 322 322 322 322 323 322 322 322 322 323 324 323 322 322 322
309 309 310 310 310 311 311 311 311 311 311 311 311 317 316 311 313 313 314 315 315 316 316 318 318 320 320 321 320 321 321 323 324 323 323 321 322 323 322 321 321 321 320 320 320
308 308 309 309 309 310 310 311 311 311 311 310 316 316 318 314 315 313 314 315 315 317 317 317 318 320 321 323 323 323 321 323 323 322 322 322 321 321 321 320 320 320 320 320 320
308 308 308 308 308 309 309 310 310 310 310 313 312 316 314 315 313 313 313 314 316 317 319 319 319 322 322 323 324 320 319 318 318 319 320 321 320 320 321 321 322 322 321 321 321
309 308 308 308 308 310 309 317 321 319 318 316 316 316 316 315 314 314 314 315 316 318 321 321 320 321 320 319 318 317 317 318 320 322 322 322 322 321 321 322 323 324 321 319 318
313 310 309 309 311 313 318 320 318 318 318 317 317 317 316 314 317 316 315 316 317 320 320 321 322 320 319 319 319 320 321 321 322 323 320 320 320 321 322 323 320 319 316 315 314
317 313 310 309 312 316 319 316 313 317 321 318 318 318 316 318 317 317 315 317 318 320 321 322 323 320 318 320 320 321 321 322 321 321 320 321 322 323 321 320 317 314 312 311 310
321 313 311 314 319 319 319 313 314 315 324 320 319 318 318 317 318 316 315 316 319 320 320 321 320 319 320 320 320 320 320 320 320 320 321 320 321 321 321 319 316 314 313 311 309
322 315 313 317 317 321 321 314 315 319 332 319 320 318 317 319 318 318 316 317 319 319 319 319 320 320 319 319 319 319 320 320 321 321 321 322 323 322 321 319 317 316 312 308 308
315 320 314 314 317 317 316 315 319 325 325 323 321 320 321 320 320 320 320 319 320 320 320 319 319 319 318 319 320 319 321 319 318 319 323 322 323 322 321 318 312 310 308 307 307
311 321 318 318 322 317 317 319 325 325 321 322 322 319 320 320 320 319 320 319 317 318 321 321 320 319 318 317 321 320 318 319 322 326 327 320 319 321 316 311 308 307 307 306 305
314 316 318 319 318 318 318 322 325 322 322 319 318 317 320 317 319 314 319 320 314 314 318 321 321 319 316 316 317 315 317 319 320 320 321 318 318 320 312 308 307 306 306 306 305
316 313 312 315 316 317 321 324 324 320 315 316 318 318 321 319 313 314 318 320 315 312 313 316 319 316 313 315 314 316 315 311 315 316 316 316 317 315 309 307 306 306 306 305 305
318 312 308 312 314 317 321 321 315 310 311 313 319 316 317 315 313 311 312 313 313 310 310 311 308 310 313 312 312 313 312 310 311 311 312 312 311 311 307 306 306 306 305 305 305
320 319 309 311 315 319 322 319 311 307 310 312 313 312 314 312 308 308 312 311 310 310 308 308 307 310 309 310 309 309 308 309 309 308 309 312 311 309 306 306 306 306 305 304 305
314 315 308 314 316 316 317 314 308 307 307 310 310 310 310 308 308 308 311 312 308 307 306 306 305 305 307 308 308 307 306 307 311 310 309 307 308 307 306 306 306 306 304 305 305
310 309 306 309 312 310 309 308 308 308 307 308 309 307 306 308 307 307 307 309 307 305 306 305 305 305 309 310 309 309 309 309 307 308 308 308 307 307 306 305 306 305 305 305 305
310 315 309 308 309 310 309 307 307 306 306 306 307 307 306 307 307 307 307 307 306 305 305 304 304 304 307 307 307 307 307 306 306 306 306 306 305 305 305 305 305 304 304 305 305
310 308 308 311 308 307 308 307 308 308 305 305 306 306 305 305 306 306 307 306 305 306 305 306 306 306 306 306 306 305 305 305 305 305 304 305 305 305 304 303 304 304 305 305 304
311 310 307 306 306 307 305 307 307 305 305 306 305 307 305 305 306 305 305 305 305 306 305 305 305 306 306 306 306 305 305 305 305 305 305 304 304 304 304 304 304 305 304 304 304
304 306 308 305 306 308 308 307 306 304 304 305 305 304 305 306 305 304 303 303 304 305 305 305 306 307 306 305 305 305 306 305 305 304 304 303 304 304 305 305 305 304 304 303 304

GFSSW_850_thetae_027.txt.gz
Theta_e
315 314 314 315 314 313 311 309 310 310 311 311 311 312 312 311 313 318 320 320 319 314 321 322 323 323 323 326 327 330 322 324 324 325 326 324 323 324 324 326 328 329 328 333 332
311 311 312 312 312 311 309 309 310 310 310 311 311 311 311 311 318 320 317 313 313 314 319 322 322 322 323 324 326 326 323 323 324 322 322 322 323 323 322 322 323 324 325 330 333
310 308 309 310 310 309 309 310 310 310 310 310 311 311 311 316 320 321 312 312 314 313 316 319 321 322 322 324 324 323 321 323 323 322 323 322 322 323 321 319 322 323 326 326 332
311 310 309 309 309 310 310 310 310 310 310 310 311 311 311 321 319 318 313 312 312 315 320 320 321 322 323 323 323 323 323 323 323 322 323 322 322 322 322 321 321 322 322 322 329
311 311 310 310 310 310 310 310 310 310 310 310 310 310 314 320 317 314 313 313 314 318 318 320 321 322 321 320 321 321 320 322 322 322 321 321 321 321 322 321 321 322 322 322 322
309 310 310 310 310 310 310 310 310 310 310 310 311 311 318 319 314 313 313 314 313 319 319 320 321 321 320 320 321 321 322 322 321 319 320 320 320 321 322 321 321 322 322 323 322
309 309 310 310 310 310 310 310 310 310 310 310 311 314 317 317 314 313 313 313 312 313 320 320 317 319 320 320 321 320 320 318 319 320 319 321 319 319 320 321 321 322 320 320 320
309 309 310 310 310 311 311 311 310 310 310 310 314 318 315 311 312 313 313 314 315 315 314 314 315 317 319 320 320 318 318 318 318 321 321 320 317 319 320 320 320 320 320 319 316
309 309 309 310 310 310 311 311 311 311 310 312 316 316 317 315 314 313 313 314 315 317 317 317 317 319 319 319 316 317 316 317 315 317 321 320 317 317 320 320 320 320 319 317 315
308 308 309 309 309 310 310 310 310 310 313 313 315 315 314 315 313 313 313 314 316 316 317 318 319 316 315 316 318 315 313 314 313 315 317 318 317 317 319 319 317 317 315 312 311
308 308 308 308 309 309 310 317 319 318 316 316 315 316 316 315 315 314 315 314 315 317 317 319 315 314 317 316 317 316 316 315 316 318 317 317 316 317 318 315 311 310 309 310 310
310 309 308 309 311 313 320 320 319 318 317 317 316 317 316 314 316 315 315 316 316 316 316 315 316 317 318 318 317 317 317 316 317 319 318 316 317 316 313 311 310 309 308 309 309
314 310 309 312 315 318 319 316 315 319 319 317 318 317 316 317 317 316 315 316 316 317 317 317 319 319 318 318 318 318 318 317 318 317 317 317 316 317 313 312 310 308 308 308 308
316 310 311 316 318 320 319 313 314 317 317 318 319 318 318 317 317 316 316 316 317 318 317 316 318 318 318 318 317 316 318 318 318 317 316 316 317 316 313 312 310 306 307 308 307
318 311 316 319 316 320 321 314 315 316 328 319 319 318 318 318 318 319 318 317 317 318 316 315 317 317 317 318 318 316 317 317 318 317 318 318 318 316 314 309 305 304 305 305 307
321 313 314 317 318 317 315 315 318 319 323 321 320 320 319 319 319 319 319 319 318 318 317 315 318 317 317 317 317 317 317 313 313 314 317 317 319 317 312 306 304 304 305 305 304
320 315 317 318 321 317 316 320 319 321 320 321 320 318 318 317 317 317 315 311 311 312 315 316 317 317 315 315 316 312 311 313 315 318 319 316 315 311 305 304 304 304 305 305 304
315 317 319 319 319 317 318 317 322 322 319 319 318 316 319 314 316 313 316 315 311 310 312 312 316 317 311 314 314 312 313 314 318 317 317 314 312 310 304 305 305 305 305 304 304
312 311 309 314 316 317 320 318 318 314 312 313 315 317 319 317 312 312 314 316 310 308 309 312 315 309 313 313 312 312 310 308 310 312 312 313 310 307 304 304 304 305 305 304 304
314 311 308 311 314 317 315 316 309 308 309 311 315 314 314 311 309 306 313 311 311 308 307 307 305 307 312 311 310 310 310 309 305 307 307 307 308 310 304 303 304 304 304 304 304
319 319 307 312 315 319 315 312 308 307 309 310 311 312 311 308 307 306 312 309 309 308 307 304 304 304 305 307 306 305 305 305 305 304 305 306 306 302 303 304 304 304 304 304 305
313 310 310 311 312 311 308 311 308 307 307 308 309 308 307 307 306 307 312 309 307 305 305 303 302 301 302 305 307 306 305 304 302 306 304 301 305 303 304 305 304 304 304 304 305
308 308 307 310 305 304 307 307 306 308 306 308 308 306 305 306 306 306 310 308 305 304 304 303 301 299 304 307 306 306 306 305 304 302 302 302 305 306 304 304 304 304 303 304 305
310 307 308 309 308 304 304 306 306 305 305 306 306 306 306 305 305 306 306 308 306 304 306 304 302 300 300 303 304 304 305 304 303 297 303 304 304 303 303 303 303 302 304 304 304
310 305 308 302 304 305 304 306 306 306 304 305 305 304 304 304 304 305 305 304 305 306 305 304 304 304 304 305 305 305 305 304 304 303 302 303 303 303 302 300 303 304 304 303 303
310 308 306 305 305 305 304 305 306 303 304 304 305 305 304 304 304 304 304 303 303 304 304 303 302 304 304 304 304 305 304 304 303 303 303 303 303 301 303 305 304 304 303 303 303
306 307 308 305 305 303 304 306 305 304 303 305 304 303 304 304 304 303 303 303 302 303 302 302 302 302 299 303 304 302 304 304 303 303 302 302 302 304 304 304 303 303 303 303 303

GFSSW_850_thetae_030.txt.gz
Theta_e
313 314 315 316 316 314 312 310 310 310 312 313 313 313 313 311 313 316 319 318 319 314 320 322 322 322 323 326 327 330 318 322 322 322 322 322 321 322 321 321 321 325 325 325 330
314 314 315 315 314 312 310 309 310 311 311 311 312 312 312 311 316 317 317 314 313 314 319 321 322 321 322 324 327 325 319 318 320 321 320 321 322 321 321 321 320 321 322 325 329
313 311 312 311 311 310 309 310 310 310 310 311 311 311 311 313 319 320 312 312 313 313 315 318 321 321 322 324 325 323 319 319 322 322 323 322 321 322 321 318 320 320 320 321 329
310 309 310 310 309 309 310 310 310 310 310 311 311 311 312 318 317 318 312 312 312 316 319 320 321 321 321 322 322 321 322 322 322 322 322 321 322 321 321 320 320 321 321 321 322
310 310 309 309 310 310 310 310 310 310 310 310 310 310 317 319 317 313 313 313 315 318 318 320 321 321 320 319 319 319 319 321 321 321 320 319 319 319 320 321 321 320 321 319 319
309 310 310 310 310 310 310 310 310 310 310 310 310 312 320 317 315 313 313 313 315 318 319 320 320 320 320 319 320 319 320 320 320 319 319 318 318 320 320 320 320 321 316 317 317
309 309 310 310 310 310 310 310 310 310 310 310 310 315 317 316 314 313 313 313 313 315 319 319 317 316 319 318 320 319 317 315 318 320 319 320 318 319 320 319 320 315 316 316 314
309 309 310 310 310 310 310 310 310 310 310 310 315 317 314 311 312 312 313 314 315 314 314 314 315 315 317 319 319 316 315 316 316 316 321 319 317 317 319 318 316 315 313 311 310
309 309 309 310 310 310 311 310 310 310 310 315 316 316 315 314 314 313 312 314 314 316 317 318 317 318 318 317 314 312 315 315 313 314 317 319 316 316 317 317 312 311 310 309 309
308 309 309 310 310 310 310 310 310 310 311 313 315 314 314 315 313 313 313 314 315 316 317 317 318 314 312 314 315 315 313 313 313 314 316 316 315 310 312 311 309 309 309 309 308
308 308 308 309 309 309 310 312 315 316 316 316 315 315 315 314 314 314 315 315 315 316 316 318 314 314 314 314 314 315 315 315 314 316 316 316 312 310 308 308 307 308 308 307 307
308 308 308 309 309 317 320 319 319 316 317 316 316 316 315 314 315 315 315 315 315 314 315 313 314 316 315 317 317 317 317 315 315 317 317 315 311 310 308 308 307 307 307 307 306
310 309 309 311 314 318 317 316 318 319 317 317 317 317 316 317 316 316 316 316 315 316 316 315 318 317 317 317 316 316 317 317 316 316 315 315 314 311 310 306 305 307 307 307 306
311 309 312 314 317 319 315 313 316 319 315 318 318 318 317 317 317 318 316 316 316 317 315 315 317 317 317 317 316 316 317 317 317 316 315 315 314 313 309 304 303 304 305 306 306
311 312 316 318 318 321 318 313 314 316 325 318 318 318 317 318 318 318 318 318 316 318 315 314 316 316 317 317 317 316 316 316 317 316 317 316 316 314 306 304 303 303 304 304 306
312 314 317 317 319 317 315 315 317 314 320 320 319 318 318 318 318 318 318 316 315 315 315 315 316 316 316 315 316 314 313 310 312 313 314 314 316 314 305 304 303 304 304 304 304
315 312 315 317 320 317 316 318 313 321 319 320 319 316 317 316 315 315 311 309 309 309 311 312 316 315 313 313 312 310 310 311 313 314 314 314 312 309 302 303 304 304 305 304 304
318 318 318 318 320 317 317 314 322 319 317 316 315 316 318 312 314 313 315 314 308 308 310 311 313 310 311 313 312 311 311 310 310 312 314 312 310 305 303 304 304 304 304 304 304
312 309 310 313 315 316 320 317 318 313 310 311 314 316 318 314 311 313 311 313 308 306 309 307 310 307 311 311 310 310 309 309 309 308 309 310 305 303 302 303 303 304 304 303 304
311 310 307 313 315 318 313 313 308 307 309 311 315 312 315 308 309 306 312 309 309 307 306 305 303 305 307 310 307 309 309 310 305 307 307 305 306 306 302 303 302 303 303 303 303
318 312 309 313 316 318 313 311 306 307 309 310 311 310 308 307 306 306 310 308 308 306 305 303 303 303 303 305 305 304 304 304 304 303 304 303 304 302 302 303 302 303 303 303 303
313 305 308 309 311 306 306 308 307 307 307 308 307 306 306 306 305 307 311 309 306 305 304 302 301 301 302 302 304 304 304 301 301 303 303 299 303 302 301 303 303 303 303 302 304
308 307 308 310 304 302 306 306 305 306 305 307 307 306 305 305 305 305 308 307 304 304 302 301 299 298 302 305 305 305 305 304 303 300 301 302 304 302 304 303 303 302 304 304 304
311 306 308 309 306 303 303 305 304 305 305 305 305 305 305 305 304 305 308 307 305 304 306 303 299 298 301 302 303 303 304 304 303 297 302 303 304 304 303 302 301 303 304 303 303
308 306 306 301 303 303 303 305 305 305 304 304 305 304 303 303 304 305 304 304 305 306 305 302 303 303 302 303 304 304 304 304 303 303 302 303 303 303 303 299 302 304 303 303 302
309 306 305 304 304 304 302 304 305 303 303 303 304 303 303 303 303 303 303 303 302 305 303 301 301 303 302 303 303 304 304 304 303 303 303 303 303 302 302 303 304 303 302 301 301
308 308 307 304 302 302 303 305 304 303 303 304 304 303 303 303 304 303 303 303 302 301 301 301 301 300 299 301 301 301 302 303 303 302 302 301 302 301 302 302 301 301 301 300 301

GFSSW_850_thetae_033.txt.gz
Theta_e
315 317 318 318 318 316 314 311 309 310 312 315 316 316 314 312 311 312 317 319 319 314 319 321 321 320 321 326 327 328 317 320 322 321 320 321 319 321 321 320 319 320 320 324 324
313 314 314 315 316 314 312 310 309 310 312 313 314 313 312 311 316 318 317 316 314 314 317 321 322 320 322 323 327 322 313 314 317 320 320 320 320 321 321 319 318 319 320 320 322
314 314 315 314 314 312 310 309 310 311 311 312 312 312 311 312 318 319 312 312 313 313 314 318 320 321 322 323 325 322 318 318 321 322 322 321 320 321 320 317 319 319 319 320 320
313 312 312 312 310 310 309 310 310 310 311 311 311 311 311 315 316 318 312 312 312 315 318 320 320 321 320 321 321 321 321 321 321 321 320 320 320 320 320 319 318 318 318 319 320
310 309 310 310 309 309 310 310 310 310 310 310 310 310 315 320 317 313 312 313 314 317 318 320 321 320 319 318 318 318 318 320 320 320 319 319 318 318 319 315 315 316 317 316 316
310 309 309 309 309 310 310 310 310 310 310 310 310 312 319 316 314 313 313 312 315 318 318 319 320 320 319 318 318 318 318 318 318 318 318 317 318 319 317 315 315 315 313 313 314
309 309 309 309 310 310 310 310 310 310 310 310 311 316 317 316 314 312 313 313 312 315 318 317 316 315 318 317 319 318 315 314 317 315 318 318 317 317 314 315 312 310 310 311 311
309 309 309 309 310 310 310 310 310 310 310 310 313 316 313 312 312 312 312 313 314 314 315 315 315 315 316 318 316 315 313 314 315 315 317 318 316 311 314 313 309 309 309 309 308
309 309 309 310 310 310 310 310 310 310 310 316 317 316 313 313 313 312 312 313 314 316 316 317 317 318 317 314 312 311 314 314 312 314 316 316 314 308 310 309 308 307 307 307 307
308 309 309 310 310 310 310 310 310 310 314 315 315 313 313 314 313 313 314 313 315 316 317 317 317 312 310 312 311 315 313 313 312 313 315 311 309 307 307 308 307 306 306 306 306
308 308 309 309 309 310 310 310 314 314 316 315 315 315 314 314 314 315 315 315 315 316 314 316 313 313 313 313 314 314 314 314 313 315 314 309 308 307 306 306 306 306 306 306 306
308 308 308 308 309 311 312 318 316 314 316 315 316 316 315 314 315 316 315 315 315 313 314 312 314 314 314 315 316 316 315 314 314 315 315 309 308 307 307 306 306 306 306 306 306
309 308 308 309 317 319 318 319 316 317 316 317 317 316 316 317 315 317 316 315 314 315 315 315 316 316 316 315 316 315 315 315 315 315 312 309 310 307 305 304 305 306 306 306 306
309 309 311 312 316 315 313 316 318 319 314 317 317 317 317 316 317 317 318 315 315 316 315 314 315 316 316 316 315 315 315 316 316 315 314 314 314 308 305 303 302 303 304 306 306
309 312 314 315 317 318 314 313 316 317 317 317 317 318 317 317 318 317 318 318 315 317 315 314 315 315 316 316 316 315 315 315 316 315 315 314 314 311 302 304 303 303 304 303 305
311 315 317 316 319 318 314 315 316 311 315 320 318 317 317 317 317 318 316 314 312 314 312 315 316 315 315 314 314 311 311 309 311 311 313 311 315 311 306 302 303 303 304 304 303
312 315 316 317 317 316 315 318 312 314 318 319 318 315 316 315 314 313 309 306 308 310 309 309 314 312 312 312 311 309 307 307 309 313 312 312 312 308 302 301 303 303 304 304 304
313 314 317 318 320 316 317 314 320 318 317 313 314 315 317 311 311 313 314 311 307 307 307 310 311 309 311 312 311 310 309 307 309 308 310 310 309 305 302 303 304 304 303 303 303
317 315 312 314 316 316 319 316 315 314 310 311 314 316 317 312 309 311 311 310 307 305 307 305 307 305 309 309 308 308 308 308 308 306 306 307 307 302 301 302 303 303 303 303 303
309 307 312 313 315 318 312 313 308 306 308 310 315 311 316 309 307 309 311 308 308 305 305 304 302 304 305 308 306 308 306 309 303 306 306 303 303 306 301 301 301 300 302 302 303
317 308 311 312 317 317 313 309 305 306 309 309 310 310 308 307 305 308 309 307 307 304 304 302 302 302 303 304 304 303 304 303 303 302 304 303 303 301 300 301 301 301 302 303 303
313 305 308 309 311 303 306 307 307 306 307 306 306 306 307 305 305 307 310 308 306 304 303 302 300 300 302 301 301 303 303 301 302 303 301 298 302 302 300 302 302 302 302 303 303
307 308 308 309 304 302 305 305 305 306 305 306 306 305 304 305 304 305 307 307 304 303 302 300 298 299 302 303 304 305 304 303 300 299 300 301 302 300 300 301 302 302 302 303 303
310 305 308 308 305 302 303 304 304 305 304 305 304 305 304 304 303 304 307 306 304 304 306 303 297 298 303 303 303 302 302 302 301 297 300 303 303 303 303 301 302 302 302 303 302
308 305 305 301 302 302 303 304 303 304 304 304 304 304 303 302 304 304 304 306 305 305 304 301 301 301 301 300 301 302 303 303 302 301 302 302 301 302 302 302 302 301 302 301 300
309 306 304 303 303 303 301 304 305 303 302 303 304 303 302 302 301 302 302 301 302 304 303 300 300 302 301 302 302 302 302 302 303 302 302 302 302 303 303 302 302 302 300 300 301
309 308 306 302 301 302 302 304 304 303 303 304 303 302 302 302 303 303 302 302 302 302 300 300 300 299 298 299 300 300 301 302 302 301 302 302 302 301 300 301 301 300 300 301 301

GFSSW_850_thetae_036.txt.gz
Theta_e
318 318 316 316 318 318 315 313 311 310 311 314 318 316 314 312 311 312 318 319 319 314 319 320 321 319 319 325 327 326 315 318 321 321 319 319 319 320 320 320 318 318 317 318 322
314 317 317 318 317 316 314 312 309 310 312 314 316 315 313 311 315 319 315 316 316 314 316 320 321 319 322 323 326 319 312 314 316 318 319 320 319 320 320 318 317 317 319 319 320
314 314 315 314 315 314 313 310 309 310 312 313 314 313 312 311 317 318 312 312 313 313 314 317 319 320 321 322 323 320 317 317 320 321 320 319 319 320 318 315 312 313 316 318 321
314 313 314 313 314 312 310 309 310 311 311 312 312 312 311 314 314 317 312 312 312 315 317 319 320 320 319 319 319 321 320 320 321 320 319 318 319 313 313 311 312 314 315 317 319
313 313 310 311 311 309 309 309 310 310 311 311 311 310 314 318 316 313 312 313 314 316 317 319 320 320 318 318 318 317 317 319 319 317 317 317 315 312 311 311 312 313 314 313 314
310 310 309 309 309 309 310 310 310 310 310 310 310 311 318 316 313 313 313 312 315 317 317 319 319 319 318 317 317 317 317 316 316 316 318 317 315 315 311 310 312 312 311 311 312
309 309 309 309 309 309 309 309 310 310 310 310 310 316 316 315 314 312 313 313 312 315 317 315 315 314 316 315 317 317 314 313 314 314 317 316 312 309 310 309 309 308 308 309 309
309 309 309 309 309 309 309 309 310 310 310 310 313 315 312 314 312 312 312 313 314 314 315 315 315 315 316 317 314 314 311 313 313 316 316 316 313 307 308 309 307 307 306 306 305
309 309 309 309 310 310 310 310 310 310 311 314 315 315 313 313 312 312 312 313 313 315 316 317 317 317 316 313 310 309 313 313 312 314 315 313 311 306 307 306 306 306 306 305 305
309 309 309 310 310 310 310 310 310 310 315 315 314 314 313 313 313 314 314 313 314 315 316 317 316 310 309 310 309 313 313 313 312 313 309 307 306 306 306 305 305 306 306 305 305
308 309 309 309 310 310 310 310 313 313 315 313 314 314 314 313 314 315 315 315 315 316 313 315 313 313 313 313 313 313 313 313 312 313 308 307 306 306 305 305 305 305 305 305 305
308 308 308 309 309 309 310 315 314 314 315 315 316 315 314 315 314 316 315 315 314 312 313 311 313 314 313 314 315 315 315 313 313 314 308 307 307 306 306 305 305 305 305 305 305
308 308 308 309 312 313 315 318 314 316 316 317 317 316 316 316 315 316 316 315 314 314 314 314 316 315 315 315 315 314 314 314 315 313 308 306 308 305 304 304 305 305 305 305 305
308 308 309 315 317 316 317 317 318 318 312 316 317 317 316 316 316 317 317 315 314 315 314 314 314 315 315 315 314 315 313 315 315 315 312 310 311 306 303 302 302 303 303 304 305
308 311 313 315 317 315 314 317 318 317 312 316 317 317 316 317 317 317 316 317 315 316 314 313 314 314 316 315 315 314 312 313 314 314 313 312 314 310 301 302 302 303 303 303 303
311 314 315 317 318 318 313 314 315 311 313 319 317 316 316 316 315 316 315 313 311 312 312 314 314 313 314 313 313 310 311 308 309 309 311 310 312 310 302 301 302 303 303 303 304
314 316 317 317 317 315 315 317 311 311 317 319 317 315 315 313 312 312 309 305 308 312 310 309 313 309 311 312 309 308 304 306 307 310 312 310 312 308 303 300 302 303 303 304 303
314 314 317 318 318 316 317 313 314 316 317 312 313 315 316 311 310 313 313 310 306 306 306 309 312 309 309 311 310 309 308 306 308 306 306 307 309 307 300 303 303 303 303 303 303
314 317 315 316 317 316 317 313 312 315 310 311 314 316 316 311 308 310 311 309 307 304 306 305 305 304 306 306 307 307 306 307 306 305 304 304 305 303 301 300 302 302 302 302 303
310 309 312 313 315 316 313 313 308 306 308 309 314 311 316 311 307 309 310 308 308 304 304 303 303 303 304 307 304 307 305 306 302 306 305 302 302 305 300 299 299 301 302 302 303
311 309 310 314 317 317 313 309 305 306 308 309 310 309 309 308 305 307 308 307 307 303 302 302 300 302 302 304 304 302 304 303 302 302 305 303 303 300 301 300 299 301 302 302 302
314 305 308 309 311 302 306 307 306 306 307 306 306 306 307 304 304 306 308 308 305 303 302 301 298 300 302 301 301 303 303 301 303 303 299 298 302 300 299 300 302 301 302 302 302
307 307 307 309 304 302 304 304 305 305 304 306 305 304 304 303 304 305 307 306 303 302 302 300 298 300 302 302 304 304 303 301 299 298 299 301 302 300 300 300 301 301 302 301 302
309 303 307 307 305 302 303 304 304 304 304 304 304 304 303 303 302 304 306 306 303 304 305 302 297 299 304 304 302 303 302 301 300 297 300 301 303 302 300 299 301 302 302 301 301
308 305 304 301 301 301 303 303 302 303 303 304 303 304 303 303 303 303 305 306 304 306 303 299 301 299 299 299 299 299 300 301 301 300 301 302 300 301 300 299 302 301 301 300 300
308 305 303 302 302 303 301 304 303 303 302 302 303 302 302 301 301 301 302 302 302 303 302 299 300 301 300 301 301 302 302 301 302 302 301 302 302 302 302 302 301 301 300 300 300
309 306 306 300 300 301 302 302 304 302 302 303 302 301 302 301 303 303 302 301 301 302 301 299 299 299 297 298 299 300 300 301 301 301 301 301 302 300 300 300 300 300 301 300 299

GFSSW_850_thetae_039.txt.gz
Theta_e
318 317 318 317 317 316 318 315 312 310 311 314 317 319 315 313 311 313 318 319 318 315 318 320 320 319 319 323 326 323 325 323 322 322 320 319 320 320 319 318 316 315 316 319 324
316 318 317 317 316 317 316 313 311 310 311 313 316 316 313 311 317 317 314 316 315 314 315 319 321 319 321 323 324 318 321 317 317 318 320 319 319 318 319 315 315 314 316 324 335
314 315 316 317 317 315 314 312 310 310 311 313 315 314 312 312 319 316 312 312 313 313 314 316 318 319 320 322 322 320 321 317 319 320 319 318 315 315 315 315 311 310 312 319 329
314 314 314 315 314 314 312 310 309 310 312 313 313 312 311 316 317 315 312 312 313 315 317 318 319 320 319 320 318 321 319 319 319 319 316 317 314 312 311 310 310 310 311 313 317
314 313 314 314 312 311 309 309 310 311 311 312 312 311 315 317 315 313 313 313 314 316 317 318 319 319 319 317 317 318 317 318 317 316 315 315 312 311 309 309 309 311 312 312 312
313 313 313 310 310 309 309 309 310 310 310 311 311 311 317 315 313 312 313 312 315 316 316 318 319 318 318 316 316 317 317 315 315 316 315 313 310 312 309 308 309 311 310 310 310
310 310 309 309 309 309 309 309 310 310 310 310 311 316 316 314 314 312 312 313 312 314 315 314 314 313 315 314 316 317 316 314 313 315 315 313 313 310 308 307 308 308 307 307 307
309 309 309 309 309 309 309 309 310 310 310 310 314 315 312 314 312 312 312 313 313 314 315 315 315 314 314 316 314 314 313 317 313 315 315 315 315 308 307 306 306 305 305 305 305
308 309 309 309 309 309 309 309 310 310 312 312 315 314 312 312 312 312 312 313 313 315 315 317 317 316 315 315 314 313 316 314 314 312 314 314 312 307 306 305 305 305 305 305 305
308 309 309 309 309 310 310 310 310 313 315 314 314 314 313 313 313 314 314 313 314 315 316 317 316 313 312 314 314 314 315 313 314 314 312 311 308 306 305 305 305 305 305 305 304
308 309 309 309 310 310 309 310 313 313 314 312 313 313 313 313 314 315 315 315 315 316 314 314 315 315 314 313 313 313 314 314 313 313 311 309 308 307 305 304 305 305 305 305 304
308 309 309 309 309 309 310 315 312 313 315 315 315 314 314 314 315 316 315 314 314 313 312 314 315 313 313 313 314 315 315 315 313 313 312 308 308 307 306 305 305 305 305 305 305
308 308 308 309 309 310 313 317 314 315 315 316 316 315 316 315 315 317 316 315 313 314 313 315 315 314 314 314 315 314 314 314 315 313 308 308 310 307 306 305 305 305 305 305 305
308 308 309 314 315 314 315 316 316 317 312 315 316 316 316 316 316 317 316 315 314 315 313 314 313 315 314 315 314 316 313 315 315 316 317 310 314 308 304 304 303 303 303 303 304
308 309 314 315 316 314 315 316 318 317 314 315 316 316 316 316 316 316 315 316 315 315 314 313 313 315 315 315 314 316 311 312 314 315 314 313 316 314 304 304 303 303 303 303 303
311 312 314 316 316 316 313 316 316 311 313 318 316 316 316 315 314 314 314 314 311 310 313 312 313 312 313 312 312 310 310 309 311 312 314 311 316 316 305 305 303 303 303 303 304
313 315 316 318 317 314 314 315 312 312 316 318 316 314 314 312 311 311 309 306 309 312 312 310 312 309 311 311 309 309 307 311 312 312 315 311 314 316 306 303 304 303 303 303 303
315 316 316 318 316 315 316 312 313 314 317 311 313 314 316 309 310 312 312 310 305 306 308 310 314 309 307 310 310 310 308 311 311 310 309 307 313 313 304 302 303 303 303 303 303
313 316 316 317 317 316 317 311 310 314 310 312 313 315 315 310 310 310 310 309 306 304 306 306 306 304 304 305 307 308 309 308 307 305 307 308 307 306 302 301 301 302 302 303 303
314 310 312 314 316 316 312 312 310 306 308 309 315 311 315 312 307 308 309 308 307 303 303 303 304 303 304 305 304 306 305 307 306 309 308 307 305 309 303 303 302 302 302 302 302
309 310 310 314 316 317 312 310 305 306 307 309 311 310 311 308 305 306 307 306 307 302 302 301 301 302 302 305 306 305 306 304 305 306 309 308 309 303 305 304 303 302 302 302 302
314 306 308 314 311 302 307 306 305 305 307 306 306 307 307 304 304 305 308 307 305 303 302 301 299 302 302 300 301 302 303 304 309 306 302 303 308 303 302 301 301 302 302 302 302
308 307 307 309 306 303 303 304 305 305 304 305 305 303 303 303 304 305 307 305 303 302 302 301 300 305 305 304 303 304 303 301 301 302 305 307 309 302 300 300 300 301 302 302 302
307 303 306 307 305 303 303 304 304 304 304 304 303 303 303 303 301 304 306 305 303 304 304 301 298 303 311 306 303 305 303 302 303 306 305 306 308 307 303 303 302 302 302 301 301
309 304 303 302 301 301 302 301 302 303 303 303 303 303 302 303 303 303 305 305 304 308 302 300 302 299 300 299 299 300 301 302 303 304 306 307 303 304 303 302 301 301 301 300 300
308 305 303 301 301 302 301 303 301 303 302 302 303 302 301 301 301 302 303 303 304 303 302 299 302 301 301 301 301 302 303 302 302 303 301 303 304 304 303 302 301 301 300 300 300
308 306 306 299 299 301 301 302 303 302 302 302 301 301 301 301 302 302 301 301 301 303 302 301 301 300 303 298 300 302 301 302 302 301 303 303 305 301 300 300 300 300 300 299 299

GFSSW_850_thetae_042.txt.gz
Theta_e
318 318 318 318 318 317 317 317 313 311 311 314 316 320 316 313 311 314 317 318 317 315 317 320 320 319 319 325 325 320 331 330 326 324 324 322 322 321 320 319 317 316 317 317 325
318 317 317 318 317 316 316 316 312 311 311 314 316 317 314 312 316 315 314 316 316 315 315 318 321 319 325 327 327 326 328 323 322 324 324 322 321 321 321 320 318 317 316 319 324
314 317 317 317 317 317 317 314 312 310 311 314 316 315 312 315 318 315 312 313 313 314 314 316 318 320 325 326 326 326 326 323 323 323 321 321 319 317 321 321 315 315 314 317 320
314 314 315 316 315 315 314 312 310 310 312 314 315 314 312 316 320 315 313 312 313 315 316 317 319 323 325 325 322 326 323 322 322 319 320 320 318 316 316 314 312 312 313 314 315
313 314 314 314 314 313 311 310 309 311 312 313 313 312 314 316 315 313 313 313 314 315 316 318 321 322 323 322 321 323 321 320 318 318 318 317 317 315 313 311 311 311 312 313 313
313 313 313 314 312 310 309 309 310 310 311 312 312 313 316 317 313 313 312 313 314 315 316 318 320 319 321 320 321 320 319 318 318 318 317 318 316 316 312 310 311 311 311 311 311
313 313 311 310 309 309 309 309 310 310 310 311 311 317 316 315 313 312 313 313 313 315 315 314 314 316 318 319 318 319 319 319 318 319 317 317 318 316 311 311 311 311 310 309 308
310 309 309 309 309 309 309 309 310 310 310 311 315 315 314 314 312 312 312 313 313 314 314 315 313 314 317 317 318 319 319 321 318 319 317 318 321 313 310 311 311 310 309 308 307
309 309 309 309 309 309 309 309 310 310 311 314 315 313 314 312 312 312 312 313 314 314 316 317 317 319 319 320 320 320 319 320 319 317 318 319 321 314 310 310 310 310 309 308 307
308 308 309 309 309 309 309 309 310 313 314 314 314 314 313 313 314 314 313 313 314 315 317 319 318 319 319 320 319 319 319 319 320 319 318 319 317 313 310 310 310 309 309 308 308
308 309 309 309 309 309 309 311 314 314 314 313 314 313 313 313 314 315 315 314 315 317 319 318 320 320 320 319 318 319 320 321 319 317 318 317 317 314 310 309 310 309 309 308 307
308 309 309 309 309 309 311 315 312 314 316 315 314 314 313 314 316 316 315 316 316 318 317 320 320 319 317 317 319 319 320 320 318 317 317 319 318 314 311 310 310 309 309 308 307
308 308 309 309 309 310 315 315 313 314 317 316 315 315 315 315 316 317 315 315 317 318 319 320 320 316 318 319 319 320 319 319 319 318 315 316 319 314 311 309 308 308 308 307 307
308 308 309 310 311 311 316 314 315 316 318 318 318 317 316 316 318 316 316 316 318 319 319 319 317 318 318 319 319 320 317 318 318 319 321 315 317 317 314 311 309 308 307 307 306
308 309 313 315 315 314 315 315 317 318 318 317 318 316 316 318 317 317 314 317 319 319 319 319 317 318 319 319 318 320 315 316 317 318 317 318 318 320 313 311 311 309 307 306 306
309 314 315 316 315 314 315 317 316 319 320 320 318 318 318 316 315 315 313 314 313 317 318 317 315 315 317 316 315 313 314 315 316 317 319 317 318 320 315 314 312 309 307 306 305
313 314 316 317 317 313 314 316 319 319 318 320 319 318 318 317 316 316 314 313 316 318 319 317 317 313 313 316 314 314 315 317 319 321 321 317 318 319 316 311 311 308 307 306 305
315 316 317 317 315 314 315 319 319 318 320 316 317 317 319 315 316 317 316 315 309 311 315 317 319 314 310 314 314 314 315 316 317 317 317 314 317 318 310 309 308 307 307 306 305
315 316 317 318 316 316 317 319 319 318 316 317 316 319 319 313 313 315 315 315 309 308 313 313 313 308 308 309 311 313 314 313 313 311 313 315 314 313 308 308 307 307 306 306 305
315 313 314 316 316 316 319 316 316 310 310 312 321 316 319 318 313 313 313 312 309 306 306 308 311 307 308 308 309 311 311 314 313 315 315 315 313 315 310 309 308 307 306 306 305
309 311 311 314 316 317 319 316 310 307 309 313 317 316 316 317 313 312 312 310 310 306 305 306 307 308 307 310 312 311 312 310 311 312 315 315 316 313 311 311 310 308 307 307 305
314 313 309 315 316 311 317 310 306 308 308 309 310 312 313 310 310 311 311 311 306 305 307 305 307 309 309 305 305 307 309 311 312 314 311 312 314 309 309 308 308 308 307 306 304
309 308 307 314 316 315 308 308 306 307 307 308 309 308 307 309 310 309 311 307 304 305 306 306 308 313 311 309 307 308 308 307 308 309 313 313 315 308 307 307 307 307 306 305 304
308 312 307 308 306 312 311 309 308 304 306 305 306 306 307 307 306 308 310 307 304 306 304 304 307 310 315 312 309 310 308 307 308 313 312 312 313 313 311 309 307 306 305 304 304
310 309 306 311 308 308 308 307 307 307 305 305 306 306 307 307 307 307 308 308 305 308 305 306 309 306 307 306 304 305 306 307 307 309 310 312 312 311 310 310 308 306 304 303 303
309 308 303 304 304 307 305 307 306 305 306 306 306 306 305 306 307 307 308 308 309 307 308 305 309 306 307 305 305 306 307 307 307 307 308 308 308 309 308 306 305 304 304 303 302
307 306 308 302 306 309 309 307 307 306 304 304 304 306 305 305 303 303 304 304 305 308 308 307 307 307 310 304 304 308 309 308 308 307 307 308 311 308 307 306 305 304 303 303 302

GFSSW_850_thetae_045.txt.gz
Theta_e
318 318 317 316 316 317 318 317 317 313 311 313 317 319 318 314 311 315 320 321 318 317 318 320 322 323 327 331 330 327 337 336 329 327 327 323 323 323 321 322 320 320 321 322 327
318 318 318 318 318 318 318 316 316 311 311 314 317 319 315 312 317 318 315 317 317 316 318 323 325 324 328 329 329 330 335 328 325 326 326 324 323 322 323 323 322 320 320 323 327
317 318 317 317 317 317 316 316 313 311 311 314 317 317 313 315 323 318 313 314 314 315 315 318 322 324 328 328 328 328 331 326 325 325 323 322 322 321 323 323 318 318 318 320 322
314 314 316 317 317 317 317 314 312 310 311 314 316 314 311 318 323 317 313 313 313 314 318 321 322 325 327 329 325 330 325 325 324 321 321 323 322 319 321 318 316 316 317 318 318
314 314 314 314 315 315 314 312 310 310 312 314 315 312 314 318 318 315 313 313 314 315 320 322 323 324 327 326 324 326 324 321 321 321 322 321 321 319 316 315 315 315 316 316 316
313 313 314 314 314 313 311 309 309 311 311 313 313 312 317 320 313 313 313 313 315 318 320 321 322 322 324 323 323 323 321 320 321 321 320 321 319 319 316 315 315 315 315 314 313
313 313 313 313 312 310 309 309 310 310 311 312 312 316 319 317 313 313 313 313 313 317 318 317 318 319 320 322 320 320 321 321 320 321 321 321 321 321 316 315 315 315 314 312 311
313 313 312 310 309 309 309 310 310 310 310 311 315 316 318 314 314 313 313 314 313 313 314 313 317 319 320 319 319 321 321 323 322 321 320 320 322 319 315 315 316 315 313 312 310
311 310 309 309 309 309 309 310 309 309 311 314 315 318 316 313 314 312 314 315 316 316 315 316 320 321 320 322 321 322 320 323 323 320 322 321 323 319 315 315 315 314 313 312 310
309 309 309 309 309 309 309 309 310 313 314 315 315 316 313 315 314 314 314 314 316 317 319 320 320 322 321 321 321 322 322 321 321 322 320 322 322 320 315 315 315 314 313 312 311
308 309 309 308 309 309 309 311 317 318 316 317 316 315 314 314 314 316 315 316 317 318 320 320 322 321 322 322 321 320 321 321 323 321 320 320 321 320 316 315 315 314 313 312 311
309 308 308 309 309 309 313 318 316 318 317 316 316 315 315 315 317 318 316 317 318 320 319 320 321 322 320 320 321 322 322 323 322 320 319 322 323 321 318 315 315 314 313 312 311
308 309 309 309 309 310 318 319 313 316 319 317 317 316 316 316 318 319 317 318 319 320 321 321 323 320 320 321 322 323 323 322 321 321 321 321 322 321 319 315 314 313 313 312 311
309 309 309 309 311 316 320 313 314 315 320 319 319 318 317 318 320 317 316 318 320 322 321 322 320 320 320 321 321 322 320 319 320 322 322 320 319 323 319 316 314 312 312 311 311
308 309 310 318 318 316 317 314 317 320 320 319 319 317 317 319 320 319 316 319 322 322 321 322 320 320 321 321 320 322 319 320 320 321 320 320 320 323 320 317 315 313 312 311 310
308 312 315 316 315 315 316 316 317 321 323 321 320 320 320 319 319 318 317 316 317 320 320 321 318 318 320 319 318 318 318 319 319 319 320 321 321 323 320 318 317 314 312 311 309
313 315 317 316 319 314 316 319 321 321 321 322 322 320 321 321 319 319 319 318 319 321 321 319 319 316 316 318 318 318 319 320 324 325 325 320 320 320 321 316 317 315 313 310 309
314 316 317 317 314 314 317 321 321 320 321 320 320 320 322 320 320 320 320 320 313 315 317 319 322 318 315 318 318 318 318 319 320 321 321 318 319 320 315 314 313 313 311 310 309
316 316 315 316 315 315 320 321 322 321 321 321 320 322 322 318 317 318 318 319 314 312 316 317 318 313 312 313 314 317 315 317 316 317 317 319 319 316 313 312 312 311 310 310 309
314 314 314 318 316 317 321 320 320 315 315 318 323 321 323 321 317 317 318 315 313 309 309 313 313 312 311 311 312 313 314 317 317 318 319 319 319 318 314 313 312 311 310 310 309
312 315 311 315 316 319 322 319 315 311 313 317 320 321 320 320 318 318 316 314 312 309 308 310 311 311 310 312 315 313 314 313 314 316 317 318 319 315 315 314 313 311 311 310 309
314 315 311 314 318 319 320 315 309 312 311 313 314 316 317 316 316 316 315 314 309 309 311 309 312 313 313 309 309 311 313 314 316 317 316 316 317 315 313 312 311 311 310 310 309
314 312 311 315 319 318 314 312 311 311 312 312 313 312 312 314 314 312 313 310 307 308 310 310 312 315 314 312 310 309 311 311 312 313 315 316 317 313 311 311 310 309 309 308 308
311 315 311 313 312 315 315 314 312 307 310 309 310 309 311 311 310 312 312 309 306 308 304 306 311 313 316 314 312 313 312 311 311 314 315 316 316 316 316 313 312 310 309 308 307
312 315 311 314 313 314 313 313 311 310 308 308 309 309 310 310 310 310 311 310 307 309 308 309 312 312 312 311 310 309 309 310 311 311 312 313 313 313 313 312 310 308 307 306 306
314 312 308 310 310 312 308 311 310 308 309 309 309 309 308 309 310 310 311 310 311 310 310 309 311 310 310 310 308 309 309 310 310 310 310 311 311 313 309 309 308 308 308 307 306
309 308 313 308 312 314 315 312 310 309 306 307 308 309 309 308 306 306 307 307 308 310 311 310 310 311 313 309 310 312 314 313 312 311 311 312 312 311 310 309 309 308 307 306 305

GFSSW_850_thetae_048.txt.gz
Theta_e
318 318 318 316 316 316 316 317 317 316 313 311 316 320 321 316 312 317 326 322 322 320 318 322 326 325 328 332 330 330 342 338 331 330 328 323 324 322 322 322 320 321 323 326 329
318 318 318 317 316 316 318 318 317 315 311 311 316 320 318 313 318 325 320 318 319 317 320 323 326 325 329 331 331 331 342 330 327 327 328 324 324 323 323 323 321 320 322 325 328
317 318 318 318 318 318 318 317 316 313 311 313 316 318 315 314 323 319 316 315 317 316 317 319 322 325 328 328 328 330 334 328 326 325 323 323 322 321 324 322 319 319 320 321 323
315 317 317 317 317 317 317 316 315 311 311 314 315 315 312 318 324 318 315 313 314 315 319 322 323 325 329 331 326 330 325 326 326 322 321 323 322 320 320 318 317 317 318 319 319
314 314 314 316 316 316 316 315 312 310 312 313 314 312 313 319 318 316 314 313 314 317 321 322 323 325 329 327 325 328 325 322 321 322 322 322 322 320 317 316 316 317 317 317 317
313 314 314 314 314 315 314 312 310 310 313 312 312 312 317 323 315 313 313 314 316 319 320 322 323 322 324 324 325 324 323 321 321 321 321 322 320 319 317 316 316 316 316 315 314
314 313 313 314 314 313 311 309 309 311 312 311 311 315 321 318 314 313 313 313 314 318 319 317 318 320 322 324 321 321 322 321 322 321 322 321 322 320 317 316 316 316 315 313 312
314 313 313 313 312 310 309 309 310 312 311 311 315 318 320 316 315 314 315 316 316 315 315 314 316 320 321 320 319 320 320 323 323 322 321 320 322 321 316 316 316 316 314 312 311
312 313 313 310 309 309 309 309 310 311 311 314 316 318 317 314 315 313 314 316 316 317 314 315 317 322 319 322 322 322 320 322 324 322 322 320 323 320 316 316 317 316 314 312 311
311 310 309 309 309 309 309 309 310 312 314 316 318 317 315 316 315 314 314 313 317 317 320 319 321 322 322 322 322 322 322 322 323 322 321 322 320 319 317 316 317 316 315 313 311
308 309 309 308 309 309 309 312 314 316 318 318 316 316 315 314 315 317 315 316 317 318 321 321 322 322 323 323 322 321 320 321 321 322 321 322 321 321 318 316 316 316 315 313 312
308 309 309 309 308 309 316 319 319 319 317 316 316 316 316 316 318 318 317 318 318 320 320 321 320 322 321 321 321 322 322 322 323 321 320 320 320 321 318 316 316 316 315 314 313
309 309 309 309 309 312 319 321 315 318 319 317 317 317 316 317 319 319 318 318 319 321 321 321 323 321 320 322 321 322 323 323 321 322 321 321 322 322 320 317 315 316 315 314 312
309 309 309 309 311 316 321 313 315 316 321 318 318 318 317 319 320 318 317 319 320 321 323 322 321 321 321 321 322 323 321 321 321 322 323 321 321 322 319 316 315 315 314 314 312
308 309 309 320 318 319 320 313 316 320 323 319 319 318 318 319 320 320 318 320 321 322 321 322 321 321 322 322 321 322 320 320 321 321 319 319 319 322 319 317 314 314 314 313 312
308 310 315 316 317 320 315 314 318 322 323 321 320 319 319 319 320 319 318 317 317 320 321 321 319 319 320 320 319 318 319 320 320 319 319 318 320 322 319 318 316 314 313 313 312
311 314 318 318 320 313 315 320 322 322 322 322 322 320 320 321 320 320 320 319 320 321 321 321 320 317 316 318 319 318 320 322 323 324 324 321 321 319 317 315 316 315 314 313 312
315 316 316 317 319 314 317 322 324 321 323 322 321 321 322 322 321 320 321 321 316 315 318 320 322 319 317 318 317 321 319 319 320 320 319 319 319 318 314 315 314 315 314 313 311
315 317 316 316 314 314 321 323 323 323 321 321 321 322 322 320 318 320 320 320 313 312 316 317 318 314 314 314 314 318 316 316 315 315 316 317 319 315 313 312 313 313 312 311 310
315 315 316 317 315 316 322 322 320 316 318 320 322 322 323 322 318 319 320 316 314 310 310 313 313 313 311 311 313 313 314 316 315 318 319 318 318 316 313 312 312 311 311 311 310
314 316 314 317 316 320 321 319 316 313 316 318 321 322 321 321 319 319 316 314 313 311 309 311 312 312 310 312 315 313 313 313 313 314 315 315 316 314 314 313 311 311 311 311 310
316 316 312 315 318 321 321 317 312 314 313 315 315 317 318 318 317 317 317 316 310 310 313 309 311 312 313 310 310 311 313 314 315 317 317 315 316 311 310 311 311 311 310 310 310
317 313 312 315 319 318 315 313 313 313 314 314 315 314 313 315 316 314 314 310 308 310 311 310 312 313 312 312 310 309 311 311 311 312 315 313 313 310 311 311 311 310 310 309 309
312 316 313 314 315 315 317 316 313 309 312 311 311 311 312 312 312 313 314 310 307 309 306 308 312 313 315 313 313 312 313 312 311 312 312 313 314 313 312 311 309 309 308 308 307
312 317 313 316 315 314 315 315 314 311 309 309 310 310 311 312 311 311 313 311 308 310 308 309 311 312 312 312 311 311 311 310 309 310 310 311 311 311 310 308 309 309 309 308 307
314 314 309 312 312 313 309 312 312 309 310 310 310 310 309 310 310 312 312 311 313 311 310 310 312 311 310 312 310 310 310 310 310 310 310 310 310 310 311 310 309 309 309 308 307
313 310 313 310 313 315 316 313 311 309 308 308 309 310 309 309 307 307 307 308 308 311 311 311 311 312 314 311 312 312 313 313 311 312 311 310 311 311 309 309 309 309 308 307 306

GFSSW_850_thetae_051.txt.gz
Theta_e
314 316 317 318 317 316 315 317 317 317 315 313 312 319 320 319 314 315 327 325 323 321 319 323 326 325 328 331 329 330 331 326 326 327 323 323 322 322 321 320 321 323 325 328 330
315 318 318 318 316 316 316 316 317 317 314 311 312 318 318 315 313 321 325 321 320 319 319 325 325 325 326 330 330 328 326 326 325 324 324 323 323 322 321 320 319 321 324 327 330
317 318 318 318 317 317 317 318 317 316 313 311 315 317 314 313 320 323 319 320 318 318 317 320 323 324 327 328 327 327 325 325 326 324 321 322 321 321 321 319 319 319 320 322 326
315 317 317 317 317 318 317 317 316 315 311 311 316 315 311 319 323 319 317 315 317 316 321 322 323 324 327 328 325 325 324 327 324 322 321 322 321 319 320 319 318 318 319 319 319
314 315 316 317 317 317 316 316 315 313 311 312 315 312 313 320 319 316 315 314 315 319 321 322 323 324 325 325 324 324 323 323 322 321 322 322 320 318 316 317 317 317 317 317 316
314 314 314 314 315 315 315 315 313 311 310 312 314 311 319 324 316 314 314 314 316 320 320 321 321 321 323 322 323 323 322 321 321 321 321 320 318 319 316 316 316 317 316 315 314
314 313 313 314 314 314 314 313 311 309 311 312 312 314 323 319 315 313 313 313 315 319 318 318 318 320 321 322 322 320 319 319 320 320 320 320 319 318 318 316 316 316 315 314 313
314 314 313 313 314 314 312 310 309 310 310 311 312 318 319 317 315 313 315 315 314 314 315 314 316 320 321 320 319 319 317 318 318 320 320 319 316 318 317 316 316 315 314 312 311
314 313 313 313 313 310 309 309 310 310 309 312 316 319 316 314 315 313 315 316 315 316 314 314 318 322 318 317 317 317 315 316 321 320 319 317 318 316 316 316 316 315 313 312 311
312 313 312 310 309 309 309 309 309 311 313 316 319 319 315 315 315 314 313 314 317 317 320 320 320 317 317 316 316 318 318 317 320 320 318 318 317 315 316 316 316 315 313 312 310
309 309 309 309 308 309 309 312 314 316 317 318 317 315 315 315 316 317 315 316 317 318 318 320 317 317 316 318 318 318 318 317 318 320 318 317 317 316 315 315 315 315 313 312 311
308 308 308 308 308 309 314 318 319 317 317 316 316 315 315 316 317 318 317 317 317 317 317 316 316 318 320 319 319 319 319 318 319 319 318 317 317 316 315 315 315 316 314 312 312
308 308 308 309 309 316 319 320 317 318 317 317 316 316 315 317 319 318 318 318 318 318 318 316 321 320 320 320 320 320 320 319 319 319 318 318 318 318 316 314 315 315 315 313 312
309 309 309 309 310 314 320 319 316 317 313 317 317 317 315 318 319 317 317 319 319 319 320 319 319 320 319 320 319 319 319 319 320 318 318 318 316 314 315 313 313 315 315 314 312
308 309 309 318 317 319 321 313 316 319 319 317 318 318 318 319 319 320 318 319 320 320 317 317 319 319 320 320 319 320 318 318 319 318 316 315 316 313 313 314 311 312 315 314 313
308 309 317 317 318 320 316 314 317 316 322 320 318 318 317 319 319 318 317 317 317 317 319 318 318 318 318 318 317 317 317 316 317 315 315 314 315 314 316 315 312 312 314 314 313
309 312 318 318 320 316 315 317 315 318 320 321 319 318 318 318 318 318 317 316 316 318 318 318 318 315 316 317 317 317 315 316 318 318 317 316 315 314 316 313 313 311 314 314 313
312 316 317 319 319 314 318 317 322 321 321 320 320 320 320 319 319 319 319 317 312 313 313 317 319 315 315 316 316 317 315 315 317 318 314 316 315 314 311 312 313 315 315 313 313
315 316 316 315 314 315 321 317 319 320 320 321 320 320 320 318 318 318 318 314 309 308 313 311 315 312 311 312 313 315 312 312 312 311 310 311 314 312 310 310 311 311 312 312 311
315 315 316 316 314 317 317 318 315 315 316 319 321 319 320 317 316 316 316 313 310 309 309 310 309 312 310 311 312 312 312 312 310 313 315 312 314 313 311 310 309 308 310 310 310
314 315 315 317 315 319 315 315 313 313 315 317 318 320 319 318 317 316 315 313 312 309 308 309 307 310 309 310 311 310 309 310 309 309 310 310 310 310 311 309 308 308 310 311 310
316 311 312 316 315 315 314 314 313 313 313 314 314 315 315 315 316 315 314 312 309 309 310 307 306 308 309 308 308 310 311 309 310 311 309 308 310 308 306 308 309 309 309 310 310
316 312 311 315 313 310 311 311 311 312 313 313 314 312 311 313 314 312 313 309 308 308 309 308 306 307 310 311 310 308 309 310 307 306 308 307 308 307 308 309 310 310 309 309 309
312 309 312 313 314 313 313 312 310 309 311 310 310 310 310 311 310 311 312 309 307 309 307 307 307 308 310 310 310 309 311 310 307 305 307 308 309 309 307 307 307 308 308 308 308
312 312 311 309 311 311 312 312 310 309 309 309 308 309 309 310 309 309 311 308 307 310 308 306 308 309 309 309 310 309 309 308 307 307 308 309 308 307 307 307 308 308 308 308 308
313 312 309 310 311 310 309 310 309 308 308 308 308 309 308 307 307 309 309 309 309 309 309 306 307 308 308 309 309 309 308 308 308 308 307 307 307 307 309 309 308 308 308 308 308
313 311 313 309 309 309 309 310 309 307 307 307 308 307 307 307 306 306 307 307 308 308 308 307 306 306 308 309 309 309 310 311 310 309 309 309 307 308 306 307 307 308 308 307 306

GFSSW_850_thetae_054.txt.gz
Theta_e
315 315 314 316 318 318 316 315 315 317 316 314 312 313 321 321 316 313 317 325 327 323 320 323 325 326 328 330 329 330 323 324 325 324 322 322 321 321 320 320 322 323 326 328 333
316 315 317 317 318 316 315 315 316 316 316 313 312 314 320 318 313 313 325 324 321 321 321 324 325 325 328 330 329 327 324 324 324 323 321 322 321 321 320 319 321 324 326 326 330
315 316 318 317 317 316 316 316 315 317 316 313 311 316 319 313 315 321 323 325 321 323 316 321 322 323 327 328 327 325 325 323 325 322 322 321 320 321 319 318 319 321 324 324 327
313 316 317 317 317 317 317 317 317 317 315 311 312 315 316 313 322 319 318 321 324 317 324 321 322 323 326 326 326 324 324 325 324 323 320 320 320 319 320 320 319 320 321 322 322
313 315 316 317 317 317 317 316 316 315 314 311 313 314 311 318 321 317 316 315 319 319 329 325 322 323 324 324 324 324 322 324 322 321 321 321 319 318 317 318 318 318 318 318 318
315 314 315 315 316 316 316 316 315 315 311 311 312 311 314 323 317 314 314 314 317 323 320 324 321 321 323 322 322 323 321 321 320 320 321 320 318 318 316 317 317 317 316 316 315
315 314 313 314 314 314 314 314 314 312 310 311 311 311 320 320 316 313 313 314 318 319 319 320 319 320 321 321 321 321 320 318 319 319 320 320 318 317 317 316 316 316 315 314 314
314 314 313 313 313 314 313 313 311 309 310 310 310 316 321 318 314 314 315 314 314 317 318 315 317 320 321 320 318 318 316 317 316 318 319 319 318 316 317 316 316 316 315 314 312
314 314 313 313 313 313 311 310 309 310 309 310 315 319 318 315 314 314 315 316 315 314 314 314 319 320 319 315 315 315 314 315 316 318 318 316 317 318 317 315 315 315 314 313 311
313 313 312 313 311 309 309 309 309 309 311 315 320 319 315 314 315 314 314 315 317 316 318 318 319 316 315 314 313 315 316 316 318 318 317 317 315 315 315 315 315 314 313 312 311
312 312 311 309 309 308 308 309 313 315 314 317 317 315 315 315 315 316 315 315 317 317 318 319 316 314 314 316 316 317 317 316 315 318 318 317 316 315 316 314 313 314 312 311 310
308 308 308 308 308 308 311 317 318 316 317 316 316 315 314 316 317 317 316 317 317 316 317 315 316 315 318 318 318 318 318 317 318 319 318 317 317 316 314 314 314 314 312 312 310
308 308 308 308 308 313 318 320 318 318 314 316 316 315 315 316 318 318 318 317 317 317 316 315 319 319 319 319 320 319 319 318 318 317 316 317 316 316 315 314 314 313 314 313 311
308 308 308 308 311 312 318 317 318 319 312 316 316 317 315 318 318 317 317 318 319 317 318 317 318 319 318 319 318 319 318 319 319 317 316 315 315 314 313 313 311 314 314 313 311
308 308 308 310 316 318 320 315 316 319 317 316 317 317 316 319 318 319 317 317 319 319 316 317 318 318 319 319 318 318 318 317 317 316 315 314 314 312 313 314 311 312 314 314 312
308 308 311 317 318 320 317 315 318 313 320 318 317 317 316 318 319 317 317 317 317 316 316 317 318 317 318 317 316 317 316 314 313 312 314 313 312 311 315 315 312 311 314 314 313
308 312 316 317 319 317 315 316 309 318 319 319 317 317 317 317 317 317 316 315 315 317 317 317 317 314 316 316 315 314 311 312 315 317 317 314 313 310 311 310 312 311 314 314 314
309 314 318 317 317 314 319 315 320 319 320 319 319 317 317 318 318 318 317 314 309 312 311 316 318 315 314 315 316 315 313 313 317 318 316 311 315 313 310 310 310 313 315 314 314
313 316 315 316 314 315 319 316 318 318 318 319 319 319 319 317 317 318 316 312 309 308 312 311 315 312 311 311 313 314 313 311 311 309 309 309 313 310 310 308 309 311 313 313 313
315 315 316 316 314 318 315 317 314 314 315 318 320 318 318 317 316 316 314 313 310 308 308 308 309 311 310 310 311 312 310 311 308 310 314 310 311 311 310 309 308 308 311 312 312
314 315 315 316 315 318 312 313 313 313 314 316 317 318 317 316 315 314 314 311 310 308 307 307 306 308 308 309 310 309 308 309 307 308 310 309 308 308 309 308 308 308 310 311 311
315 309 311 316 314 310 313 313 312 312 313 313 314 315 315 314 314 313 314 311 308 308 309 306 305 308 308 307 308 309 308 306 308 310 306 305 310 307 306 307 309 309 308 309 309
316 311 311 315 311 308 310 310 311 312 311 312 312 311 311 312 312 312 312 308 307 308 309 307 304 305 309 310 310 307 307 307 306 304 306 306 307 305 306 308 308 308 308 308 308
312 307 312 314 313 309 311 311 309 309 310 309 309 309 310 310 309 311 310 308 307 309 307 307 305 306 309 311 308 309 310 308 305 303 305 306 307 308 306 306 307 307 307 307 308
311 310 310 306 309 310 310 310 309 308 308 308 308 308 309 309 308 310 310 308 307 310 307 305 305 308 308 308 308 308 308 308 306 306 307 307 307 306 304 306 306 307 307 307 308
313 311 309 308 308 308 307 309 308 307 307 307 308 307 307 307 307 307 309 308 308 308 307 304 305 307 308 309 308 309 308 308 307 307 306 306 306 306 306 307 307 307 307 306 306
312 312 311 307 306 307 306 307 307 306 307 307 307 306 306 306 306 306 307 306 308 307 307 306 305 304 308 306 308 306 310 309 309 307 307 307 306 305 305 306 307 307 306 306 305

GFSSW_850_thetae_057.txt.gz
Theta_e
312 314 316 314 313 315 316 316 315 314 314 315 315 313 313 321 322 317 315 320 328 324 321 321 325 325 327 330 329 330 322 323 324 322 322 320 319 320 319 320 322 323 326 330 334
315 313 315 314 316 317 317 315 315 314 315 315 314 313 313 319 321 317 317 322 325 326 320 323 325 325 327 329 329 326 323 322 321 322 320 321 320 320 320 320 322 325 326 329 333
315 316 315 316 317 317 315 315 315 315 315 315 314 312 315 317 316 317 319 324 327 322 317 321 323 324 325 327 326 325 327 322 324 322 322 321 320 320 319 318 320 324 324 327 330
315 315 315 317 317 317 316 316 316 316 316 315 313 311 315 311 317 320 322 321 329 320 319 322 323 323 325 324 325 325 323 324 324 323 320 320 320 319 319 320 320 323 324 324 325
315 314 316 317 317 317 317 317 317 316 316 314 311 312 312 312 319 318 318 317 320 317 330 322 323 322 324 324 323 324 322 323 321 321 320 320 318 318 318 319 319 320 321 321 322
316 314 314 315 316 316 316 316 316 315 314 313 310 311 312 321 319 315 314 314 318 319 325 327 324 321 321 321 322 322 320 320 320 320 320 319 317 318 317 317 317 318 318 317 318
314 315 314 314 315 314 315 315 314 314 313 310 310 310 317 318 316 313 313 315 317 321 320 321 329 324 320 320 320 320 320 318 319 319 318 319 317 316 317 317 316 316 316 315 314
312 314 314 313 313 314 314 314 313 312 310 310 309 312 319 319 315 313 315 315 318 319 323 320 319 319 320 319 317 316 314 316 315 318 318 317 316 316 317 316 316 315 314 314 313
311 314 313 313 313 313 313 312 310 309 309 308 311 318 319 316 314 314 315 316 315 316 317 317 318 319 318 314 313 313 314 314 314 317 317 316 316 316 316 315 315 315 314 312 311
313 313 313 313 312 313 310 309 308 308 308 312 319 318 316 315 314 314 315 316 317 316 317 318 318 316 314 312 314 314 315 314 315 317 317 317 315 314 315 314 315 315 314 313 311
312 312 312 312 311 309 308 307 309 312 311 316 317 315 315 314 314 315 314 315 316 317 317 318 315 312 314 314 314 315 315 316 315 316 317 316 316 314 315 313 313 314 314 313 312
311 311 310 308 308 308 308 311 316 318 315 316 316 315 315 315 317 316 316 316 316 314 316 315 315 314 315 317 317 317 316 316 315 318 317 316 316 314 314 313 313 314 313 313 311
308 308 308 308 308 309 312 319 318 319 313 316 315 314 315 316 317 318 317 317 315 316 315 315 317 317 318 318 318 318 317 317 317 316 315 315 315 315 314 313 314 313 314 313 312
308 308 308 308 311 312 316 319 319 319 310 316 317 316 315 318 317 317 317 318 317 316 315 316 317 318 317 318 316 317 317 318 318 316 316 314 316 313 312 311 311 311 312 313 312
308 308 308 310 315 318 319 317 318 319 314 314 317 316 316 317 317 318 317 317 318 318 315 316 317 318 318 318 317 317 317 316 316 314 314 313 313 311 312 314 312 310 311 313 313
308 308 308 312 317 319 317 315 319 311 318 316 316 316 316 317 318 317 316 317 316 315 315 316 317 316 317 316 316 315 314 311 312 311 313 312 311 312 313 313 310 311 312 313 313
308 308 314 316 318 317 315 317 309 318 318 318 316 316 315 316 317 317 315 311 313 314 315 315 316 314 315 316 314 312 310 312 312 315 313 312 311 311 309 309 309 309 313 314 314
309 315 317 316 316 314 318 315 319 317 319 318 316 315 316 316 317 317 315 312 308 311 310 314 316 314 312 314 314 314 310 311 314 317 317 311 314 313 310 308 309 311 313 314 314
310 313 315 316 314 315 318 315 316 318 316 318 318 318 318 316 317 317 314 313 308 307 313 311 313 311 310 311 312 313 313 310 309 307 308 308 308 311 307 306 308 310 312 314 313
312 315 315 315 314 318 314 316 314 313 314 317 318 317 317 317 316 315 314 311 309 307 307 308 310 310 310 310 309 311 309 310 307 310 312 309 308 311 307 308 306 308 312 313 313
315 314 315 316 314 317 311 313 312 312 314 316 317 317 317 316 313 313 313 310 309 307 307 306 306 308 308 308 308 309 309 306 306 307 310 309 307 306 308 308 309 309 308 309 309
313 309 312 316 313 308 311 312 312 312 313 312 313 313 315 314 312 312 313 311 308 307 308 305 303 306 307 306 307 308 308 305 306 307 304 303 309 307 304 305 306 306 307 307 308
314 310 311 315 310 308 308 310 310 312 310 312 311 311 310 311 311 312 311 307 307 307 307 305 303 304 307 308 308 306 306 305 304 303 305 306 307 304 305 306 306 306 306 307 307
313 307 311 314 311 308 310 310 310 309 310 308 309 309 310 309 307 311 309 307 307 308 308 305 303 305 307 310 308 309 308 305 304 302 303 304 305 307 305 304 304 306 307 307 307
311 308 308 306 309 308 309 309 308 309 308 308 307 308 308 309 308 310 309 306 306 310 306 303 303 306 306 306 307 308 308 307 306 305 306 306 305 305 304 303 305 306 307 307 306
312 310 308 306 307 308 308 308 308 306 307 308 308 307 306 307 307 307 308 307 308 307 306 302 304 307 307 308 307 309 307 307 306 306 304 304 305 304 305 306 306 306 306 306 306
312 311 310 305 304 305 305 307 307 305 306 306 306 305 305 305 306 306 307 307 307 305 305 305 304 304 308 304 306 307 308 309 308 306 306 306 305 305 305 305 306 306 305 306 305

GFSSW_850_thetae_060.txt.gz
Theta_e
315 314 311 315 315 313 312 314 315 314 313 313 312 313 313 314 316 320 322 319 322 327 322 319 324 324 327 329 329 329 322 322 323 321 321 319 319 319 319 320 321 323 328 332 341
315 316 312 315 315 314 315 317 316 315 314 313 313 314 313 313 317 321 325 318 324 329 324 319 324 324 327 329 328 325 323 323 321 320 319 319 320 320 319 321 322 324 328 333 340
313 316 314 314 315 316 316 316 315 315 314 314 314 315 312 313 316 321 323 320 325 325 329 319 322 323 326 327 326 324 327 322 323 322 321 320 319 319 318 317 322 324 329 330 329
312 315 315 315 316 317 317 316 316 315 315 315 315 314 311 312 317 319 318 323 325 323 321 321 322 323 324 324 324 325 322 323 322 322 321 319 319 319 319 319 319 324 328 329 328
313 314 314 316 316 317 317 317 317 316 316 315 315 312 311 312 315 317 319 321 323 319 321 322 322 322 324 323 322 323 322 322 321 320 319 319 318 318 318 319 319 323 323 325 324
312 316 314 315 316 316 316 316 316 315 315 314 313 310 309 320 317 315 315 316 319 318 324 330 321 321 321 321 321 321 320 319 320 320 320 319 317 318 317 318 320 321 321 321 320
312 314 314 314 314 315 315 315 315 314 314 313 310 309 310 317 316 314 314 315 318 318 321 329 325 320 320 320 319 319 320 317 318 318 318 319 316 316 317 317 317 318 318 318 317
311 313 315 313 314 314 314 314 313 313 313 310 309 309 313 316 315 314 314 315 317 319 320 324 319 320 319 318 316 315 314 318 315 317 317 316 315 315 316 316 315 316 315 315 315
311 312 314 314 313 313 313 313 312 311 309 309 308 311 319 317 314 314 315 316 317 318 320 320 318 318 318 315 314 312 317 315 314 316 317 316 315 315 315 315 315 314 314 313 313
311 311 313 313 313 312 313 311 309 308 308 308 314 317 316 315 314 314 315 316 316 316 316 317 318 317 313 313 318 316 314 314 314 316 317 317 314 313 315 314 315 314 313 312 312
313 313 313 313 312 312 309 308 307 309 308 314 317 317 315 314 314 314 315 316 316 317 315 316 312 316 323 316 313 312 314 315 314 315 317 315 314 314 314 313 313 313 313 312 311
311 311 312 311 309 308 308 309 314 316 314 313 315 317 314 315 316 316 315 315 316 314 315 314 313 313 314 314 316 316 316 315 315 317 316 316 315 314 313 312 313 314 313 313 311
309 309 308 308 308 308 308 315 316 318 313 316 316 314 315 316 317 317 316 316 314 315 315 315 316 315 317 316 317 317 316 316 316 316 314 314 315 314 312 313 313 313 313 313 313
308 308 308 308 310 311 315 318 319 319 310 315 316 316 315 318 317 316 317 317 316 314 312 315 316 317 317 317 316 317 316 317 317 316 316 313 314 312 311 311 311 311 311 313 313
308 308 308 311 315 318 318 317 319 318 316 314 316 315 317 317 317 317 316 317 316 317 315 315 317 317 317 317 317 316 315 315 314 313 313 312 312 310 310 313 310 310 311 312 313
308 308 308 310 316 318 315 316 318 313 315 316 316 316 316 317 317 316 316 316 315 313 313 315 316 315 316 314 315 313 312 310 311 311 312 312 310 311 311 312 308 309 312 312 313
308 309 309 316 318 316 316 317 311 317 316 316 315 315 314 316 316 315 313 310 312 311 313 314 315 313 315 315 314 311 312 314 310 314 311 312 311 311 309 308 306 305 309 313 313
308 308 315 316 316 314 318 314 318 316 317 316 315 314 315 316 315 315 314 311 307 310 310 313 314 314 311 313 313 313 311 310 313 314 315 311 313 312 308 307 308 310 312 313 313
308 313 315 315 314 315 317 313 316 317 315 317 316 316 317 315 315 315 313 312 308 307 313 312 313 310 309 310 311 312 313 309 308 305 307 308 307 310 305 305 307 309 312 311 312
309 312 315 315 314 317 313 315 313 312 313 316 317 316 317 316 317 315 313 311 309 307 307 307 310 308 309 309 308 311 308 310 306 310 309 308 308 309 307 307 305 304 306 308 309
313 314 314 314 314 316 310 312 312 312 313 315 317 317 316 315 313 313 313 310 308 307 306 305 306 307 307 308 308 308 308 305 305 305 310 309 306 303 307 306 303 303 306 307 307
313 310 313 315 312 306 311 311 311 311 312 312 312 313 315 312 312 312 312 310 307 307 307 304 302 305 307 305 306 307 308 305 307 306 303 302 307 306 303 303 304 304 306 306 307
313 311 310 314 309 309 308 309 309 311 309 311 311 310 310 310 312 311 310 307 307 307 306 304 302 303 305 307 307 306 306 304 302 303 305 306 307 303 303 303 303 304 306 307 307
314 306 310 313 310 308 309 310 310 308 309 308 308 308 309 309 307 310 308 306 307 307 309 305 301 303 306 309 307 308 306 305 303 301 303 304 305 306 303 302 304 306 306 306 306
311 307 307 307 309 307 308 308 309 309 308 307 307 307 308 308 307 309 308 305 306 309 305 301 303 305 306 305 307 307 307 305 304 304 306 306 304 305 303 303 305 305 306 306 306
311 309 308 305 306 306 307 308 308 306 307 308 307 306 305 307 306 307 307 305 307 306 305 301 303 306 307 307 306 308 307 305 305 305 303 303 303 304 304 305 305 305 306 306 305
313 311 309 303 303 305 305 307 307 305 305 305 305 304 304 305 305 306 306 306 306 304 304 303 304 304 309 303 305 307 306 306 307 304 305 306 304 304 305 305 306 306 305 305 304

GFSSW_850_thetae_063.txt.gz
Theta_e
309 314 315 313 312 314 314 314 313 314 314 314 312 311 312 312 313 316 318 324 322 322 324 319 322 323 326 328 328 327 331 329 327 323 325 318 320 318 318 321 323 324 328 336 340
309 312 316 315 312 314 314 314 315 316 315 314 313 312 312 313 312 316 321 322 319 321 326 319 323 323 326 329 328 327 333 331 324 322 322 319 320 319 320 321 322 323 327 337 340
310 310 314 315 313 314 315 316 316 315 314 314 314 313 313 312 313 319 321 323 319 324 329 323 322 322 325 327 326 325 333 324 322 322 320 320 319 319 319 321 321 323 329 337 339
312 310 313 315 315 315 316 316 316 315 315 315 315 314 314 311 318 319 321 321 321 325 330 327 325 323 324 326 324 327 322 322 321 322 320 320 319 319 318 319 319 322 328 335 336
312 311 314 314 316 316 316 316 316 316 316 315 315 314 312 311 316 317 318 319 323 325 321 328 323 322 326 322 323 324 322 321 320 319 319 319 318 319 319 319 319 324 329 331 329
312 312 315 315 315 316 316 316 316 315 315 315 314 313 310 313 318 317 314 315 317 324 321 322 323 321 321 320 322 320 320 319 319 319 319 319 317 318 317 318 320 324 327 328 327
312 312 314 315 314 315 315 315 315 314 314 314 313 310 309 314 316 314 313 315 316 318 321 331 327 321 319 320 320 319 321 317 318 318 318 318 317 318 316 318 320 320 322 323 323
311 311 313 314 313 314 314 314 314 313 313 312 310 309 311 316 317 314 314 314 317 318 320 326 331 322 319 317 316 318 317 323 317 317 317 316 321 315 315 316 318 318 318 319 318
310 311 312 314 314 313 313 313 313 312 311 309 308 308 313 317 316 313 314 315 318 319 319 321 319 318 316 318 319 316 324 319 319 316 318 317 319 315 315 315 315 316 316 315 315
311 309 311 313 313 312 312 312 311 309 308 308 309 316 315 315 314 314 315 316 316 317 318 317 318 317 315 320 328 323 318 315 317 316 317 317 319 316 315 314 314 314 315 314 313
312 312 312 312 312 312 312 309 307 309 308 310 315 317 314 313 313 314 315 316 316 316 317 315 318 320 319 319 316 316 316 316 315 315 318 317 317 318 314 313 313 313 313 313 313
311 311 312 312 311 310 308 307 312 314 315 310 314 315 315 315 315 315 315 315 315 315 315 317 317 317 319 318 319 317 316 317 315 316 317 316 318 317 314 313 313 313 313 313 312
310 310 309 308 308 308 308 310 315 316 314 315 315 314 314 315 316 316 315 315 314 317 316 315 317 314 317 316 317 316 316 316 317 316 314 315 318 316 313 312 312 312 312 313 313
307 308 307 307 309 309 312 317 317 318 312 314 315 315 315 317 316 316 317 316 315 316 314 315 316 316 316 317 316 317 316 317 317 317 318 314 318 315 311 314 311 310 311 311 312
308 308 307 309 314 317 318 316 317 318 318 314 316 315 317 316 316 316 316 317 316 316 314 315 316 316 317 316 316 316 315 315 314 315 315 314 316 315 312 315 312 309 310 311 311
308 308 308 308 314 318 315 316 317 315 317 316 316 316 317 316 317 315 315 316 315 314 314 315 314 314 315 313 314 313 312 312 313 313 316 313 313 314 313 311 310 308 309 311 312
308 308 308 313 317 316 315 317 315 319 315 315 316 314 315 318 317 315 311 310 313 314 315 314 314 312 314 315 313 312 315 318 315 316 315 312 313 314 311 308 306 307 308 311 312
308 308 308 314 315 314 316 313 318 316 316 315 315 315 315 316 315 315 313 311 308 310 311 313 314 313 310 313 315 313 315 317 315 315 316 311 315 314 308 306 307 308 309 311 311
307 308 313 314 315 314 316 311 315 316 314 317 315 314 316 314 315 314 312 311 308 307 313 313 313 309 308 309 311 313 315 310 311 306 310 311 309 310 307 307 305 305 307 308 309
307 310 313 314 314 315 312 315 313 311 313 314 315 315 316 315 316 315 313 310 308 306 306 308 311 307 308 309 308 311 309 313 310 314 311 310 310 314 309 308 305 305 304 306 307
309 313 313 314 314 315 310 311 312 311 312 315 316 316 315 314 313 313 312 310 308 306 306 305 308 307 307 309 311 310 310 307 308 308 313 313 311 306 307 305 305 303 304 306 307
313 310 311 314 312 306 310 310 310 311 311 311 312 313 315 312 312 311 312 310 307 306 306 303 305 307 307 304 305 307 308 308 313 310 305 308 312 306 304 303 303 303 305 306 306
312 312 310 314 309 308 308 309 309 310 308 310 311 309 309 309 312 311 309 306 307 306 306 304 304 306 307 307 307 306 305 304 304 306 308 312 312 303 303 303 303 304 306 306 306
313 307 310 313 310 309 309 310 310 308 308 307 308 308 308 308 308 309 307 306 307 308 308 305 302 305 310 309 307 308 305 305 306 309 308 309 308 306 305 304 304 305 305 306 306
311 306 307 307 309 307 308 308 309 309 307 306 307 307 308 308 307 309 306 305 306 309 304 302 304 304 305 305 306 307 307 304 306 305 309 308 305 306 304 304 304 305 305 306 306
311 309 307 304 306 306 307 307 307 306 307 308 306 305 305 307 307 308 306 304 305 305 303 301 306 305 307 306 306 308 307 306 305 305 304 304 306 303 304 304 305 305 305 305 305
313 311 308 302 302 305 305 307 307 304 304 305 305 303 305 305 305 306 305 305 305 304 304 304 305 307 311 304 305 310 307 307 307 305 306 308 307 304 304 304 305 305 305 304 304

GFSSW_850_thetae_066.txt.gz
Theta_e
308 308 311 317 315 310 312 315 314 313 313 314 314 313 310 309 309 312 313 320 322 323 323 322 321 323 324 330 328 329 338 339 337 333 332 323 327 321 320 323 328 329 330 335 338
308 307 309 313 316 313 313 314 314 315 315 314 314 313 312 310 310 311 313 318 322 321 321 323 324 323 328 332 332 334 339 337 334 331 329 323 324 323 323 324 328 326 326 333 340
311 309 308 310 314 316 313 315 315 316 315 314 314 314 312 312 313 313 313 318 322 319 323 326 322 323 328 331 330 333 338 333 328 327 326 324 323 323 324 326 325 325 327 332 335
311 312 310 312 315 315 315 315 316 316 316 315 315 314 313 313 314 318 319 319 323 321 323 328 325 326 329 331 329 333 328 328 326 325 324 325 324 323 324 325 322 324 327 331 334
312 312 312 314 314 315 316 316 316 316 316 315 315 314 313 314 313 317 317 320 322 321 322 328 328 327 330 328 327 330 327 325 323 322 324 323 324 325 323 321 320 324 327 330 332
311 312 312 315 315 314 316 316 316 316 315 314 314 314 314 314 312 316 313 317 321 323 321 326 329 325 326 325 325 325 326 324 323 323 322 324 323 321 322 319 322 324 326 328 329
311 312 312 314 315 314 315 315 315 315 314 313 313 312 314 314 316 314 313 314 315 320 321 323 324 325 323 325 321 322 325 324 323 323 323 322 324 324 321 320 322 325 325 325 325
311 311 312 312 314 314 313 314 314 314 313 313 312 311 314 311 312 315 313 314 316 317 319 326 326 324 323 320 319 323 325 329 323 322 320 321 333 322 318 320 321 322 324 323 321
309 310 311 311 314 314 313 313 313 313 312 311 310 312 313 315 316 316 313 315 317 319 319 324 326 324 320 324 324 322 336 333 328 321 322 321 330 321 318 319 321 321 321 321 320
311 311 309 312 313 313 312 312 312 311 309 308 311 317 315 316 315 313 314 316 318 319 319 321 324 330 326 326 334 327 325 326 331 322 321 322 323 322 318 318 320 320 319 319 318
312 312 312 312 312 312 312 311 310 313 309 312 315 316 317 316 313 314 315 316 318 320 323 320 331 335 332 329 328 328 326 326 320 318 321 322 322 322 321 319 319 319 319 317 317
311 311 312 312 312 311 310 308 311 314 316 314 310 313 314 315 316 315 315 317 318 322 322 322 327 331 327 320 321 320 322 323 320 319 320 322 322 322 319 319 318 318 319 318 316
310 310 309 309 308 308 308 309 309 313 317 316 315 314 315 315 317 316 316 316 317 319 323 331 327 318 321 323 326 324 324 323 320 320 319 320 321 320 318 317 316 316 316 317 316
308 308 307 307 309 309 313 315 315 316 318 316 317 316 317 317 318 316 316 317 318 318 319 320 318 319 320 320 320 321 319 319 320 320 320 319 318 321 317 319 316 314 316 315 316
308 308 308 311 313 316 317 315 316 317 322 317 317 315 317 319 317 316 317 318 319 318 319 320 320 320 320 320 319 321 319 320 319 320 320 320 320 320 319 319 316 315 314 314 314
308 308 309 310 313 315 315 316 317 322 320 318 317 318 319 319 318 316 317 316 317 319 320 319 316 319 319 317 319 318 319 319 319 320 321 318 318 319 318 315 315 314 314 313 312
308 308 308 310 316 315 314 316 321 321 316 317 317 317 319 319 319 317 317 318 319 319 320 320 318 316 317 320 317 318 321 319 320 321 319 317 318 320 315 312 312 313 313 312 312
308 308 308 308 313 314 314 318 321 318 319 317 317 316 319 318 318 318 317 317 314 317 319 321 321 318 314 318 320 320 320 319 318 318 320 316 319 319 311 311 311 311 312 312 311
308 308 308 311 314 313 316 319 319 319 316 319 318 317 319 318 319 318 318 317 313 314 318 317 317 312 312 314 316 318 320 316 317 314 317 318 316 314 312 311 311 311 311 310 309
308 308 311 314 314 314 318 317 317 313 314 316 316 317 318 319 319 319 318 314 312 309 310 315 317 312 312 312 313 317 314 318 318 318 317 316 315 317 313 312 311 311 310 309 308
307 312 313 313 314 315 318 316 315 312 312 317 319 319 319 319 319 318 317 313 311 310 310 312 316 312 312 315 318 315 317 314 316 316 317 316 316 313 314 311 311 309 309 308 308
311 314 311 313 315 313 317 315 311 313 312 314 315 317 319 316 317 317 317 314 308 309 313 309 315 315 313 309 309 312 315 316 316 315 314 315 316 310 311 309 309 308 308 308 307
313 313 310 313 317 316 314 312 311 313 312 313 314 313 313 315 318 315 314 308 308 310 311 310 312 313 313 311 310 311 312 311 313 313 316 315 316 309 308 308 307 308 308 307 307
312 315 310 312 311 314 314 314 314 308 310 309 311 311 313 313 313 314 312 309 308 311 307 308 310 312 315 316 313 312 310 311 313 316 316 315 315 310 310 309 308 308 308 308 307
312 313 310 315 315 314 312 313 313 313 309 307 310 311 313 314 313 313 311 308 309 310 307 309 311 309 309 309 310 311 312 310 312 313 313 313 312 311 311 310 309 308 307 307 307
314 311 307 308 308 313 312 314 313 310 310 311 310 308 309 313 314 314 311 310 310 308 309 307 313 311 312 310 310 311 312 311 310 310 309 310 311 312 309 308 308 308 307 307 307
312 311 308 305 309 313 314 314 313 309 306 306 309 309 310 308 307 308 307 308 309 310 309 310 312 314 318 310 311 315 314 313 312 311 312 313 313 308 308 308 308 308 307 306 305

GFSSW_850_thetae_069.txt.gz
Theta_e
309 307 307 309 313 316 314 311 313 313 313 313 313 313 313 312 309 310 316 316 321 321 325 325 323 325 326 330 334 335 340 341 339 337 336 331 334 326 324 326 327 331 332 337 341
309 309 309 307 310 313 315 312 313 314 314 315 314 313 313 312 310 315 311 312 315 321 323 326 326 327 328 332 334 334 340 340 338 336 335 329 331 327 325 325 328 329 330 336 340
308 307 310 307 308 312 314 314 313 315 315 315 315 314 313 312 316 313 314 311 313 321 322 325 325 326 328 332 334 335 340 339 335 334 332 329 327 327 326 330 329 330 329 333 336
306 311 311 310 313 313 315 316 315 315 315 316 315 315 314 312 316 319 316 313 314 321 322 326 328 328 329 334 334 335 336 334 332 328 329 329 327 327 327 330 326 327 328 331 335
307 311 312 313 315 315 314 316 316 315 316 316 315 314 313 316 314 315 316 319 318 321 323 326 332 330 332 332 333 333 334 330 329 327 328 328 328 329 327 327 324 325 328 330 332
309 311 312 312 314 315 314 315 316 315 315 315 314 314 317 317 314 314 316 325 325 323 324 326 333 333 330 329 330 329 331 328 326 326 326 328 328 325 328 326 324 325 327 329 330
310 311 312 312 313 315 314 314 315 314 315 314 313 313 316 316 314 317 317 316 322 323 324 326 331 331 331 330 326 327 329 327 327 327 327 326 328 327 327 324 324 325 326 327 329
308 311 310 312 312 313 314 313 314 314 314 313 313 315 317 314 313 314 316 317 316 319 324 325 326 332 329 325 325 329 331 332 327 325 324 324 336 329 324 323 324 325 326 327 327
309 310 309 310 311 313 314 313 313 313 313 312 313 316 316 315 314 315 317 316 318 320 322 325 327 328 327 330 331 328 338 337 336 326 326 324 333 324 322 322 323 324 324 326 325
310 311 311 311 312 313 312 312 312 312 314 314 315 316 316 317 318 317 318 316 320 321 322 325 328 331 330 332 337 336 336 337 337 335 324 326 328 327 322 321 322 322 323 323 323
310 311 311 311 312 311 312 315 315 316 314 315 315 315 317 317 315 315 315 317 319 322 327 325 332 334 335 333 332 334 335 335 333 320 321 325 327 326 323 323 322 322 322 322 322
310 311 311 311 311 311 310 316 314 315 317 317 314 313 315 315 317 316 316 318 320 324 327 326 331 333 334 334 332 331 332 334 329 320 321 329 328 324 323 322 321 321 321 321 320
310 310 309 308 308 309 312 313 313 314 318 318 318 316 316 316 317 317 317 318 320 324 330 330 330 328 334 327 327 329 331 330 327 324 323 321 322 322 321 320 319 319 319 319 321
308 308 308 309 315 314 316 315 316 316 323 318 318 317 317 319 318 317 318 318 320 323 327 331 323 325 327 332 329 333 327 325 324 321 322 321 322 322 321 321 319 318 318 319 319
308 308 310 313 315 318 318 315 316 317 323 318 318 316 319 320 317 317 317 319 320 322 324 324 321 324 327 326 327 329 322 322 322 322 322 321 321 320 320 321 319 318 317 317 318
308 308 310 312 314 315 315 315 316 325 322 320 318 319 319 320 319 318 318 319 320 321 321 322 321 322 323 321 321 321 322 322 322 321 321 320 322 320 321 318 317 317 317 316 316
308 308 309 311 320 314 314 317 323 321 318 319 318 319 320 321 319 318 318 320 321 322 324 321 321 319 320 321 320 321 322 323 325 325 321 320 320 321 317 316 316 317 316 315 315
308 308 309 309 310 313 314 320 323 321 319 318 318 318 320 320 320 319 320 320 318 319 323 323 322 320 318 321 322 321 322 321 320 321 322 320 320 321 315 315 315 316 315 315 314
307 309 309 310 312 314 318 322 320 320 318 320 317 319 321 318 320 320 320 320 317 317 322 324 320 316 316 318 319 321 319 320 320 320 320 319 319 316 315 315 315 315 314 313 313
311 312 312 312 314 314 319 321 319 316 315 317 321 319 322 321 320 320 319 317 317 313 314 319 319 317 315 316 317 319 318 320 320 320 321 320 318 319 315 314 314 314 313 312 311
309 312 315 313 313 316 319 319 318 315 314 318 320 320 320 319 320 320 320 316 314 314 314 317 318 316 316 318 321 318 319 318 319 319 319 319 320 317 317 315 314 313 312 311 310
312 314 313 312 317 318 318 318 313 316 315 316 317 320 321 319 320 321 319 318 311 312 317 315 319 318 317 312 313 316 319 319 319 319 317 317 317 314 315 313 313 312 311 310 310
312 313 312 313 319 321 319 316 315 316 316 316 317 317 317 319 321 319 317 311 311 313 314 315 317 316 315 314 312 314 315 316 316 317 317 318 318 313 312 312 311 311 311 310 310
313 315 313 312 315 317 318 318 317 312 314 312 314 314 316 318 317 318 316 312 311 313 307 311 315 317 318 319 316 314 314 314 315 317 318 318 317 313 313 312 311 311 311 310 309
311 314 313 316 316 317 316 317 317 316 313 312 314 314 316 317 317 317 315 312 312 311 311 313 315 312 312 312 313 314 314 313 314 315 316 317 315 315 314 313 312 311 310 310 309
313 313 312 313 313 316 315 316 316 316 315 314 313 314 313 315 316 317 315 314 313 311 312 311 315 313 314 312 313 313 314 313 313 314 314 314 314 315 314 312 311 310 310 309 309
311 312 311 312 313 314 316 316 316 315 310 310 312 313 313 311 311 312 312 311 312 312 312 312 314 316 319 315 315 318 317 317 316 314 314 314 314 312 311 311 310 310 309 309 307

GFSSW_850_thetae_072.txt.gz
Theta_e
307 306 306 306 306 308 314 314 312 311 313 313 313 312 311 311 310 309 314 311 320 319 319 324 325 328 327 329 332 335 345 345 342 341 338 333 334 328 326 327 328 330 337 337 341
305 306 306 307 307 307 310 312 314 312 314 314 314 314 313 312 310 310 310 310 312 320 321 324 328 328 328 331 334 336 343 343 340 337 336 334 334 327 325 325 328 331 332 341 342
304 305 307 309 309 310 311 313 315 314 314 315 315 315 314 312 315 315 318 314 311 312 318 323 326 327 328 330 335 337 339 339 338 335 334 332 333 327 326 328 329 330 330 337 340
306 306 309 310 311 313 313 313 315 316 315 315 315 315 314 313 318 318 316 316 313 311 317 323 325 328 331 333 334 338 336 336 335 331 331 331 329 328 327 330 329 328 330 334 336
306 308 310 311 312 315 315 314 315 316 315 315 315 315 314 316 316 315 314 316 318 313 319 324 327 330 334 332 334 337 336 333 331 328 329 329 329 328 327 328 327 327 330 332 334
307 309 310 312 313 313 314 314 314 315 315 315 315 314 316 317 313 315 314 316 326 315 321 325 328 333 333 333 333 330 333 332 327 328 328 329 329 327 329 328 326 325 328 331 332
308 309 310 310 312 312 313 314 314 315 314 314 314 313 316 316 313 315 316 318 321 326 324 325 327 333 334 333 328 328 332 330 329 327 327 325 330 327 328 327 325 325 327 328 330
309 310 310 309 309 310 313 314 314 313 313 313 313 312 316 311 315 315 316 316 317 321 324 325 327 331 334 327 327 331 331 335 329 327 324 325 333 327 326 325 325 326 326 327 329
309 310 310 311 311 313 313 312 312 312 312 312 312 317 317 315 316 314 314 316 318 317 321 325 327 330 333 331 332 332 336 337 332 330 328 326 329 324 323 323 324 324 325 327 327
310 311 311 311 311 311 311 311 312 313 312 316 316 316 316 318 317 315 315 317 318 319 323 325 327 332 332 333 339 335 333 336 338 337 333 331 327 326 329 322 322 323 323 325 326
310 310 311 311 311 311 311 317 317 319 316 316 317 315 315 316 317 317 318 318 319 322 325 325 330 334 330 332 334 334 335 336 329 326 333 333 329 329 329 323 322 322 322 322 324
310 310 311 311 310 311 311 318 314 315 317 317 318 317 315 314 315 316 316 317 321 324 325 327 331 331 331 331 332 333 335 337 331 322 324 328 330 330 328 323 320 320 320 321 322
309 309 309 309 311 311 315 316 316 317 319 320 319 318 317 317 317 317 317 318 321 323 326 330 329 330 331 333 333 333 332 333 331 324 327 328 324 323 321 320 319 319 319 319 319
308 308 308 309 319 317 319 318 317 317 323 319 318 317 317 319 319 317 317 319 321 323 326 328 327 329 334 333 331 332 330 330 330 326 330 321 323 322 320 320 318 318 318 319 319
308 308 309 310 313 317 318 316 316 318 323 319 318 317 319 320 318 317 318 319 321 323 327 329 326 328 330 331 330 329 325 328 329 325 322 322 321 320 319 320 317 318 317 317 318
308 308 309 312 317 319 315 314 317 326 322 320 318 319 319 320 319 318 317 319 320 322 323 323 322 326 327 322 322 323 323 323 322 322 321 320 320 320 319 316 316 317 316 316 316
308 308 308 309 318 315 314 316 324 326 320 320 319 320 320 321 320 317 318 319 321 323 324 321 322 321 322 323 322 323 323 326 327 324 324 320 320 318 315 316 317 316 315 315 316
308 308 308 309 309 312 315 320 326 321 321 319 318 318 321 320 320 319 318 321 320 321 325 324 322 321 322 322 322 322 322 323 324 325 323 320 320 316 315 316 317 316 315 315 315
307 308 311 311 312 313 318 324 321 319 319 320 320 320 323 321 320 320 320 321 318 316 320 325 320 317 317 318 318 322 320 320 320 318 318 319 316 315 314 315 316 315 314 313 313
307 310 314 313 314 316 319 321 320 317 317 321 323 320 322 322 320 321 321 318 319 315 315 319 318 318 316 317 317 320 318 320 319 319 321 320 319 316 314 314 313 313 313 312 311
307 314 314 314 314 318 319 319 318 317 316 318 320 322 322 324 321 321 321 317 315 317 316 317 319 317 317 318 320 318 319 318 318 319 319 318 316 315 314 313 312 312 312 312 311
307 314 313 313 317 318 320 318 315 317 316 316 317 320 321 318 319 320 320 318 312 313 318 316 318 318 316 313 313 316 319 319 319 319 317 316 316 314 313 313 313 312 312 311 310
313 312 312 312 316 319 320 319 316 316 317 317 317 318 318 320 321 320 319 312 312 315 315 314 317 316 315 314 312 314 317 317 316 317 318 317 315 312 313 312 313 312 311 310 310
312 315 313 312 313 315 317 319 319 314 314 314 315 314 317 318 318 320 317 313 312 314 309 312 317 317 318 318 316 314 314 315 315 315 315 316 314 312 312 312 312 312 311 310 310
311 311 313 315 315 315 316 318 318 318 314 313 315 315 315 317 317 318 316 313 313 312 312 313 316 313 312 312 312 313 315 314 313 313 314 316 315 313 311 311 312 311 311 310 310
311 314 313 313 314 314 315 317 317 317 316 316 314 315 314 315 314 316 317 315 315 312 312 312 316 313 313 313 313 314 314 313 314 313 313 313 314 312 312 312 312 311 311 310 310
311 310 311 313 314 314 314 315 317 317 313 312 312 314 314 312 312 312 312 312 313 312 312 312 314 315 319 316 316 317 316 316 315 315 314 313 313 312 311 311 311 311 310 310 308

GFSSW_850_thetae_075.txt.gz
Theta_e
305 305 306 306 306 306 307 307 309 311 311 311 311 311 311 311 310 309 308 310 311 311 317 321 325 326 326 327 330 335 338 341 340 340 337 334 329 327 328 330 330 335 337 336 338
304 305 306 306 307 308 308 308 311 313 314 313 313 313 313 313 311 309 312 310 310 313 317 319 326 326 327 329 332 334 336 337 337 335 335 332 329 326 325 326 330 336 337 338 339
306 306 306 307 308 310 312 312 312 313 315 314 314 314 314 314 311 314 315 315 316 310 316 320 324 323 327 329 333 335 334 335 337 335 334 333 328 326 323 323 329 332 338 340 341
306 306 307 308 308 309 312 313 313 313 315 314 314 314 314 314 311 316 315 315 317 314 311 316 321 324 327 329 329 335 335 336 334 335 331 331 329 326 325 327 328 329 334 342 342
306 307 308 308 309 310 312 312 312 313 315 315 314 314 314 314 314 314 316 314 317 322 312 314 323 324 329 330 332 334 334 335 329 329 331 329 326 326 326 327 327 328 331 337 339
307 308 308 309 309 309 311 311 313 313 314 314 313 314 313 316 310 310 313 315 316 325 314 315 323 326 330 331 331 332 333 333 327 327 326 326 326 328 327 326 325 329 330 333 333
308 308 310 309 309 308 311 313 314 313 313 312 312 313 314 311 310 311 315 316 317 317 321 314 325 325 331 331 330 327 329 328 328 327 327 326 330 327 327 326 325 325 330 331 332
309 309 310 310 311 312 312 312 312 312 311 312 312 312 313 312 315 314 312 315 317 318 320 320 325 325 326 329 327 328 329 329 329 327 323 327 332 324 324 325 324 325 326 328 329
309 310 310 310 309 310 310 310 312 313 314 312 312 315 316 315 317 316 313 314 317 318 320 324 324 325 329 327 326 329 330 333 326 328 327 328 327 326 331 329 322 323 325 327 328
309 310 310 310 310 310 312 316 316 317 316 316 317 315 315 317 316 316 316 313 315 318 317 319 323 326 330 327 331 329 331 332 332 333 330 329 331 330 330 332 328 323 323 326 328
309 310 310 310 311 311 314 317 315 317 316 316 316 316 316 314 315 316 316 315 316 317 320 323 325 328 331 330 330 329 329 331 331 334 334 335 333 329 326 327 324 322 321 321 326
309 309 310 309 310 310 315 317 316 315 317 317 318 317 317 317 316 316 316 315 317 319 321 323 326 326 328 330 331 332 332 333 327 323 323 328 327 326 327 327 322 321 320 320 319
309 309 309 309 312 317 318 317 316 317 316 319 320 319 319 317 317 317 317 317 319 320 322 324 325 327 330 329 332 332 331 330 331 326 322 325 324 323 323 320 319 319 319 319 319
309 309 308 309 320 316 320 319 315 316 318 321 319 318 317 316 319 317 317 318 318 320 322 324 325 327 329 330 331 332 329 329 323 323 326 323 323 317 318 316 315 317 318 318 319
309 310 310 309 312 315 318 315 316 318 321 319 318 317 318 319 320 317 318 318 320 321 323 328 327 327 330 331 328 330 326 326 324 323 319 320 317 314 315 315 316 315 316 316 317
309 310 312 310 314 319 315 316 317 324 324 320 318 319 318 319 319 317 317 317 319 321 324 325 323 324 322 322 325 322 321 321 318 317 318 317 318 315 315 314 314 314 316 316 317
308 309 312 311 311 313 313 316 320 323 321 320 320 320 321 320 320 317 318 319 320 323 323 322 320 320 323 321 322 320 320 321 322 318 317 315 317 315 313 313 312 312 315 315 315
308 309 310 312 310 311 314 316 324 319 320 319 320 320 321 321 319 318 317 319 320 319 323 320 320 320 321 323 319 321 318 320 324 322 321 318 316 314 313 314 315 315 315 315 314
307 308 310 311 313 314 317 319 321 318 319 320 319 320 320 321 320 318 318 319 315 317 321 325 318 317 317 318 319 320 319 318 316 316 314 316 313 312 313 313 312 313 313 314 313
307 308 309 314 313 314 315 318 318 316 319 319 320 320 322 320 321 318 319 316 317 314 314 318 316 316 316 316 316 318 317 315 314 316 318 316 313 313 312 312 310 310 311 312 311
307 310 314 314 314 316 315 315 317 316 316 317 320 321 320 322 319 319 320 317 313 314 314 315 317 316 315 316 317 314 316 316 314 315 315 314 313 310 310 311 310 309 311 311 310
307 311 313 313 314 315 313 316 315 316 315 315 315 317 319 317 318 319 320 318 312 312 313 313 314 314 314 311 312 314 316 314 313 315 312 311 312 308 309 310 310 310 311 310 309
312 312 312 312 311 311 313 314 315 316 315 315 315 316 316 318 320 319 316 312 312 314 314 312 313 312 312 311 310 313 315 315 313 311 314 312 312 309 308 309 310 310 310 310 309
309 310 312 312 313 312 311 312 315 315 314 314 313 313 314 316 316 318 315 312 311 313 310 311 312 312 315 315 312 311 312 314 311 310 310 310 311 310 309 308 309 311 311 310 309
309 308 311 309 311 310 310 311 313 315 313 313 312 313 313 313 315 317 314 312 312 313 311 310 312 311 310 311 311 312 313 312 312 310 311 312 311 309 308 307 310 311 310 310 309
310 312 312 312 313 311 310 310 312 314 314 313 312 313 312 312 312 313 314 313 313 311 311 309 312 312 311 311 312 312 312 312 311 311 311 312 312 310 309 310 309 311 310 310 309
310 310 311 310 310 311 311 311 313 312 312 311 310 310 312 311 311 312 311 311 311 309 309 308 310 312 316 315 314 314 313 313 312 313 311 312 310 309 308 308 309 310 310 308 307

GFSSW_850_thetae_078.txt.gz
Theta_e
305 305 305 306 306 307 307 307 308 309 310 312 312 311 311 311 309 308 308 309 309 310 318 320 323 324 325 326 330 336 336 340 340 341 338 333 326 326 331 330 330 336 336 336 335
305 306 306 306 307 307 307 308 309 310 311 313 313 312 312 312 310 309 310 312 310 309 312 316 320 324 326 326 329 332 333 336 335 335 334 332 327 325 326 330 335 337 336 336 336
306 306 307 307 307 308 308 311 311 312 312 314 314 313 313 312 310 312 314 316 317 319 312 316 318 321 325 328 330 332 333 334 334 333 334 331 326 325 324 324 332 334 336 336 337
306 307 308 308 308 308 308 310 310 311 312 314 314 313 313 313 308 314 314 314 315 319 314 313 317 320 325 326 329 335 334 335 333 330 330 330 328 323 324 324 327 329 331 337 339
307 308 308 309 308 307 307 309 311 312 313 314 313 312 312 314 311 309 312 315 314 319 319 312 316 323 326 326 329 331 334 335 333 328 326 328 325 324 326 327 328 333 337 338 339
308 308 309 309 309 310 310 311 312 312 312 313 312 312 313 314 309 310 310 311 313 319 325 313 316 322 327 329 329 332 333 335 331 327 326 325 327 326 325 326 328 334 338 339 340
308 309 309 309 309 311 311 311 311 311 311 311 312 312 314 310 313 315 313 310 314 316 319 322 315 322 326 330 330 328 331 327 327 327 327 327 326 326 323 325 327 334 341 341 340
309 309 309 309 309 309 309 310 310 311 312 312 312 313 311 311 316 316 316 311 315 316 317 321 315 319 323 326 327 328 326 328 328 325 323 329 329 327 327 323 325 330 331 333 332
309 309 309 309 310 311 314 315 316 315 315 315 314 314 312 313 316 316 315 315 314 317 317 317 320 320 324 325 327 328 329 329 326 326 327 329 329 326 331 326 323 322 326 329 331
309 309 309 311 312 314 315 316 316 316 317 316 316 316 314 314 315 316 315 315 314 316 318 317 321 322 327 325 331 328 329 329 326 327 328 328 327 329 330 331 329 326 323 325 329
308 309 311 314 314 313 318 316 316 316 316 316 316 316 316 317 317 317 316 314 314 315 315 320 321 325 328 328 326 327 329 330 330 331 330 326 331 330 330 328 328 328 321 321 327
308 309 312 313 314 318 318 316 316 315 315 317 318 317 318 318 317 317 316 314 314 315 317 322 323 324 328 330 329 329 329 330 324 333 330 332 333 332 329 326 327 324 320 319 322
308 310 312 312 316 316 319 318 316 315 315 317 319 319 317 317 318 317 316 315 316 317 321 322 324 325 328 331 332 331 331 328 327 326 323 324 325 323 324 323 320 319 319 318 319
308 309 311 313 316 316 318 317 315 316 316 319 318 318 317 317 318 317 317 317 318 319 320 322 322 326 327 330 330 333 328 330 329 327 331 324 328 316 318 315 315 316 317 317 318
308 309 311 313 314 314 312 312 316 317 320 319 318 317 316 318 319 317 318 318 320 321 321 323 326 326 328 328 328 330 326 329 328 325 320 320 318 315 314 316 315 314 315 316 317
308 309 310 312 312 311 310 311 317 318 322 321 319 319 319 319 319 317 317 317 318 321 322 322 322 324 323 323 325 323 321 321 320 318 322 319 319 315 314 313 313 313 315 315 317
307 308 309 310 310 311 311 315 318 319 318 319 320 320 318 319 319 316 317 318 319 322 322 323 322 322 323 323 322 322 324 322 321 318 320 314 316 317 313 311 312 312 314 314 317
307 307 308 309 312 312 312 315 322 319 319 319 319 319 319 320 319 317 317 319 318 321 323 324 323 320 321 321 323 323 325 320 321 319 318 314 317 314 312 312 314 314 314 312 314
307 307 308 310 312 313 315 316 320 316 318 319 319 320 319 320 319 317 316 317 314 318 324 325 320 316 317 319 319 319 321 316 314 314 315 314 312 311 311 310 311 312 313 312 312
307 307 309 314 313 314 314 317 316 315 318 318 319 320 321 320 320 318 317 315 315 314 312 315 317 315 316 316 317 318 318 317 313 315 316 313 312 313 312 311 309 309 311 310 311
307 310 313 314 314 315 313 314 315 316 316 318 319 320 319 320 317 318 319 314 312 314 312 314 315 315 314 316 319 316 319 315 315 313 314 313 313 308 311 310 309 309 311 310 310
307 306 313 314 312 312 313 315 315 314 314 314 315 319 319 318 317 318 320 318 312 312 313 312 313 313 313 311 311 314 315 312 314 315 310 309 311 308 308 310 310 310 310 310 310
309 311 312 314 309 308 310 313 313 313 314 314 314 315 315 316 319 318 316 313 311 313 313 311 313 312 312 311 310 313 314 313 310 309 312 310 310 307 306 308 310 310 310 309 309
309 308 311 313 311 311 311 311 312 313 313 313 312 312 313 314 315 316 316 313 311 313 311 311 312 311 312 313 310 311 311 312 310 310 310 310 311 310 307 307 308 309 309 309 308
307 306 310 307 309 310 310 310 311 311 313 313 311 311 312 312 312 315 314 312 312 313 310 310 312 310 310 310 310 311 311 311 311 310 310 311 309 309 307 307 309 310 309 309 308
309 311 311 310 310 310 309 310 313 313 312 312 311 311 311 311 311 311 312 312 312 311 309 307 311 311 310 310 311 311 311 311 311 310 310 310 311 309 308 308 308 309 309 309 308
308 310 310 308 307 309 308 311 312 311 312 310 309 309 309 310 311 311 311 310 309 309 308 307 309 311 313 313 313 314 312 311 311 310 309 309 308 308 307 307 308 309 309 309 308

GFSSW_850_thetae_081.txt.gz
Theta_e
304 306 306 306 307 307 307 308 308 309 310 310 311 311 311 311 309 308 308 308 309 309 310 319 322 322 324 325 328 335 336 340 340 340 338 333 328 328 331 331 335 336 335 335 333
305 306 307 307 307 307 307 307 309 310 310 310 312 312 312 312 310 308 308 311 312 310 310 311 315 319 324 325 328 331 333 336 335 336 334 332 327 325 329 330 332 335 336 334 333
306 307 308 307 308 307 306 307 309 309 310 311 312 312 311 310 309 312 315 314 317 317 314 311 314 318 323 326 328 330 333 332 334 333 334 331 324 325 326 327 332 335 336 333 334
307 308 308 308 308 307 307 307 309 310 311 312 312 312 310 309 307 313 315 314 314 314 317 315 315 316 322 325 329 333 331 333 333 328 329 329 326 322 329 327 330 331 333 334 334
308 308 308 308 308 309 309 310 310 311 312 312 312 312 311 311 310 309 310 315 315 314 318 317 315 316 324 324 327 330 333 335 332 328 327 326 325 323 324 325 326 330 334 335 335
308 308 308 308 308 309 309 310 310 310 311 311 311 311 315 312 309 313 313 309 310 312 318 323 314 317 322 326 325 329 331 334 333 327 327 326 326 325 324 326 327 332 334 335 336
308 308 308 308 308 309 311 311 311 311 311 312 312 312 315 313 314 315 315 314 313 312 316 323 318 317 320 325 329 330 332 328 327 327 327 327 326 324 323 326 332 335 335 335 337
308 308 308 309 313 315 316 316 316 316 315 314 314 314 315 311 315 316 315 315 314 311 315 318 321 317 318 323 325 327 326 330 326 325 324 328 329 324 323 325 331 335 336 337 338
308 308 309 313 315 315 316 317 316 316 315 316 315 316 314 312 314 315 315 315 315 313 314 316 315 317 316 323 325 326 328 328 326 325 326 327 329 324 326 323 325 331 338 340 340
308 309 311 313 314 316 317 315 317 316 317 316 316 316 315 315 317 317 316 316 315 313 314 315 318 320 321 323 328 327 329 326 325 326 327 328 329 327 330 329 322 324 328 331 333
308 309 311 313 314 317 316 315 315 317 316 315 316 316 316 317 317 317 316 314 314 314 314 316 319 322 323 324 325 326 327 328 327 326 327 328 329 327 329 330 330 325 323 322 326
308 309 311 311 313 316 316 316 315 314 314 316 317 317 317 317 317 317 316 313 313 314 315 319 318 319 322 328 327 326 329 328 324 331 327 327 327 328 328 328 328 329 326 324 320
308 309 311 311 314 316 317 314 314 316 315 317 318 318 318 317 317 317 316 315 315 314 317 319 321 322 328 331 330 328 328 326 329 327 323 328 327 326 324 326 323 321 322 320 320
308 308 310 313 315 314 315 311 313 316 315 316 318 317 317 317 318 318 317 317 318 319 319 321 321 324 326 328 330 331 328 327 327 327 331 324 331 319 317 318 315 315 317 318 318
307 309 310 312 312 311 311 309 313 318 319 318 318 318 318 316 317 317 318 318 319 319 320 321 325 324 327 327 327 329 327 328 327 325 325 321 323 320 314 315 314 313 315 316 317
307 308 310 311 311 311 310 312 318 315 318 319 318 318 317 318 319 318 317 317 318 321 320 321 322 323 323 322 325 323 321 321 320 321 324 322 324 322 314 314 313 313 314 315 316
307 307 308 310 310 312 312 316 316 316 315 318 319 318 318 318 318 316 316 318 319 320 321 322 322 321 322 322 321 322 323 323 325 327 326 316 320 322 312 311 312 311 313 314 316
306 307 307 308 310 312 313 314 319 318 316 317 318 318 318 318 319 318 316 320 318 321 322 324 324 320 321 322 322 322 324 321 324 319 319 315 317 315 310 310 312 312 312 313 314
306 307 308 308 311 313 315 312 318 316 315 318 317 319 318 318 319 317 316 317 314 320 322 324 322 319 319 319 321 322 323 321 315 312 315 314 312 311 310 310 310 310 311 311 312
307 307 309 313 313 314 310 314 315 315 316 317 318 318 320 318 318 317 316 314 314 313 315 318 321 316 317 317 317 317 321 319 316 316 316 312 313 313 312 310 309 308 308 310 311
307 308 313 313 314 314 310 311 314 316 314 317 317 318 318 319 318 316 318 316 313 313 311 312 315 315 314 315 319 316 316 313 312 311 313 314 313 308 310 309 308 308 309 310 311
307 304 313 314 312 308 311 314 314 313 313 313 313 316 318 318 317 317 319 318 312 311 314 311 311 313 314 312 310 314 315 314 316 315 308 309 311 307 305 308 310 309 310 310 311
308 310 313 315 309 306 308 311 312 312 313 314 313 313 314 314 315 317 317 312 311 313 312 310 314 312 313 311 309 313 314 311 309 309 309 310 311 305 306 308 311 310 310 310 310
307 306 311 313 311 309 309 310 311 312 311 312 312 311 311 312 313 315 316 313 311 312 313 311 312 311 313 312 309 310 311 311 310 310 309 309 311 309 307 308 307 309 310 310 310
307 305 308 307 308 308 309 309 310 312 311 311 311 310 310 311 310 313 313 312 311 313 310 309 312 309 309 310 309 310 310 310 310 309 312 311 309 309 306 307 308 311 310 309 308
307 309 310 308 309 309 308 308 311 311 311 311 310 309 309 310 310 309 311 312 311 310 309 305 310 309 309 309 311 311 309 309 309 309 309 309 309 308 306 308 308 309 309 309 308
306 308 309 307 306 307 305 309 311 310 311 310 307 307 308 309 310 310 309 309 308 309 307 306 308 309 310 312 312 314 312 310 310 309 308 309 308 306 306 306 307 309 309 308 307

GFSSW_850_thetae_084.txt.gz
Theta_e
306 307 307 308 307 307 307 306 306 307 308 308 309 309 309 308 307 308 308 308 309 308 309 309 319 321 321 324 326 332 336 339 341 340 338 332 330 330 330 331 334 335 334 334 334
307 307 308 308 308 307 307 306 306 307 308 309 310 310 309 309 308 313 311 309 315 315 312 309 312 317 321 324 326 332 333 336 335 336 335 332 328 328 329 331 331 335 334 335 334
307 308 308 308 307 307 307 307 308 308 309 309 309 310 310 309 310 315 317 315 315 315 314 314 311 316 320 325 326 328 332 331 335 334 332 332 326 327 327 328 332 333 335 334 334
307 308 308 308 307 308 308 309 309 309 309 310 311 311 313 312 306 314 315 315 315 315 315 318 314 316 319 323 327 330 330 332 333 330 329 329 325 322 328 330 331 332 334 334 334
308 308 308 308 308 308 309 310 310 311 311 311 312 313 313 314 310 309 309 310 311 314 313 318 318 315 321 322 324 330 331 332 333 329 328 326 325 323 326 325 326 330 334 334 334
308 308 308 308 309 312 314 315 315 315 314 314 314 314 314 313 309 315 315 314 313 311 311 317 315 315 319 322 323 326 330 334 333 328 329 326 325 323 323 325 325 330 334 333 334
308 308 308 310 313 315 315 316 316 316 316 315 315 314 315 313 313 315 315 315 315 314 310 313 319 316 315 322 325 326 330 329 330 327 328 326 326 324 324 324 328 333 333 333 334
308 308 309 313 314 314 317 315 315 316 316 315 316 315 315 311 313 314 315 315 316 315 312 313 318 319 316 317 323 328 328 331 328 325 325 327 330 324 324 325 333 334 333 333 334
308 309 311 313 314 316 317 316 314 317 316 316 316 315 315 314 316 316 316 316 315 315 313 314 315 316 315 319 323 324 328 328 327 324 325 327 328 323 324 325 328 333 335 334 334
308 309 311 313 314 315 316 313 313 316 317 316 316 316 315 316 317 317 316 316 316 314 314 314 315 316 316 320 328 326 327 325 326 325 326 328 328 326 327 324 325 328 334 336 336
308 309 311 313 313 315 315 312 313 315 316 316 317 316 316 317 317 317 316 314 313 314 313 314 316 320 317 320 322 325 326 326 324 324 327 327 328 327 328 330 328 322 328 334 337
308 309 311 312 313 315 315 312 313 314 315 317 317 316 317 317 317 317 316 313 313 312 313 315 316 315 318 319 321 325 328 328 325 327 325 326 328 327 326 328 330 326 323 323 324
307 308 310 311 314 315 314 313 312 315 314 317 317 317 318 317 317 317 316 314 314 314 316 316 317 317 321 323 327 328 328 327 328 325 322 327 327 326 325 326 328 326 327 328 327
307 308 309 311 313 312 314 312 309 314 313 315 317 317 317 317 316 317 317 316 317 318 317 317 318 321 324 326 327 327 326 326 328 328 331 324 331 324 321 320 316 317 318 319 319
307 307 309 310 311 310 312 312 314 317 315 315 318 318 318 316 317 317 317 317 318 318 319 317 322 322 325 325 326 326 327 326 326 324 325 322 326 323 313 316 314 312 315 316 317
306 307 307 309 310 310 310 311 317 313 317 316 317 317 317 317 318 319 316 317 317 320 320 319 320 321 322 321 323 321 322 322 319 320 327 326 326 326 316 315 313 312 314 315 316
306 306 307 307 309 309 312 315 314 316 314 315 317 317 317 316 317 315 315 318 321 323 321 320 321 320 322 321 320 322 323 324 327 326 329 316 322 327 315 311 312 311 313 314 315
307 307 306 307 307 309 313 311 317 316 315 314 317 316 317 317 318 317 315 318 319 321 322 323 322 319 317 321 322 323 323 324 329 325 325 316 323 321 311 309 310 312 312 313 315
308 307 307 307 311 312 314 311 315 316 314 316 315 317 316 317 318 315 315 315 314 321 320 320 321 317 318 318 320 321 324 318 313 311 316 315 312 311 310 310 309 308 310 312 314
311 308 309 312 313 314 309 313 313 315 314 316 317 317 318 316 317 315 316 314 313 314 316 318 319 317 321 316 316 319 318 327 321 319 316 311 313 314 312 311 308 307 308 310 311
309 307 312 313 313 313 308 309 312 315 315 315 316 316 316 317 317 315 316 316 312 312 311 313 316 315 319 318 319 315 316 314 320 317 318 314 313 308 310 309 308 307 309 310 311
308 304 312 313 310 306 309 313 313 313 312 312 313 313 315 316 316 315 317 317 313 311 313 311 312 313 314 310 310 314 315 313 317 314 308 310 313 306 305 306 309 309 310 310 310
307 308 311 313 307 304 306 309 311 311 311 312 313 312 313 313 313 313 316 313 311 311 311 310 312 312 312 311 310 317 315 311 310 309 308 311 312 306 307 307 310 310 310 310 310
306 304 310 313 310 308 309 309 310 311 310 311 310 310 310 311 311 313 313 313 311 311 314 310 311 310 312 312 309 310 311 310 310 311 309 309 311 310 308 308 307 309 310 310 309
306 304 307 307 306 307 308 308 309 310 311 310 310 309 309 310 309 310 310 310 311 311 309 307 311 309 308 308 308 309 309 310 310 310 312 312 309 309 307 306 308 311 310 309 308
306 307 309 307 308 307 308 308 309 309 310 310 307 306 306 309 309 308 309 309 310 308 308 305 308 308 309 310 311 311 309 308 308 308 307 309 308 305 306 308 309 310 309 309 308
304 307 309 306 304 305 305 307 310 309 309 310 307 306 305 306 308 308 308 308 307 308 306 305 307 308 309 311 312 314 312 310 309 307 308 309 308 306 306 306 307 308 309 309 308

GFSSW_850_thetae_087.txt.gz
Theta_e
306 307 308 308 307 307 306 306 306 307 307 308 308 308 308 308 308 312 310 312 312 312 309 309 311 319 320 322 324 329 338 340 341 342 341 331 333 330 330 331 333 334 333 333 335
307 308 308 307 307 307 308 308 308 308 308 308 310 311 313 312 309 313 311 311 312 314 313 312 309 315 319 322 324 334 337 337 337 338 338 333 331 328 329 331 332 334 333 334 335
307 308 308 307 307 308 308 309 310 311 311 310 312 314 314 312 309 314 315 314 315 315 314 314 313 313 318 323 324 330 334 333 335 335 332 333 329 328 329 332 332 333 334 334 335
307 308 307 307 308 311 313 314 314 314 314 314 314 314 314 313 308 311 312 310 310 312 313 313 317 313 318 323 325 328 329 331 332 335 330 332 327 324 328 332 329 332 334 334 334
308 308 307 309 313 315 315 316 316 316 316 315 315 315 315 313 309 310 312 314 312 311 310 311 317 314 319 320 322 328 329 330 332 331 328 327 325 325 325 330 325 329 334 334 334
308 308 308 312 315 315 316 316 315 315 316 316 315 315 315 311 311 314 315 315 314 314 313 310 314 315 315 319 323 323 327 329 332 328 329 328 325 323 322 327 326 329 333 334 334
308 308 310 313 314 316 316 316 315 314 316 316 316 315 315 311 313 314 313 314 315 315 314 312 313 316 315 318 319 323 327 330 332 330 329 326 327 326 324 323 326 329 333 334 334
308 308 311 314 314 316 316 314 313 313 316 317 316 315 314 312 315 316 316 316 315 315 315 313 314 319 318 316 318 326 328 331 330 327 326 329 338 326 324 325 331 331 331 333 334
308 308 311 313 314 314 315 312 313 314 317 316 316 316 315 315 316 316 316 315 315 315 315 314 314 316 316 317 317 324 326 330 330 326 326 329 332 325 324 326 331 333 332 332 332
308 308 310 313 314 314 315 312 313 314 316 316 316 316 315 316 316 317 316 316 315 314 314 313 315 317 315 317 315 324 328 327 331 326 327 328 329 326 326 325 327 331 333 333 333
307 308 310 313 313 314 315 312 312 314 315 316 317 316 317 317 317 317 316 315 313 313 313 313 316 318 317 316 316 323 326 328 326 325 328 330 330 328 328 328 327 325 330 332 334
307 308 310 312 313 314 314 311 311 312 315 317 316 317 317 317 317 317 316 314 312 312 312 315 317 315 317 316 318 315 322 327 328 325 327 328 330 329 328 329 328 326 324 326 330
307 307 308 310 313 314 312 313 310 311 314 317 317 317 317 317 317 317 316 314 313 314 315 316 316 316 316 319 319 317 320 326 328 325 324 327 330 329 327 326 327 328 327 323 325
307 307 308 309 312 312 312 311 312 314 313 315 317 317 317 317 316 317 317 315 316 318 318 317 316 317 319 319 321 321 323 327 328 330 332 324 333 328 326 326 324 325 325 327 327
306 307 307 308 309 310 310 311 313 316 315 314 317 317 317 317 316 318 317 317 319 319 319 319 321 322 321 320 322 323 326 327 327 328 328 324 332 330 315 320 321 318 316 321 322
307 306 307 307 307 310 309 312 317 313 317 315 316 317 316 316 317 318 316 317 318 320 320 320 319 321 321 321 323 321 323 323 321 326 332 328 330 331 323 320 315 313 315 315 316
308 307 307 307 307 307 308 314 315 316 313 316 316 316 316 316 316 317 315 319 321 321 323 319 321 319 320 322 322 323 326 330 331 331 330 318 327 329 317 312 313 314 313 314 315
312 308 307 307 308 310 313 310 317 315 315 313 316 315 317 317 317 317 315 318 319 321 320 321 322 319 318 320 323 324 326 328 329 331 330 318 326 326 312 310 310 311 312 313 314
304 310 307 307 310 313 313 311 313 315 314 314 314 315 314 316 317 315 315 315 315 320 319 319 320 316 318 318 320 323 326 321 315 312 320 320 316 313 311 311 309 309 310 311 313
303 308 310 312 313 313 309 312 311 314 313 315 316 315 317 315 316 315 314 314 314 313 317 318 319 317 321 316 315 321 321 327 325 322 319 314 314 323 314 313 310 309 309 310 311
305 308 312 313 313 312 308 308 311 314 314 313 315 315 315 316 316 316 315 315 312 312 311 317 317 317 321 320 317 317 318 318 322 320 322 320 319 311 312 312 312 310 309 310 310
304 306 311 313 310 305 308 311 312 312 311 311 312 313 314 315 315 314 316 316 311 310 312 311 313 315 319 317 310 314 315 320 325 318 312 312 321 308 307 307 310 310 309 309 309
305 307 310 312 308 304 306 308 310 310 310 310 311 311 312 312 312 312 314 314 311 310 311 309 314 314 312 313 313 319 315 312 312 312 312 316 320 307 308 307 309 310 308 308 308
304 303 309 313 309 308 309 309 309 310 309 310 309 308 307 309 309 311 312 312 311 310 314 310 311 313 315 312 310 314 313 312 312 315 313 313 314 312 310 310 308 309 309 308 308
304 303 306 306 306 306 307 308 309 309 310 309 308 306 306 307 308 309 308 308 309 310 307 308 309 309 309 308 309 308 309 310 311 311 315 313 311 311 309 308 309 310 309 308 307
304 306 308 307 306 307 307 307 307 309 309 309 308 307 306 307 308 307 307 307 308 307 307 304 309 307 309 311 309 309 309 307 308 309 308 308 310 307 306 306 307 309 309 308 308
303 305 307 304 303 305 305 306 309 308 308 309 307 306 306 306 306 307 306 307 306 307 307 305 306 309 310 310 312 313 313 311 308 307 309 311 311 307 306 306 307 308 309 309 308

GFSSW_850_thetae_090.txt.gz
Theta_e
307 308 308 307 307 308 308 309 310 310 310 310 312 313 313 312 310 311 313 311 314 312 310 309 309 317 319 324 326 332 337 342 341 342 341 338 338 334 334 335 335 335 336 336 341
308 308 307 307 308 309 312 313 314 314 314 314 314 314 314 313 310 318 313 314 314 314 313 315 314 313 320 322 326 331 336 338 337 338 340 339 337 335 334 335 335 336 335 338 341
308 308 307 308 311 314 315 315 316 316 316 316 316 315 315 314 310 315 312 311 310 311 313 314 314 315 317 321 323 326 332 333 335 336 338 338 336 334 335 337 334 334 338 341 342
308 308 307 310 314 315 316 316 315 315 315 315 316 315 315 312 314 309 309 312 312 310 309 317 317 315 316 318 319 325 325 327 332 335 337 337 336 335 334 336 334 333 338 342 342
308 308 308 313 315 315 316 316 315 314 314 316 316 315 315 315 311 313 314 315 314 314 314 315 315 316 316 315 318 322 322 324 328 331 335 334 335 336 333 334 330 328 337 341 342
308 308 309 314 315 316 317 315 313 313 316 316 316 315 314 314 313 314 314 314 315 315 315 317 314 315 315 316 316 319 322 321 324 331 333 332 334 328 332 330 330 332 336 341 341
308 308 310 314 315 315 315 314 313 314 317 317 316 316 314 314 314 315 316 316 316 315 316 314 315 315 316 316 316 318 318 321 326 323 332 332 335 332 332 326 331 332 335 339 341
308 308 310 313 314 314 315 314 313 315 317 316 316 316 317 314 316 316 316 315 315 315 315 314 313 316 318 316 315 317 321 318 320 327 327 332 336 335 330 328 330 332 334 336 340
308 308 309 312 314 314 315 315 313 314 316 316 317 315 317 316 317 317 317 316 316 316 315 315 314 316 317 317 316 316 316 321 319 327 329 332 332 334 329 329 331 332 333 334 336
307 308 309 311 313 314 315 315 313 314 315 316 316 317 317 317 317 317 316 316 315 314 315 315 316 317 317 317 316 314 315 317 322 323 331 333 334 331 329 329 333 334 334 334 335
307 307 308 311 312 314 315 314 314 316 316 317 317 317 317 317 317 317 316 316 315 315 317 315 317 318 317 316 316 315 314 316 320 323 329 331 332 331 329 328 330 334 335 334 334
308 307 308 309 311 314 314 312 311 313 317 317 317 317 317 317 318 318 316 317 315 318 315 317 319 319 317 315 316 316 316 318 321 323 328 328 333 333 330 329 329 329 331 332 333
307 307 307 309 311 313 313 311 312 314 318 319 317 317 318 317 319 318 316 316 317 318 320 321 320 319 318 317 317 318 318 317 321 327 329 327 328 332 331 329 329 329 329 328 329
307 306 307 307 311 311 312 311 312 316 322 317 319 319 318 317 319 317 317 316 318 319 320 321 319 319 319 318 318 318 318 317 323 328 330 330 326 329 332 332 330 330 330 329 326
308 307 306 307 307 309 310 310 313 317 319 318 318 317 317 319 318 319 318 318 319 321 320 322 322 321 321 319 318 319 318 317 321 327 329 330 329 330 330 333 333 330 331 329 328
312 309 307 307 307 308 308 310 317 321 320 319 317 318 318 318 319 319 317 318 319 320 319 320 320 321 322 322 322 320 322 323 326 329 332 327 330 328 330 330 330 327 326 324 322
307 311 309 307 307 307 309 313 321 321 317 318 317 317 318 318 318 319 319 320 321 322 321 319 321 320 319 322 324 324 322 326 330 329 332 327 330 328 328 322 321 320 320 320 317
302 304 309 307 308 310 313 316 319 318 319 317 317 317 318 318 318 318 319 320 321 321 321 323 323 320 319 321 323 321 322 327 336 327 328 323 328 326 321 317 315 314 318 316 315
302 304 308 308 310 312 313 314 318 319 317 317 317 318 318 317 317 318 318 319 317 320 321 321 322 318 320 320 321 325 325 322 324 319 327 326 325 322 316 316 315 315 315 314 313
302 306 309 311 313 313 314 313 316 316 316 316 317 317 318 318 317 317 317 317 318 315 318 318 322 318 318 320 317 322 322 325 324 328 327 323 321 326 321 319 316 315 315 312 311
303 308 311 313 313 313 313 313 314 314 314 315 317 317 317 317 317 317 317 316 316 315 314 319 318 318 321 321 319 322 323 325 325 325 328 325 322 316 317 315 317 316 314 312 311
302 308 308 311 313 310 313 313 311 314 312 314 314 315 316 316 316 316 316 315 313 313 315 317 316 317 322 320 317 313 318 324 329 326 320 322 324 313 314 313 316 314 312 311 310
306 308 308 312 311 311 311 312 311 313 312 313 313 313 314 314 314 315 315 315 312 313 314 313 317 318 316 319 316 319 320 317 317 321 325 323 324 313 315 313 315 314 311 310 308
303 308 310 312 310 312 312 312 312 311 311 311 312 311 311 312 313 314 313 313 311 312 315 313 314 315 317 315 312 316 319 317 319 321 321 321 322 318 316 315 314 313 311 310 309
303 307 307 308 310 311 310 312 312 312 311 310 310 311 310 312 313 312 312 312 312 311 311 312 314 313 313 313 312 312 312 316 316 318 319 318 316 317 315 313 315 314 311 310 309
305 307 306 309 307 310 309 310 310 310 311 310 311 311 310 311 311 312 311 311 312 311 311 311 314 312 312 313 314 313 313 312 311 313 314 315 315 312 310 311 313 313 311 310 309
302 303 307 306 308 309 308 309 310 310 310 310 310 310 310 310 308 308 308 308 309 310 311 311 312 314 314 313 315 317 315 315 313 312 313 314 314 312 312 312 313 313 312 311 310

GFSSW_850_thetae_093.txt.gz
Theta_e
308 308 308 307 309 313 314 315 316 316 315 315 315 315 315 314 310 319 317 315 317 312 311 318 312 316 319 323 328 332 338 341 342 342 341 339 341 340 339 340 337 335 336 337 340
308 308 307 309 314 315 316 316 315 315 315 315 316 316 315 314 313 319 312 311 311 313 318 318 315 315 318 319 324 330 333 335 336 338 339 339 340 339 337 339 338 336 337 340 340
309 308 308 312 315 316 316 316 315 314 314 316 317 316 315 312 318 319 309 310 311 309 315 318 318 316 316 319 321 324 330 328 330 334 336 338 340 339 337 340 338 337 337 341 341
308 308 309 314 315 316 316 316 314 313 314 316 316 315 312 315 315 314 313 314 314 313 318 317 317 317 316 318 319 322 322 324 325 328 335 337 338 339 338 338 338 337 336 342 341
308 308 309 314 315 316 316 315 313 313 316 317 316 315 313 318 314 314 314 314 315 316 316 316 315 316 317 316 316 318 319 321 322 325 329 334 337 337 337 337 335 334 336 342 342
308 308 309 313 315 315 315 315 314 313 317 317 316 315 319 318 315 315 315 315 316 317 317 316 316 316 315 316 317 317 318 320 319 321 326 328 330 335 336 336 336 334 334 340 342
308 308 309 313 314 314 314 315 315 314 317 316 316 316 320 317 316 316 316 315 315 316 318 317 316 316 316 317 316 316 318 318 318 322 322 326 331 332 334 334 335 335 335 338 341
308 308 308 310 313 314 314 315 316 314 316 317 317 315 320 316 317 318 318 319 317 316 316 317 317 316 317 317 317 317 316 318 320 317 321 322 329 330 331 334 333 334 335 336 340
307 308 308 310 312 313 314 315 315 315 316 317 318 318 319 318 319 318 317 319 318 318 318 317 316 317 317 319 319 317 317 317 317 320 318 325 325 327 327 333 333 334 334 337 340
308 307 308 309 312 313 314 315 316 316 317 319 320 321 319 319 319 318 318 317 319 318 318 318 318 319 320 319 319 318 317 317 316 317 320 322 327 327 325 333 333 334 334 333 336
307 308 308 308 311 313 314 317 318 320 318 319 319 319 319 319 319 320 319 319 318 318 320 319 319 321 320 319 318 317 317 317 316 316 318 324 327 329 327 333 333 334 334 333 334
308 307 308 308 309 313 316 316 313 315 319 320 317 318 319 318 320 320 318 319 319 321 320 321 322 322 320 321 319 317 316 316 316 316 318 321 325 327 328 332 332 334 335 333 333
309 308 307 308 308 312 313 311 313 316 321 321 320 319 319 318 320 320 319 319 320 321 321 322 322 320 320 320 320 318 316 316 316 316 318 324 324 326 327 332 331 332 334 333 333
311 309 308 307 313 309 318 310 312 317 324 320 320 321 319 320 322 319 319 319 320 321 321 322 321 322 322 321 319 318 317 317 316 317 322 324 329 325 327 332 332 332 331 331 331
311 312 309 307 307 312 310 309 313 318 323 319 319 316 318 319 319 321 319 319 321 322 321 322 322 323 323 320 320 319 318 317 317 317 322 328 328 323 325 329 332 333 332 330 329
302 305 312 310 309 307 307 308 318 326 323 320 319 319 319 319 318 319 320 319 321 321 321 321 320 322 322 321 322 321 319 319 320 322 326 326 331 324 326 326 328 331 332 332 331
302 302 305 309 311 308 310 316 323 322 319 320 320 320 319 319 320 319 320 321 322 322 322 321 321 321 320 323 321 322 321 325 329 331 332 327 329 330 330 328 327 329 331 332 329
302 302 304 308 308 309 314 319 319 320 319 319 319 319 320 319 319 320 320 319 319 318 321 324 324 321 320 323 323 323 322 327 331 329 331 329 332 328 324 322 320 320 324 324 321
302 308 310 310 311 312 316 317 317 319 319 319 318 320 320 320 319 319 319 318 316 317 318 322 323 320 320 321 321 323 325 322 321 323 328 327 326 323 321 321 321 321 319 319 318
302 309 313 311 311 314 317 315 315 317 316 316 317 319 320 319 319 319 319 318 316 315 315 320 322 320 321 322 320 321 322 325 325 336 333 326 325 323 322 322 320 320 319 317 315
306 309 313 309 311 314 316 315 315 315 315 316 317 318 318 318 318 318 318 318 316 314 315 317 321 320 322 322 321 323 324 323 326 325 333 327 319 317 318 320 320 319 317 315 315
308 312 309 305 314 313 313 315 312 314 314 315 315 317 317 317 317 318 317 317 314 314 316 316 316 319 319 320 320 318 317 322 327 329 327 327 320 318 317 319 319 317 315 314 314
308 309 310 307 316 315 313 312 313 313 314 314 315 315 315 315 316 316 316 315 314 314 315 315 316 318 319 319 317 316 322 321 321 321 325 329 324 318 318 319 317 316 314 313 312
307 313 312 313 311 312 312 312 314 313 313 313 314 314 314 315 315 315 315 314 313 313 312 313 316 317 317 316 316 316 316 322 322 326 323 324 322 319 318 318 318 315 314 312 312
306 311 311 316 314 311 310 310 310 311 313 313 313 313 313 313 314 314 315 314 314 312 313 314 314 316 315 315 314 315 314 315 316 316 317 319 317 316 315 315 317 315 314 313 312
308 308 309 310 310 309 309 309 310 309 310 309 311 312 312 312 312 313 313 313 313 313 314 314 314 315 316 314 315 315 317 317 316 314 314 315 316 314 314 315 317 315 314 313 312
305 304 308 311 310 311 313 311 309 309 308 310 311 310 308 308 309 309 309 310 311 312 313 313 314 316 318 315 316 319 315 316 316 315 314 316 315 315 314 315 316 316 314 313 312

GFSSW_850_thetae_096.txt.gz
Theta_e
309 308 307 310 315 316 316 315 314 314 314 315 316 317 316 314 312 320 319 311 312 312 315 318 316 314 317 321 327 332 338 340 341 342 341 339 339 339 339 339 339 336 338 339 339
308 308 308 313 315 316 316 315 314 314 315 316 316 316 315 312 317 320 309 309 309 309 315 319 318 316 317 319 322 329 335 336 334 335 337 337 338 340 337 338 339 336 339 339 339
309 308 309 314 315 316 316 315 314 314 316 316 315 315 312 314 320 319 311 313 313 311 316 317 319 318 316 316 320 324 329 328 328 328 329 332 336 338 339 340 339 338 340 340 339
308 308 309 314 315 316 315 315 315 314 316 317 316 315 312 317 315 314 313 313 313 316 317 316 317 317 318 318 317 320 321 322 324 324 325 327 333 337 337 334 338 338 339 341 339
308 308 309 313 315 315 314 315 316 315 316 316 316 315 317 322 316 316 315 315 316 317 317 317 318 316 318 318 317 317 318 318 319 320 322 324 328 333 337 337 337 337 337 342 340
308 308 308 311 313 314 314 314 315 315 315 316 317 316 321 320 316 316 316 315 318 317 318 317 316 316 316 315 317 317 317 317 318 320 320 322 326 328 331 335 336 336 336 342 341
308 308 308 309 311 312 313 313 315 315 315 316 317 315 321 318 318 317 317 317 317 316 318 319 317 317 317 318 317 317 317 317 317 318 321 321 322 326 327 328 335 335 335 337 342
308 308 308 309 310 312 313 313 314 315 315 316 317 314 322 318 319 319 319 319 319 318 318 318 318 317 317 317 318 318 317 317 317 318 317 319 321 322 326 328 330 335 335 335 340
308 308 308 308 310 312 313 314 316 317 316 317 319 321 320 319 320 319 319 320 319 319 319 319 317 318 319 319 319 319 318 317 318 317 318 317 318 323 322 326 328 333 335 335 337
308 308 308 308 309 310 313 315 318 319 318 321 321 322 320 320 320 319 320 319 319 319 319 319 318 320 320 320 321 320 319 318 318 318 317 317 317 320 323 323 326 331 334 334 336
309 308 308 308 308 310 313 317 317 322 317 319 319 320 320 319 319 321 320 319 320 320 321 321 321 321 322 322 321 321 320 319 317 317 317 316 317 319 322 325 326 329 333 334 337
310 310 308 308 308 311 314 316 314 316 318 320 320 319 320 320 320 321 320 320 320 321 321 322 322 322 320 321 322 321 321 319 316 316 316 315 315 317 324 327 327 334 334 334 334
311 311 310 308 310 310 316 311 311 316 320 322 321 320 320 319 321 321 320 320 320 320 321 322 322 321 322 322 320 320 320 319 317 316 316 316 315 316 320 325 330 333 333 335 333
306 309 312 310 315 311 319 311 310 317 324 324 321 321 319 320 321 320 320 319 320 321 321 322 321 321 322 321 321 322 320 318 318 319 316 315 317 318 322 323 329 332 333 334 334
303 303 306 311 309 313 309 308 310 320 327 319 320 317 319 319 319 321 320 320 321 322 321 322 321 322 323 322 321 322 320 320 321 318 316 317 320 322 323 324 330 329 332 333 333
303 303 303 307 313 311 308 310 320 328 325 321 319 320 320 320 319 319 319 320 321 320 319 320 321 321 321 321 322 321 321 321 321 321 321 318 325 327 325 324 330 330 331 332 332
302 303 304 306 311 308 309 317 324 327 320 321 319 319 319 320 320 320 320 320 319 318 318 320 321 321 321 323 322 322 322 322 323 325 322 325 324 323 323 325 325 328 329 331 329
302 304 306 309 310 309 316 319 321 320 320 319 318 317 319 320 319 319 320 319 316 316 317 318 323 320 320 321 323 324 322 323 323 330 329 324 328 328 326 323 324 326 330 332 331
302 310 313 310 310 311 317 318 318 318 318 317 316 318 319 319 319 318 319 319 317 315 316 319 322 319 321 320 322 322 325 320 321 322 328 324 325 325 324 322 321 322 321 321 321
303 310 312 308 308 311 317 317 316 316 315 315 315 318 318 318 318 318 319 318 316 315 315 317 320 320 321 322 321 322 322 325 323 329 327 324 317 318 320 320 320 318 318 318 318
305 311 315 309 308 315 317 316 315 314 315 315 315 316 316 317 317 317 318 317 315 315 315 316 317 317 319 321 321 322 321 324 324 326 331 323 318 316 318 319 318 316 316 316 316
306 312 313 308 315 316 315 314 312 312 314 315 315 316 317 316 316 316 317 317 315 314 315 315 314 316 318 319 320 319 319 322 326 326 325 325 318 315 318 317 316 316 316 315 315
309 310 312 308 316 316 314 313 313 313 313 314 314 315 315 315 315 316 316 315 314 315 316 314 314 316 317 318 317 316 316 321 322 325 326 328 327 316 317 316 316 314 314 314 314
307 313 312 314 314 311 314 314 313 314 314 314 314 314 315 315 315 315 315 316 314 315 312 314 315 315 316 316 315 314 315 315 322 326 323 323 318 314 315 317 315 314 313 313 313
306 311 311 316 315 314 313 312 312 311 313 313 314 314 314 313 313 312 313 313 313 313 313 314 314 314 315 315 315 314 315 315 314 314 314 314 314 313 314 315 316 314 313 312 312
308 308 310 310 312 313 311 312 312 311 309 310 310 311 312 311 311 311 311 312 312 313 312 312 314 314 315 316 315 316 316 316 316 315 314 315 314 313 315 317 315 314 313 312 312
304 308 309 311 313 312 314 313 312 310 309 309 310 308 307 307 307 307 307 307 308 309 311 313 315 315 317 318 317 318 315 316 316 312 311 315 314 313 313 314 314 314 314 313 312

GFSSW_850_thetae_099.txt.gz
Theta_e
308 308 309 314 316 316 316 315 314 314 316 316 315 315 314 311 318 319 310 308 309 309 315 319 318 314 316 319 324 330 332 336 337 339 340 337 336 339 336 337 334 339 337 340 339
309 308 310 314 315 316 316 315 315 314 316 316 315 316 312 315 321 319 311 312 312 311 311 317 318 318 317 318 319 326 331 333 333 333 334 330 328 339 337 335 337 336 338 340 339
309 308 309 314 315 316 315 315 315 315 315 316 317 316 313 318 315 314 313 313 312 316 317 318 317 318 316 316 318 321 326 326 326 326 325 325 324 334 339 339 339 338 339 340 339
308 308 309 312 314 315 314 314 315 315 315 316 317 316 312 317 313 316 314 314 315 316 317 316 317 316 316 315 316 315 318 323 325 324 323 323 323 327 336 337 331 332 339 339 339
308 308 309 310 312 312 312 313 313 315 315 316 317 315 320 320 316 316 316 315 316 316 318 317 317 316 314 314 314 315 315 317 317 316 317 319 320 323 334 334 332 337 339 339 339
308 308 309 309 310 311 312 312 313 314 315 316 316 316 320 318 317 317 317 316 316 315 317 318 317 317 316 315 313 315 315 316 316 316 316 319 320 319 323 330 336 337 340 339 339
308 308 308 308 309 311 311 312 313 315 315 316 317 314 321 317 319 319 319 318 319 319 317 317 318 317 317 315 316 317 315 314 315 316 316 317 318 320 320 326 333 336 337 340 339
308 308 308 308 309 310 311 312 314 317 317 316 319 315 321 319 320 320 319 318 319 319 319 318 318 317 317 317 317 317 316 315 314 315 316 316 316 317 319 320 324 329 336 338 340
309 308 309 309 309 309 311 313 316 318 317 319 320 319 320 319 320 318 318 319 318 318 319 319 318 318 318 317 315 315 316 315 315 315 315 314 315 315 317 321 321 325 331 335 340
310 310 309 309 309 309 311 314 315 319 316 320 321 320 320 319 318 318 320 320 319 319 319 319 318 317 315 316 321 321 319 318 317 316 316 314 313 314 317 321 321 321 330 335 335
311 311 311 309 309 310 311 313 313 318 315 317 317 319 317 319 318 320 320 319 320 319 318 318 319 319 319 318 319 320 320 320 319 318 315 314 313 313 314 316 320 321 326 333 335
308 310 311 310 310 309 312 311 312 315 317 318 320 319 319 320 319 320 321 320 319 318 318 317 318 320 320 321 321 319 320 318 317 316 314 313 313 313 312 315 318 321 323 325 333
304 304 307 311 313 314 318 312 309 315 318 321 321 320 319 318 320 321 321 320 319 318 319 320 319 321 321 321 321 320 320 320 319 317 316 313 313 312 313 314 316 324 326 332 334
303 303 304 308 311 311 317 309 308 317 320 323 320 321 319 319 320 319 320 319 319 319 319 319 320 321 321 322 321 322 320 321 320 319 318 314 314 312 312 314 316 324 328 333 333
303 303 304 306 311 310 310 309 313 321 321 319 320 318 319 319 319 319 320 319 319 320 319 316 320 321 323 321 320 322 321 320 321 320 318 317 314 312 314 318 319 320 330 332 333
303 304 305 307 311 310 309 311 320 323 322 320 319 319 317 318 319 319 320 320 320 320 315 314 319 321 321 320 321 321 322 321 319 320 319 317 317 316 322 322 321 322 329 332 332
304 304 307 308 309 309 310 318 317 323 318 319 318 316 316 316 318 318 317 315 313 313 312 314 320 319 319 320 321 323 321 321 318 321 322 322 321 318 322 323 323 323 325 331 332
304 305 311 308 309 310 316 314 317 320 318 317 315 314 316 318 318 316 315 314 312 312 312 314 318 318 317 319 321 322 321 322 320 325 326 319 322 325 321 322 323 325 326 328 328
305 305 312 309 308 309 317 313 316 317 316 315 314 315 316 316 315 315 314 316 313 311 313 314 319 317 316 320 320 321 326 318 318 319 324 322 322 323 322 323 321 322 320 321 325
305 309 312 313 308 308 313 315 315 315 314 314 314 315 314 314 315 313 315 315 314 313 312 313 316 314 318 319 320 321 321 325 321 328 321 319 317 319 324 323 319 318 321 322 322
305 310 314 311 311 315 312 313 314 312 314 314 314 314 314 315 313 314 315 315 314 313 313 311 311 311 314 318 319 318 319 324 324 323 328 322 317 317 316 316 315 313 316 320 319
305 309 313 311 313 313 309 313 312 312 313 314 314 314 315 314 313 313 314 315 314 313 314 313 311 311 313 314 317 316 316 322 324 326 324 323 318 312 314 313 314 314 315 316 317
305 309 311 309 311 309 309 313 312 313 313 313 313 314 313 314 313 313 313 314 312 313 313 311 311 312 312 311 312 312 313 314 321 322 322 319 320 313 313 312 313 313 314 314 314
307 308 311 312 313 309 312 312 311 313 313 313 313 313 313 313 312 311 310 312 312 312 313 312 312 312 313 312 311 312 312 312 317 313 315 320 313 311 314 313 312 313 313 313 313
305 307 312 311 312 311 311 311 311 310 313 312 312 312 311 311 310 310 308 308 310 312 311 309 310 311 311 312 312 312 314 315 314 312 312 311 312 312 312 313 312 312 313 313 312
306 307 309 309 311 312 310 310 311 310 309 308 307 309 307 306 307 306 306 307 308 308 307 307 311 311 312 314 314 313 313 314 314 311 311 313 312 310 313 313 312 312 312 312 311
302 308 311 311 311 309 310 310 309 309 309 309 309 307 305 305 307 306 306 306 306 304 304 306 309 310 312 312 314 315 313 313 310 310 309 311 313 311 309 310 310 312 312 311 311

GFSSW_850_thetae_102.txt.gz
Theta_e
308 308 311 315 315 316 315 315 315 315 315 316 316 315 313 315 318 312 311 311 311 310 311 318 316 315 315 317 322 329 330 333 335 338 338 335 332 339 338 336 337 337 337 337 340
308 308 310 313 315 315 314 314 315 315 315 316 317 316 316 319 315 314 313 313 312 316 316 316 317 317 316 317 316 323 328 331 331 331 332 327 325 329 336 335 336 336 337 336 339
308 308 309 311 313 314 313 313 313 315 315 316 316 315 316 318 314 316 314 314 314 316 316 316 316 316 317 315 316 317 325 326 326 326 327 324 323 324 336 337 336 337 337 335 339
308 309 309 309 311 311 311 312 312 314 315 315 316 315 315 316 313 316 316 315 315 317 317 316 316 316 315 314 315 314 315 315 318 320 324 323 320 328 335 335 336 336 338 334 333
308 309 309 309 309 310 311 311 312 313 315 316 316 316 319 317 317 317 317 316 315 315 317 318 317 316 314 313 313 313 314 315 315 315 316 316 317 319 330 332 333 337 339 338 337
309 309 309 309 309 310 311 311 312 315 315 316 317 317 318 316 319 319 319 318 318 319 318 317 318 318 316 315 313 314 315 315 315 315 315 316 317 319 322 325 333 334 339 339 338
309 309 309 309 309 309 310 311 313 316 316 316 318 314 319 318 319 319 318 318 318 319 319 319 316 317 316 315 316 316 315 314 315 315 314 315 315 316 319 321 331 334 337 339 339
310 310 309 309 309 310 310 311 313 317 317 317 319 317 320 319 320 318 318 319 318 318 318 319 319 318 316 317 317 316 315 315 314 314 315 315 313 314 316 318 329 334 337 338 337
310 311 311 310 310 310 311 311 315 317 316 319 319 319 319 319 319 318 319 320 319 319 319 319 319 317 318 316 315 315 315 315 315 316 315 314 314 313 315 315 317 319 333 338 338
309 310 311 311 310 310 311 312 313 318 315 320 319 317 317 317 318 320 320 320 319 319 319 319 318 315 314 315 320 319 319 318 318 316 316 315 313 312 314 314 315 317 320 330 336
306 306 308 310 311 310 311 312 312 315 314 317 317 317 316 318 319 320 321 320 319 319 318 317 317 318 317 317 317 318 318 318 318 318 316 316 315 312 313 313 313 314 316 320 328
305 305 305 309 312 311 312 309 310 313 316 320 317 318 318 318 318 319 320 319 318 318 316 316 318 317 319 320 320 319 319 319 317 316 317 316 315 312 311 312 313 314 315 318 321
305 306 307 309 312 310 312 308 308 314 317 320 321 320 318 318 319 319 320 319 318 317 317 318 318 319 320 320 321 320 320 319 320 319 316 314 316 313 311 312 313 314 315 318 323
305 306 307 310 310 311 310 309 310 316 318 322 319 320 319 318 319 319 320 319 318 319 318 316 319 320 321 322 321 321 320 321 322 322 321 314 318 314 311 310 311 318 321 324 325
305 305 307 309 310 310 309 309 316 321 320 318 319 318 318 318 318 319 320 319 319 318 315 312 315 319 322 321 320 321 321 322 321 321 319 319 317 313 313 316 319 317 322 323 334
306 306 309 309 309 309 310 314 320 317 320 319 318 316 314 316 318 318 315 317 318 315 313 312 315 320 319 319 319 320 322 320 319 319 320 320 316 314 320 320 320 321 322 324 330
306 306 310 309 310 309 313 318 313 318 316 317 316 313 314 315 317 315 313 311 311 311 310 311 313 317 318 318 318 321 321 321 317 322 323 319 320 315 320 320 320 321 323 326 329
306 307 311 309 310 308 314 311 316 318 317 315 314 313 316 315 314 314 314 313 311 311 311 313 314 317 315 316 319 321 322 323 321 324 322 320 322 323 317 319 321 320 323 327 332
305 308 311 313 311 309 315 311 314 316 314 314 313 313 313 313 314 312 312 314 312 311 312 313 314 314 314 315 319 321 323 318 319 319 319 322 322 319 322 321 321 321 321 323 329
304 309 312 313 311 312 310 313 314 314 313 313 313 313 313 312 313 311 313 313 313 313 311 312 313 313 313 316 318 320 318 324 322 324 318 320 318 319 325 322 321 322 323 321 324
304 309 313 312 311 315 310 311 313 312 313 313 313 313 313 313 312 312 313 314 313 312 312 310 310 310 311 313 316 313 316 323 320 323 325 319 317 315 315 316 315 318 322 321 320
304 307 312 311 311 310 310 311 312 312 312 312 313 313 313 313 312 313 313 313 312 312 312 312 309 310 311 311 311 311 314 320 321 323 323 321 318 311 312 312 313 313 314 315 318
305 309 311 310 310 310 308 312 312 312 312 312 312 312 312 312 313 312 311 312 310 310 312 311 309 310 310 309 309 311 310 315 319 318 320 317 319 312 311 311 313 313 314 315 317
305 305 311 310 311 308 310 311 311 312 312 312 312 312 311 312 311 311 310 309 308 309 312 311 310 310 310 310 310 311 312 311 316 309 310 315 313 311 312 311 311 313 313 313 312
303 307 310 309 310 309 310 311 310 310 312 312 310 310 309 310 308 309 307 305 306 310 309 307 308 309 309 310 310 311 311 312 312 311 309 310 312 310 312 311 311 313 312 312 310
303 305 309 308 311 309 309 309 309 310 308 307 307 308 305 306 306 305 305 305 305 306 305 302 306 308 310 312 312 313 312 312 310 308 310 311 312 310 311 311 311 312 312 311 310
301 307 310 308 308 309 309 310 310 308 309 309 308 306 305 305 306 306 306 305 305 305 303 303 306 309 310 310 312 314 312 311 308 310 309 311 312 309 308 308 310 311 311 310 309

GFSSW_850_thetae_105.txt.gz
Theta_e
309 308 311 313 314 315 314 313 314 315 314 315 316 314 316 315 314 314 314 313 313 315 315 317 316 316 314 317 321 328 330 331 334 337 337 331 329 336 332 338 337 337 338 340 341
309 308 309 311 313 313 313 312 312 314 315 315 316 313 317 318 315 315 314 314 313 315 315 316 316 316 315 316 316 322 327 329 329 330 331 328 325 323 330 334 336 336 337 337 340
308 308 309 309 311 311 311 311 311 313 315 315 316 315 316 316 315 316 316 314 315 315 316 315 316 315 316 314 314 316 322 325 323 322 322 324 322 321 332 335 335 336 336 337 340
309 309 309 309 309 309 310 311 311 312 315 316 316 319 318 316 315 316 317 316 315 315 316 316 315 315 313 313 314 313 314 314 314 316 317 320 317 319 328 325 319 331 335 337 339
309 309 309 309 309 309 310 311 311 313 315 316 316 317 318 318 318 319 318 317 317 318 318 317 316 316 314 313 313 311 312 315 315 315 315 315 315 316 317 318 320 332 336 337 338
309 309 309 309 309 309 310 310 311 315 316 316 316 318 318 317 319 318 318 318 318 318 318 318 316 317 316 315 313 314 314 315 315 315 314 314 314 316 319 319 324 333 337 337 339
310 310 310 310 310 310 310 310 312 315 316 317 317 315 319 319 319 318 318 319 318 318 318 319 319 317 317 315 315 316 315 314 314 314 313 314 313 314 315 316 318 331 336 338 335
310 310 311 310 310 310 310 311 312 316 316 317 318 318 318 318 318 318 319 319 319 319 319 319 319 318 317 317 317 315 313 315 315 314 316 314 314 313 316 315 315 322 334 338 338
308 309 309 310 310 310 310 311 313 316 316 319 317 318 317 317 318 319 320 320 319 319 319 319 319 317 317 315 315 314 317 316 316 315 315 315 314 313 317 314 314 314 315 331 338
305 306 307 309 311 311 311 312 314 317 315 320 317 316 316 317 318 319 319 320 319 318 318 318 318 314 313 314 320 318 318 317 317 317 316 316 314 312 315 313 313 313 314 316 335
305 305 306 308 311 311 310 311 312 315 315 316 316 316 316 318 318 319 320 320 319 318 317 316 316 317 316 316 316 317 318 318 317 316 317 316 315 313 313 313 311 313 314 314 316
306 306 308 310 311 310 310 310 310 312 314 319 316 317 318 318 318 318 319 319 318 317 316 314 316 316 317 319 319 319 319 319 317 316 317 316 316 313 311 311 314 313 313 314 314
306 307 308 311 310 309 309 309 309 314 316 319 320 319 318 318 318 318 319 319 317 317 316 317 316 317 320 320 320 320 319 319 319 319 317 315 316 314 312 311 312 312 314 320 319
306 308 310 311 310 309 309 309 313 318 315 318 319 319 319 318 318 318 320 319 317 318 317 314 316 316 319 320 320 320 319 321 322 323 325 318 322 317 314 311 311 319 320 322 323
307 308 311 311 310 309 309 311 319 321 318 317 319 317 313 318 317 318 317 319 318 318 316 311 312 315 320 319 319 319 319 321 320 320 321 319 321 314 312 319 320 319 321 323 323
306 309 311 311 311 310 311 317 320 314 318 318 317 313 313 314 316 315 314 315 316 311 311 311 312 317 318 317 317 318 321 318 316 316 319 320 321 314 320 321 320 320 320 324 324
305 308 311 310 312 309 311 318 312 316 315 317 314 312 312 314 314 314 311 310 310 310 310 309 312 312 317 315 315 319 320 320 314 316 322 318 320 315 316 318 320 319 322 327 328
305 308 310 311 313 311 313 309 315 317 316 315 313 312 315 313 313 312 313 311 311 310 309 311 311 313 314 314 315 320 319 324 319 320 320 319 322 322 319 319 322 321 322 325 330
305 306 311 313 312 311 314 311 312 315 314 313 311 312 312 312 312 311 312 312 311 311 311 311 312 311 313 312 317 318 319 317 318 319 317 320 321 319 320 321 322 322 320 323 326
304 306 311 313 312 314 310 312 313 313 313 312 312 313 311 311 312 310 312 313 312 312 310 311 311 310 311 314 315 319 315 321 319 323 322 318 316 319 317 320 318 323 319 321 324
303 307 312 313 312 314 310 310 312 312 313 312 312 312 312 313 311 311 312 312 311 311 311 310 309 309 309 312 312 310 311 320 318 322 324 319 317 313 313 314 314 317 317 319 321
303 306 312 311 311 309 309 310 312 311 312 311 312 312 312 312 311 312 312 311 311 311 311 310 307 309 309 309 309 310 311 316 317 316 321 321 316 310 309 311 313 313 318 319 322
304 307 312 311 309 309 309 311 311 311 311 311 312 312 311 312 312 311 311 310 308 308 308 309 307 307 307 308 308 310 310 310 317 313 317 314 315 311 310 310 312 312 312 316 319
303 304 311 310 310 309 309 311 311 311 312 312 311 311 311 311 310 310 309 309 306 310 312 310 308 306 306 307 309 310 310 310 311 308 307 311 311 309 311 311 311 311 311 311 311
302 305 309 308 310 307 309 310 310 310 311 311 309 310 308 308 309 308 307 305 305 307 307 305 307 307 308 308 309 309 310 310 310 310 309 310 312 311 309 311 311 311 311 310 309
302 304 308 309 310 308 308 309 309 309 307 307 306 306 305 306 306 306 305 304 303 305 303 301 300 307 308 310 310 311 310 311 308 308 310 311 312 309 310 311 311 311 311 310 309
300 303 309 306 306 308 308 308 309 309 308 308 306 306 304 304 306 306 306 305 304 304 302 302 302 307 308 308 310 313 310 310 309 310 309 311 310 309 309 309 310 311 310 310 309

GFSSW_850_thetae_108.txt.gz
Theta_e
309 309 310 312 313 313 313 312 312 313 314 315 315 315 315 315 315 315 314 314 313 314 314 316 316 315 313 317 321 328 327 328 333 335 335 329 327 331 326 329 336 337 338 337 340
309 309 308 309 310 311 311 311 311 312 314 315 315 315 316 316 315 316 315 314 315 315 314 315 315 315 315 315 316 321 325 327 328 329 329 327 325 323 322 323 330 335 337 337 341
309 309 309 309 309 309 310 310 311 311 315 315 317 315 316 316 315 316 317 316 315 315 316 315 315 315 315 313 313 316 320 322 319 318 318 320 319 319 325 328 323 330 335 336 340
309 309 309 309 309 309 310 311 311 312 315 316 317 317 318 316 315 318 318 317 317 317 317 316 315 315 312 312 313 312 313 313 314 315 314 316 315 318 320 319 317 318 326 335 338
309 309 309 309 309 309 310 310 310 312 315 316 317 318 318 318 318 318 318 318 318 318 317 317 316 316 314 313 313 311 311 313 315 315 314 314 314 314 316 316 316 317 322 333 336
310 310 310 310 309 309 310 310 311 313 316 316 316 318 318 317 318 317 319 319 318 318 318 318 318 317 315 314 314 313 313 314 315 316 314 313 313 314 316 317 316 317 321 336 336
310 310 310 310 310 310 310 310 311 314 316 317 315 316 318 318 318 318 319 319 319 319 319 318 318 318 317 315 315 316 315 313 314 314 314 313 313 312 314 315 315 318 330 337 336
309 309 309 310 310 310 310 310 311 316 316 317 317 317 317 317 318 319 319 319 319 318 318 319 319 318 316 316 315 315 313 316 316 314 316 314 316 314 316 315 316 314 314 334 337
306 306 307 309 311 310 311 311 313 316 316 318 317 317 316 317 318 319 319 319 319 318 318 319 318 317 316 314 314 314 318 317 316 314 315 314 315 313 318 317 314 315 314 315 334
305 306 307 310 311 310 310 312 315 317 315 318 315 315 317 317 318 318 319 319 319 318 318 318 317 313 312 314 320 318 317 317 316 316 316 315 315 313 316 315 313 315 314 313 314
305 306 308 311 310 310 310 311 312 314 315 316 316 316 317 318 318 318 318 319 319 317 315 315 315 316 315 316 315 316 317 317 317 316 316 316 315 314 315 314 312 313 314 315 314
306 306 308 311 310 309 310 310 310 312 313 317 316 317 318 318 318 318 319 319 318 316 315 313 315 315 316 318 319 318 318 318 317 317 316 317 317 316 314 313 314 314 313 312 313
307 307 309 311 311 310 309 310 311 316 316 319 319 319 318 318 318 318 319 319 317 316 316 316 315 316 316 318 319 318 318 318 319 319 318 319 317 314 313 311 311 316 317 320 318
307 308 311 311 311 310 309 313 314 319 312 315 319 318 318 316 317 318 318 318 317 317 315 313 313 313 316 318 318 318 317 319 321 319 321 319 319 316 314 312 316 317 320 321 322
306 308 310 311 312 311 311 316 319 320 316 316 318 317 313 316 316 315 315 318 317 314 315 310 311 312 318 317 317 317 316 319 318 319 316 319 318 312 314 318 318 317 319 321 323
305 307 310 311 312 310 311 318 321 313 318 316 315 311 313 314 315 315 314 313 314 310 310 311 311 313 318 316 316 317 319 315 313 313 318 321 317 314 319 319 318 319 319 322 326
305 306 307 310 312 311 312 318 311 315 314 316 313 311 311 312 313 311 311 309 310 309 307 308 310 310 315 313 312 318 317 317 315 314 315 319 321 319 319 320 322 321 322 323 328
304 305 308 311 313 312 314 309 315 316 315 313 311 311 313 311 312 310 312 310 310 309 307 309 309 311 311 313 313 319 317 318 323 321 319 317 320 321 317 317 320 321 320 323 325
304 304 307 311 313 313 313 311 312 313 314 312 310 311 311 310 311 309 312 311 311 310 311 310 309 309 311 311 315 316 317 317 318 313 318 312 318 319 316 315 317 320 319 320 322
303 304 306 311 312 314 309 312 313 312 311 311 311 312 311 310 311 309 311 312 311 311 309 310 310 309 309 312 312 317 315 318 315 316 320 317 314 317 316 316 317 319 316 317 322
302 304 310 312 311 314 310 310 311 312 312 310 310 311 311 312 311 310 311 311 310 310 310 309 308 307 308 310 310 309 309 315 316 318 318 321 316 313 313 314 317 317 316 315 319
302 302 311 313 310 307 309 310 312 310 311 311 311 311 311 311 311 311 311 311 309 309 307 309 305 308 308 308 308 310 309 313 315 316 317 317 319 310 309 311 313 313 315 314 317
302 305 312 310 307 308 309 310 311 310 310 310 311 311 310 311 311 310 310 309 307 306 306 308 306 305 304 307 307 309 309 309 313 311 314 310 310 308 309 310 311 311 311 312 313
303 302 310 311 308 308 308 310 311 310 311 310 310 310 310 310 309 310 309 308 306 310 310 309 306 305 303 305 307 308 308 309 309 307 306 309 309 309 308 310 310 310 310 310 312
301 303 307 308 308 306 307 309 309 310 310 311 310 309 308 307 308 308 307 305 305 306 304 302 304 306 306 306 306 307 308 309 309 308 308 308 309 312 309 310 310 310 309 310 310
301 302 306 308 309 306 308 308 309 309 309 310 307 307 305 306 307 309 305 304 303 304 302 299 300 304 305 308 308 309 309 309 308 307 308 310 310 309 309 310 311 310 309 309 309
304 301 307 306 306 307 307 308 309 309 308 308 307 305 304 305 308 308 306 305 304 303 301 301 301 306 306 306 308 311 310 310 307 308 307 310 309 309 310 309 310 310 310 309 309

GFSSW_850_thetae_114.txt.gz
Theta_e
308 308 308 309 309 310 310 310 310 311 314 315 314 315 314 315 317 316 315 315 316 316 315 314 315 313 314 321 325 329 325 324 325 326 326 328 331 331 330 331 328 331 336 339 343
309 308 309 309 309 309 309 309 310 311 314 315 315 316 316 315 317 318 317 316 317 317 316 315 316 316 316 317 319 323 324 321 323 323 324 324 326 326 326 329 329 329 333 338 343
308 309 309 309 309 309 309 310 310 311 314 315 317 317 315 315 317 318 317 317 317 317 316 316 316 316 317 315 315 319 319 318 319 320 321 321 321 320 322 324 324 327 326 338 341
309 309 309 309 309 309 309 310 310 311 315 316 317 317 317 315 318 318 318 318 318 318 318 318 319 318 318 318 315 317 316 317 317 316 316 316 315 315 315 316 318 320 319 325 337
309 310 310 310 310 310 310 310 310 311 315 316 317 317 317 318 318 318 318 318 318 318 318 319 320 319 320 319 318 317 318 317 317 317 318 318 319 319 317 316 315 315 318 323 331
309 309 309 309 309 310 310 310 310 311 315 316 317 317 317 318 317 318 318 318 318 318 318 319 319 319 319 319 319 318 319 319 319 319 319 319 319 316 317 316 316 316 316 318 321
307 306 306 307 310 310 311 310 311 313 315 316 317 317 318 318 317 318 318 319 319 318 319 318 319 319 319 320 318 319 320 320 320 319 320 316 319 319 317 317 317 317 318 317 323
306 306 307 310 311 310 310 311 312 315 316 317 316 316 318 317 318 318 318 319 319 318 318 318 318 318 319 319 319 320 320 323 321 320 319 318 321 320 319 318 319 319 318 318 316
306 306 308 312 311 310 310 312 314 315 316 316 317 316 318 317 317 318 318 318 319 318 318 317 318 319 319 321 322 322 323 322 322 320 320 320 322 321 320 320 320 319 319 318 318
306 306 309 312 312 310 310 314 313 315 317 315 317 317 317 317 317 318 318 318 319 318 318 318 319 321 320 320 321 321 322 321 322 321 320 321 322 321 320 319 320 320 319 318 318
306 307 309 312 312 310 310 316 316 314 316 316 317 316 316 317 317 317 317 318 318 319 318 318 320 319 319 319 319 320 321 321 321 320 321 321 321 320 319 317 316 318 319 318 317
307 308 310 312 312 311 310 310 311 313 318 316 316 317 317 315 318 318 316 318 319 319 318 318 319 318 317 318 319 319 320 321 321 321 321 320 320 318 320 320 319 320 320 320 320
307 309 311 312 313 312 312 311 311 314 318 318 318 319 317 315 318 319 316 317 319 319 317 317 317 315 316 318 318 318 319 320 322 321 321 320 320 320 320 319 318 319 321 321 321
305 308 311 312 313 312 312 315 314 316 319 318 319 318 316 313 318 315 313 316 318 318 317 316 314 314 316 317 317 319 318 320 322 321 322 319 323 319 319 320 319 319 319 322 323
305 306 309 312 313 312 312 318 318 317 324 318 318 315 315 317 316 316 314 316 318 317 316 314 314 314 317 316 317 318 320 322 321 321 322 321 322 320 319 318 318 318 319 321 323
304 305 306 309 312 313 312 319 320 321 323 319 316 314 316 315 315 314 314 313 312 313 313 313 311 314 317 315 316 318 322 320 319 321 324 321 320 320 319 317 316 317 319 319 323
303 304 305 307 311 313 313 319 320 321 317 319 316 313 314 315 315 314 315 315 315 315 315 314 313 313 314 316 317 319 323 330 326 328 325 320 321 319 317 316 317 321 318 318 320
303 303 304 305 310 313 314 316 320 318 318 315 313 314 316 314 314 314 316 316 314 313 314 315 314 313 313 315 316 319 322 327 331 325 327 322 326 321 315 317 321 320 318 316 317
303 303 303 304 309 312 314 320 320 318 317 315 313 315 315 313 314 314 315 315 314 313 313 315 314 312 312 314 317 317 320 321 323 321 324 323 318 318 317 319 319 319 316 314 315
303 303 303 305 310 312 317 317 317 315 313 313 315 314 315 314 315 314 314 313 314 312 311 313 314 312 311 315 315 317 317 321 324 327 324 318 317 320 321 319 318 319 316 313 313
303 303 303 305 311 313 317 317 315 313 312 313 314 314 314 316 315 314 314 313 312 311 310 312 312 312 311 312 314 315 316 317 321 322 323 320 318 315 317 317 317 316 316 312 312
303 304 305 310 312 312 316 315 313 313 311 312 312 313 315 315 314 314 314 314 310 309 310 311 312 311 311 310 310 313 314 314 318 319 322 321 318 315 315 315 314 314 314 312 314
303 303 309 311 312 314 313 312 313 312 313 313 313 313 313 315 315 314 314 310 308 309 310 312 312 312 312 313 311 311 311 311 314 318 318 319 317 313 314 315 313 313 314 310 311
304 306 310 310 309 312 314 313 313 310 312 311 312 312 312 312 313 314 313 311 308 310 312 310 312 312 313 311 309 309 310 309 311 316 314 314 314 315 315 316 314 312 312 311 311
305 306 308 311 311 311 313 314 313 312 311 310 311 312 312 313 312 313 313 311 306 308 308 311 311 309 309 309 308 308 308 309 311 315 314 312 312 314 315 316 314 313 312 312 311
307 304 303 309 308 310 311 313 313 312 312 312 312 312 311 313 313 313 312 311 312 307 308 305 308 307 310 309 310 311 312 313 313 313 313 312 311 313 313 313 313 313 313 312 309
311 306 305 307 309 310 310 312 313 312 311 312 313 312 311 312 311 310 310 309 309 308 308 307 309 309 312 310 312 315 315 314 314 313 311 311 314 315 314 313 313 312 312 311 310

GFSSW_850_thetae_117.txt.gz
Theta_e
308 308 308 309 309 309 309 309 310 310 314 315 315 314 314 317 319 319 318 317 317 317 318 318 318 316 317 321 323 325 327 325 324 324 325 325 328 328 330 331 331 332 336 339 345
308 308 309 309 309 309 309 310 310 311 314 315 315 316 316 315 320 319 317 318 317 317 320 319 319 318 318 318 320 324 325 324 323 324 323 323 324 326 328 328 328 328 331 337 344
309 308 309 309 309 309 309 310 310 311 314 315 316 317 315 314 321 319 318 318 318 319 320 319 319 318 319 317 318 319 322 320 318 318 319 320 321 321 321 323 323 327 329 334 339
309 309 309 310 310 310 310 310 310 311 314 316 317 317 315 315 321 318 318 318 318 318 320 320 321 321 321 322 319 319 319 318 319 319 319 318 317 318 317 317 318 319 322 326 329
309 309 309 309 309 310 310 310 310 311 315 316 317 317 318 322 319 317 318 318 319 320 320 320 321 321 323 321 321 321 321 320 320 320 320 320 320 320 319 318 317 316 316 317 321
308 307 306 307 309 311 310 310 310 311 315 316 317 317 320 320 317 318 318 319 319 320 320 320 320 320 321 321 321 321 320 321 321 320 320 321 321 320 320 318 317 317 316 316 320
305 305 306 309 311 311 310 310 310 311 315 316 317 317 321 320 318 319 319 319 319 320 320 320 320 321 320 322 321 320 322 323 321 321 321 320 320 321 320 319 319 318 317 317 317
305 306 307 312 312 310 310 311 311 315 316 316 316 316 320 317 319 319 319 320 320 320 320 320 320 320 321 321 322 323 323 325 323 322 321 320 324 322 321 320 320 320 320 319 319
305 306 307 312 311 310 310 312 314 315 316 316 317 320 320 318 319 318 319 320 320 320 320 319 320 321 321 322 324 324 324 324 324 322 322 322 323 323 322 322 322 322 321 320 319
305 306 308 312 311 310 311 313 314 316 316 315 317 319 318 319 319 318 319 318 320 320 320 320 321 323 321 320 321 321 323 323 324 322 321 322 323 322 320 320 320 320 321 321 320
305 307 309 312 312 310 313 314 316 316 318 319 319 317 317 318 318 319 319 319 320 320 319 320 322 321 320 319 320 320 321 322 323 322 322 322 322 320 320 320 320 321 322 321 320
306 307 309 312 313 311 310 315 316 318 319 316 317 317 316 314 319 319 318 318 318 320 319 320 321 318 318 319 319 319 321 322 322 322 322 321 322 321 321 321 320 320 320 322 322
305 307 309 312 313 313 314 311 312 315 320 319 320 320 320 318 318 320 317 317 318 319 318 318 319 316 317 319 318 320 320 320 322 322 322 321 322 321 320 320 319 319 320 320 322
304 305 308 312 314 313 315 314 312 316 322 321 320 321 318 317 319 317 315 316 319 319 318 317 316 316 317 318 318 320 320 323 324 323 323 321 325 322 321 321 320 319 320 322 322
303 304 306 311 314 315 312 316 314 317 327 320 320 317 316 318 318 319 315 316 318 318 316 317 315 316 317 316 317 319 320 323 323 324 324 322 323 322 320 320 319 319 320 319 320
303 304 304 308 312 313 314 318 319 324 327 321 320 317 317 317 317 316 316 316 315 316 316 315 314 315 317 316 318 319 321 324 324 324 326 321 323 322 321 319 318 321 319 318 319
303 303 304 304 315 313 315 321 324 324 320 321 320 316 317 318 317 316 317 317 317 318 318 316 316 315 315 318 319 320 324 332 328 328 324 322 323 324 321 319 321 321 317 317 317
303 303 303 304 307 312 316 320 323 322 321 318 317 316 318 317 316 317 318 319 316 316 317 316 317 314 314 317 317 321 322 327 330 325 326 323 325 324 320 320 321 320 316 316 316
303 303 303 304 304 312 317 322 323 323 321 319 315 318 318 316 317 317 317 318 316 315 316 316 317 314 313 316 317 319 320 321 325 326 328 324 320 323 321 321 319 319 316 315 315
304 306 306 304 305 314 319 320 321 319 317 318 319 318 319 317 318 317 317 316 316 313 313 315 315 314 312 315 317 317 318 323 325 332 326 320 317 318 320 320 320 320 316 313 315
306 305 307 303 307 314 318 320 320 317 316 317 319 319 318 318 318 317 317 315 315 314 313 313 314 315 314 315 316 318 318 318 322 322 325 322 320 317 318 319 319 319 314 313 315
308 306 306 304 311 311 314 318 317 317 314 315 316 317 318 318 318 317 317 317 313 312 314 313 315 315 314 313 314 315 315 316 318 319 321 322 321 317 317 318 318 316 315 313 313
307 306 306 311 311 311 314 316 316 316 316 316 316 316 316 318 318 317 316 313 311 312 314 314 316 317 315 316 314 313 312 312 313 319 321 319 318 317 317 318 318 318 314 313 312
308 307 311 311 310 312 313 315 315 315 316 315 316 315 316 316 315 316 315 313 311 311 311 312 316 316 318 316 313 313 313 312 311 317 317 316 312 317 317 319 319 318 315 313 311
309 309 308 311 311 313 313 314 315 315 314 314 315 316 316 316 315 314 315 313 310 311 311 313 317 315 314 312 312 312 311 311 311 314 316 315 313 313 316 318 319 318 317 316 313
312 309 308 309 309 311 311 313 314 315 314 314 315 315 315 316 316 315 316 315 315 311 312 310 313 311 314 314 312 314 314 314 314 316 316 316 314 313 316 316 317 318 317 316 315
314 311 308 308 311 311 312 311 313 315 313 315 314 316 315 315 314 315 314 314 313 312 313 312 312 315 317 314 314 317 317 316 315 316 316 313 316 316 316 315 316 318 317 315 313

GFSSW_850_thetae_120.txt.gz
Theta_e
308 308 309 309 309 309 309 310 310 310 313 315 314 315 314 317 321 321 318 317 317 318 320 321 319 317 317 322 322 325 329 328 326 326 326 324 325 325 328 330 329 331 332 337 338
308 309 309 309 309 309 309 309 310 310 312 315 316 315 316 316 320 320 318 318 318 319 321 320 320 319 319 318 320 324 328 326 323 322 322 322 323 323 324 327 328 327 328 337 338
309 309 309 309 309 309 309 310 310 310 312 315 316 317 315 315 321 320 318 318 318 318 321 321 321 319 320 319 319 319 322 322 319 318 318 318 317 318 319 322 321 322 323 338 343
309 309 309 309 309 310 310 310 310 310 312 315 316 316 314 315 322 318 317 317 318 320 320 320 322 322 323 324 321 320 320 320 320 320 320 320 320 319 319 319 318 317 318 319 327
309 308 307 306 307 310 310 310 310 310 312 315 317 316 318 324 319 317 317 318 320 321 320 320 321 321 324 322 321 322 322 321 321 321 321 321 321 321 320 320 320 318 317 316 317
307 305 305 306 310 311 310 311 310 311 313 315 317 317 318 323 318 318 318 319 320 321 320 320 320 320 321 321 322 321 320 321 321 322 321 321 321 321 321 320 318 318 317 317 316
305 305 305 308 312 311 310 310 310 311 314 316 317 317 322 320 319 320 319 320 319 321 321 320 320 320 321 322 322 321 322 323 323 323 322 320 321 322 320 320 319 319 319 317 316
305 305 306 310 312 311 309 311 311 313 315 316 316 316 322 318 320 319 320 320 321 321 320 320 320 321 321 321 323 323 324 325 324 323 322 321 323 323 322 321 321 322 321 320 320
305 305 306 311 312 310 310 312 314 315 316 316 316 318 322 318 319 319 320 319 319 321 321 320 320 322 322 323 321 324 321 322 324 323 322 322 322 322 321 321 321 321 321 321 321
305 305 306 311 312 310 312 313 315 315 316 315 317 320 319 319 319 318 320 319 320 320 321 321 321 323 323 319 320 320 319 320 322 322 322 323 321 321 320 320 320 320 320 321 321
305 306 307 311 312 310 314 315 316 316 319 320 319 318 318 318 318 320 319 319 321 320 322 319 321 321 319 319 319 319 319 321 321 322 322 323 322 320 321 320 320 320 319 320 321
305 306 307 311 312 312 310 317 317 320 320 318 318 317 317 316 319 320 320 318 318 319 320 319 322 317 317 318 319 319 320 321 320 322 322 323 323 321 320 320 320 319 319 320 321
304 305 306 309 313 314 315 316 311 314 323 319 318 320 321 318 319 320 318 317 317 319 319 317 319 316 316 318 318 318 320 322 324 323 322 322 322 321 320 320 319 319 319 320 320
304 304 305 310 316 316 318 315 311 315 323 321 319 320 320 318 319 319 317 316 318 320 319 317 316 316 317 318 317 319 319 321 325 324 325 322 323 324 320 320 319 318 321 319 319
304 304 304 307 317 317 317 315 312 317 328 321 321 319 317 318 319 319 316 316 318 318 316 318 316 316 317 317 317 318 319 321 324 324 324 322 321 323 320 320 320 320 320 318 318
304 303 304 307 311 314 313 316 318 324 326 322 320 318 317 318 319 317 317 316 316 316 316 316 314 316 316 316 318 319 321 324 325 325 327 322 323 323 322 321 321 321 318 317 317
303 303 303 304 316 316 314 321 321 324 323 322 320 318 318 319 318 316 318 318 318 318 319 318 317 316 315 317 320 321 322 331 328 329 325 322 324 323 321 320 322 319 317 316 317
303 302 303 303 305 312 316 323 327 325 323 321 320 317 318 318 317 317 318 320 317 316 318 318 318 315 314 318 318 320 321 326 325 327 326 325 325 324 321 320 321 318 316 316 318
304 302 302 304 304 308 318 322 322 323 322 319 317 318 319 317 317 318 318 319 316 315 316 317 318 314 314 315 317 319 319 321 325 325 328 328 322 322 318 319 321 319 316 316 317
305 306 306 306 305 309 318 320 321 321 321 320 320 319 321 318 317 318 318 317 317 314 314 316 314 314 313 315 318 317 318 323 326 323 326 321 317 316 318 320 321 317 315 316 316
306 309 308 307 305 314 316 318 320 319 318 319 320 320 320 319 319 319 318 315 316 315 313 314 314 315 314 316 316 318 319 317 320 322 323 322 318 315 318 319 319 317 313 314 315
309 308 308 307 314 312 313 316 318 319 317 318 317 320 320 319 319 319 318 318 314 313 315 313 314 316 315 314 315 315 315 314 316 319 318 320 319 315 317 318 317 316 314 313 316
310 309 310 312 309 309 311 313 315 319 317 317 317 319 318 319 320 318 318 313 312 314 315 315 316 316 315 315 314 314 314 312 312 314 320 316 317 315 318 318 318 316 314 313 315
309 308 311 312 312 310 309 311 315 317 318 317 317 317 317 318 318 318 317 313 311 313 311 312 316 317 318 317 315 314 314 312 311 312 316 314 313 316 317 319 318 316 314 314 314
311 309 310 311 310 311 311 312 315 316 316 316 316 317 317 317 316 316 316 313 312 313 311 313 317 317 316 314 313 312 313 312 311 310 313 315 315 313 315 317 319 318 316 314 313
311 310 308 309 309 309 310 312 314 315 315 315 316 316 316 317 316 315 316 314 314 311 313 311 313 313 313 315 315 313 313 314 312 310 311 314 315 313 316 318 319 318 318 316 313
310 313 310 310 308 309 309 311 313 315 314 315 315 316 316 316 315 316 315 315 313 312 313 312 312 315 317 315 315 315 315 315 314 314 315 315 315 314 314 316 318 318 317 316 314